[[{"header":{"parameterUnit":"m.s-1","parameterCategory":1,"la1":30.6,"la2":29.2853,"lo1":-89.7004,"lo2":-87.6739,"dy":0.0162,"dx":0.0183,"nx":112,"ny":82,"refTime":"2024-04-16T12:00:00:Z","depth":0,"parameterNumber":2,"parameterNumberName":"U-component_of_WINDS"},"data":[0.0,0.0,0.0,0.0,0.0,0.0,0.0,0.0,0.0,0.0,0.0,0.0,0.0,0.0,0.0,0.0,0.0,0.0,0.0,0.0,0.0,0.0,0.0,0.0,0.0,0.0,0.0,0.0,0.0,0.0,0.0,0.0,0.0,0.0,0.0,0.0,0.0,0.0,0.0,0.0,0.0,0.0,0.0,0.0,0.0,0.0,0.0,0.0,0.0,0.0,0.0,0.0,0.0,0.0,0.0,0.0,0.0,0.0,0.0,0.0,0.0,0.0,0.0,0.0,0.0,0.0,0.0,0.0,0.0,0.0,0.0,0.0,0.0,0.0,0.0,0.0,0.0,0.0,0.0,0.0,0.0,0.0,0.0,0.0,0.0,0.0,0.0,0.0,0.0,0.0,-1.1317,-1.284,-1.3923,-1.4244,-1.353,-1.2952,-1.2763,-1.3071,0.0,0.0,0.0,0.0,0.0,0.0,0.0,0.0,0.0,0.0,0.0,0.0,0.0,0.0,0.0,0.0,0.0,0.0,0.0,0.0,0.0,0.0,0.0,0.0,0.0,0.0,0.0,0.0,0.0,0.0,0.0,0.0,0.0,0.0,0.0,0.0,0.0,0.0,0.0,0.0,0.0,0.0,0.0,0.0,0.0,0.0,0.0,0.0,0.0,0.0,0.0,0.0,0.0,0.0,0.0,0.0,0.0,0.0,0.0,0.0,0.0,0.0,0.0,0.0,0.0,0.0,0.0,0.0,0.0,0.0,0.0,0.0,0.0,0.0,0.0,0.0,0.0,0.0,0.0,0.0,0.0,0.0,0.0,0.0,0.0,0.0,0.0,0.0,0.0,0.0,0.0,0.0,0.0,0.0,0.0,0.0,0.0,0.0,0.0,0.0,0.0,0.0,0.0,0.0,-1.0648,-1.1136,-1.2738,-1.3405,-1.25,-1.2134,-1.2147,-1.2582,0.0,0.0,0.0,0.0,0.0,0.0,0.0,0.0,0.0,0.0,0.0,0.0,0.0,0.0,0.0,0.0,0.0,0.0,0.0,0.0,0.0,0.0,0.0,0.0,0.0,0.0,0.0,0.0,0.0,0.0,0.0,0.0,0.0,0.0,0.0,0.0,0.0,0.0,0.0,0.0,0.0,0.0,0.0,0.0,0.0,0.0,0.0,0.0,0.0,0.0,0.0,0.0,0.0,0.0,0.0,0.0,0.0,0.0,0.0,0.0,0.0,0.0,0.0,0.0,0.0,0.0,0.0,0.0,0.0,0.0,0.0,0.0,0.0,0.0,0.0,0.0,0.0,0.0,0.0,0.0,0.0,0.0,0.0,0.0,0.0,0.0,0.0,0.0,0.0,0.0,0.0,0.0,0.0,0.0,0.0,0.0,0.0,0.0,0.0,0.0,0.0,0.0,0.0,-1.0801,-1.0561,-1.029,-1.1161,-1.158,-1.1147,-1.0568,-1.0831,-1.2253,-1.22,0.0,0.0,0.0,0.0,0.0,0.0,0.0,0.0,0.0,0.0,0.0,0.0,0.0,0.0,0.0,0.0,0.0,0.0,0.0,0.0,0.0,0.0,0.0,0.0,0.0,0.0,0.0,0.0,0.0,0.0,0.0,0.0,0.0,0.0,0.0,0.0,0.0,0.0,0.0,0.0,0.0,0.0,0.0,0.0,0.0,0.0,0.0,0.0,0.0,0.0,0.0,0.0,0.0,0.0,0.0,0.0,0.0,0.0,0.0,0.0,0.0,0.0,0.0,0.0,0.0,0.0,0.0,0.0,0.0,0.0,0.0,0.0,0.0,0.0,0.0,0.0,0.0,0.0,0.0,0.0,0.0,0.0,0.0,0.0,0.0,0.0,0.0,0.0,0.0,0.0,0.0,0.0,0.0,0.0,0.0,0.0,0.0,0.0,0.0,0.0,0.0,0.0,-1.0578,-1.0289,-0.9693,-0.997,-1.0166,-1.004,-0.9553,-0.9976,-1.1692,-1.1438,0.0,0.0,0.0,0.0,0.0,0.0,0.0,0.0,0.0,0.0,0.0,0.0,0.0,0.0,0.0,0.0,0.0,0.0,0.0,0.0,0.0,0.0,0.0,0.0,0.0,0.0,0.0,0.0,0.0,0.0,0.0,0.0,0.0,0.0,0.0,0.0,0.0,0.0,0.0,0.0,0.0,0.0,0.0,0.0,0.0,0.0,0.0,0.0,0.0,0.0,0.0,0.0,0.0,0.0,0.0,0.0,0.0,0.0,0.0,0.0,0.0,0.0,0.0,0.0,0.0,0.0,0.0,0.0,0.0,0.0,0.0,0.0,0.0,0.0,0.0,0.0,0.0,0.0,0.0,0.0,0.0,0.0,0.0,0.0,0.0,0.0,0.0,0.0,0.0,0.0,0.0,0.0,0.0,0.0,0.0,0.0,0.0,0.0,0.0,0.0,0.0,0.0,-0.9718,-0.935,-0.9165,-0.9779,-1.0014,-0.9596,-1.0004,-1.0386,-1.0612,-1.1042,0.0,0.0,0.0,0.0,0.0,0.0,0.0,0.0,0.0,0.0,0.0,0.0,0.0,0.0,0.0,0.0,0.0,0.0,0.0,0.0,0.0,0.0,0.0,0.0,0.0,0.0,0.0,0.0,0.0,0.0,0.0,0.0,0.0,0.0,0.0,0.0,0.0,0.0,0.0,0.0,0.0,0.0,0.0,0.0,0.0,0.0,0.0,0.0,0.0,0.0,0.0,0.0,0.0,0.0,0.0,0.0,0.0,0.0,0.0,0.0,0.0,0.0,0.0,0.0,0.0,0.0,0.0,0.0,0.0,0.0,0.0,0.0,0.0,0.0,0.0,0.0,0.0,0.0,0.0,0.0,0.0,0.0,0.0,0.0,0.0,0.0,0.0,0.0,0.0,0.0,0.0,0.0,0.0,0.0,0.0,0.0,0.0,0.0,0.0,0.0,0.0,0.0,-0.9631,-0.9033,0.0,-0.8454,-0.8438,-0.8095,-0.8617,-0.9226,-0.9833,0.0,0.0,0.0,0.0,0.0,0.0,0.0,0.0,0.0,0.0,0.0,0.0,0.0,0.0,0.0,0.0,0.0,0.0,0.0,0.0,0.0,0.0,0.0,0.0,0.0,0.0,0.0,0.0,0.0,0.0,0.0,0.0,0.0,0.0,0.0,0.0,0.0,0.0,0.0,0.0,0.0,0.0,0.0,0.0,0.0,0.0,0.0,0.0,0.0,0.0,0.0,0.0,0.0,0.0,0.0,0.0,0.0,0.0,0.0,0.0,0.0,0.0,0.0,0.0,0.0,0.0,0.0,0.0,0.0,0.0,0.0,0.0,0.0,0.0,0.0,0.0,0.0,0.0,0.0,0.0,0.0,0.0,0.0,0.0,0.0,0.0,0.0,0.0,0.0,0.0,0.0,0.0,0.0,0.0,0.0,0.0,0.0,0.0,0.0,0.0,0.0,0.0,-1.0141,-0.935,-0.8567,0.0,-0.7709,-0.7537,-0.7144,-0.7873,-0.8524,-0.8938,0.0,0.0,0.0,0.0,0.0,0.0,0.0,0.0,0.0,0.0,0.0,0.0,0.0,0.0,0.0,0.0,0.0,0.0,0.0,0.0,0.0,0.0,0.0,0.0,0.0,0.0,0.0,0.0,0.0,0.0,0.0,0.0,0.0,0.0,0.0,0.0,0.0,0.0,0.0,0.0,0.0,0.0,0.0,0.0,0.0,0.0,0.0,0.0,0.0,0.0,0.0,0.0,0.0,0.0,0.0,0.0,0.0,0.0,0.0,0.0,0.0,0.0,0.0,0.0,0.0,0.0,0.0,0.0,0.0,0.0,0.0,0.0,0.0,0.0,0.0,0.0,0.0,0.0,0.0,0.0,0.0,0.0,0.0,0.0,0.0,0.0,0.0,0.0,0.0,0.0,0.0,0.0,0.0,0.0,0.0,0.0,0.0,0.0,0.0,0.0,0.0,0.0,-0.998,-0.8731,-0.7827,-0.7627,-0.7775,-0.7635,-0.6952,-0.8125,-0.8589,0.0,0.0,0.0,0.0,0.0,0.0,0.0,0.0,0.0,0.0,0.0,0.0,0.0,0.0,0.0,0.0,0.0,0.0,0.0,0.0,0.0,0.0,0.0,0.0,0.0,0.0,0.0,0.0,0.0,0.0,0.0,0.0,0.0,0.0,0.0,0.0,0.0,0.0,0.0,0.0,0.0,0.0,0.0,0.0,0.0,0.0,0.0,0.0,0.0,0.0,0.0,0.0,0.0,0.0,0.0,0.0,0.0,0.0,0.0,0.0,0.0,0.0,0.0,0.0,0.0,0.0,0.0,0.0,0.0,0.0,0.0,0.0,0.0,0.0,0.0,0.0,0.0,0.0,0.0,0.0,0.0,0.0,0.0,0.0,0.0,0.0,0.0,0.0,0.0,0.0,0.0,0.0,0.0,0.0,0.0,0.0,0.0,0.0,0.0,0.0,0.0,0.0,0.0,-0.998,-0.8731,-0.7827,-0.7627,-0.7657,-0.7537,-0.7152,-0.8074,-0.8779,-0.8985,0.0,0.0,0.0,0.0,0.0,0.0,0.0,0.0,0.0,0.0,0.0,0.0,0.0,0.0,0.0,0.0,0.0,0.0,0.0,0.0,0.0,0.0,0.0,0.0,0.0,0.0,0.0,0.0,0.0,0.0,0.0,0.0,0.0,0.0,0.0,0.0,0.0,0.0,0.0,0.0,0.0,0.0,0.0,0.0,0.0,0.0,0.0,0.0,0.0,0.0,0.0,0.0,0.0,0.0,0.0,0.0,0.0,0.0,0.0,0.0,0.0,0.0,0.0,0.0,0.0,0.0,0.0,0.0,0.0,0.0,0.0,0.0,0.0,0.0,0.0,0.0,0.0,0.0,0.0,0.0,0.0,0.0,0.0,0.0,0.0,0.0,0.0,0.0,0.0,0.0,0.0,0.0,0.0,0.0,0.0,0.0,0.0,0.0,0.0,0.0,0.0,0.0,-1.0009,-0.8731,-0.7827,-0.7627,-0.7672,-0.7684,-0.7604,-0.8405,-0.8986,-0.9169,0.0,0.0,0.0,0.0,0.0,0.0,0.0,0.0,0.0,0.0,0.0,0.0,0.0,0.0,0.0,0.0,0.0,0.0,0.0,0.0,0.0,0.0,0.0,0.0,0.0,0.0,0.0,0.0,0.0,0.0,0.0,0.0,0.0,0.0,0.0,0.0,0.0,0.0,0.0,0.0,0.0,0.0,0.0,0.0,0.0,0.0,0.0,0.0,0.0,0.0,0.0,0.0,0.0,0.0,0.0,0.0,0.0,0.0,0.0,0.0,0.0,0.0,0.0,0.0,0.0,0.0,0.0,0.0,0.0,0.0,0.0,0.0,0.0,0.0,0.0,0.0,0.0,0.0,0.0,0.0,0.0,0.0,0.0,0.0,0.0,0.0,0.0,0.0,0.0,0.0,0.0,0.0,0.0,0.0,0.0,0.0,0.0,0.0,0.0,0.0,0.0,0.0,-1.0234,-0.891,-0.8012,-0.7832,-0.7975,-0.8165,-0.834,-0.9062,-0.9325,-0.8937,0.0,0.0,0.0,0.0,0.0,0.0,0.0,0.0,0.0,0.0,0.0,0.0,0.0,0.0,0.0,0.0,0.0,0.0,0.0,0.0,0.0,0.0,0.0,0.0,0.0,0.0,0.0,0.0,0.0,0.0,0.0,0.0,0.0,0.0,0.0,0.0,0.0,0.0,0.0,0.0,0.0,0.0,0.0,0.0,0.0,0.0,0.0,0.0,0.0,0.0,0.0,0.0,0.0,0.0,0.0,0.0,0.0,0.0,0.0,0.0,-2.2049,0.0,0.0,0.0,0.0,0.0,0.0,0.0,0.0,0.0,0.0,0.0,0.0,0.0,0.0,0.0,0.0,0.0,0.0,0.0,0.0,0.0,0.0,0.0,0.0,0.0,0.0,0.0,0.0,0.0,0.0,0.0,0.0,0.0,0.0,0.0,0.0,0.0,0.0,0.0,0.0,0.0,-1.1491,-1.0264,-0.9462,-0.9404,-0.9453,-0.949,-0.9535,-0.9933,-1.0289,-1.0498,-1.0712,0.0,0.0,0.0,0.0,0.0,0.0,0.0,0.0,0.0,0.0,0.0,0.0,0.0,0.0,0.0,0.0,0.0,0.0,0.0,0.0,0.0,0.0,0.0,0.0,0.0,0.0,0.0,0.0,0.0,0.0,0.0,0.0,0.0,0.0,0.0,0.0,0.0,0.0,0.0,0.0,0.0,0.0,0.0,0.0,0.0,0.0,0.0,0.0,0.0,0.0,0.0,0.0,0.0,0.0,0.0,0.0,0.0,0.0,0.0,0.0,-2.1827,0.0,0.0,0.0,0.0,0.0,0.0,0.0,0.0,0.0,0.0,0.0,0.0,0.0,0.0,0.0,0.0,0.0,0.0,0.0,0.0,0.0,0.0,0.0,0.0,0.0,0.0,0.0,0.0,0.0,0.0,0.0,0.0,0.0,0.0,0.0,0.0,0.0,0.0,0.0,0.0,-1.188,-1.0683,-0.989,-0.989,-0.989,-1.0024,-1.0299,-1.049,-1.0812,-1.1349,-1.1435,0.0,0.0,0.0,0.0,0.0,0.0,0.0,0.0,0.0,0.0,0.0,0.0,0.0,0.0,0.0,0.0,0.0,0.0,0.0,0.0,0.0,0.0,0.0,0.0,0.0,0.0,0.0,0.0,0.0,0.0,0.0,0.0,0.0,0.0,0.0,0.0,0.0,0.0,0.0,0.0,0.0,0.0,0.0,0.0,0.0,0.0,0.0,0.0,0.0,0.0,0.0,0.0,0.0,-2.2106,-2.2296,-2.2296,-2.2296,-2.2296,-2.2245,-2.1529,-2.1617,-2.2231,0.0,0.0,0.0,0.0,0.0,0.0,0.0,0.0,0.0,0.0,0.0,0.0,0.0,0.0,0.0,0.0,0.0,0.0,0.0,0.0,0.0,0.0,0.0,0.0,0.0,-1.672,-1.6701,0.0,0.0,0.0,0.0,0.0,0.0,0.0,0.0,0.0,0.0,0.0,0.0,-1.2298,-1.1132,-1.0349,-1.0318,-1.0293,-1.0476,-1.0942,-1.0962,-1.1211,-1.1775,-1.1627,-0.8709,0.0,0.0,0.0,0.0,0.0,0.0,0.0,0.0,0.0,0.0,0.0,0.0,0.0,0.0,0.0,0.0,0.0,0.0,0.0,0.0,0.0,0.0,0.0,0.0,0.0,0.0,0.0,0.0,0.0,0.0,0.0,0.0,-1.651,-1.651,0.0,0.0,0.0,0.0,0.0,0.0,0.0,0.0,0.0,0.0,0.0,0.0,0.0,-2.1411,-2.139,-2.1938,-2.2209,-2.2209,-2.2268,-2.2296,-2.2296,-2.2296,-2.2296,-2.2245,-2.1529,0.0,-2.2335,-2.2698,0.0,0.0,0.0,0.0,0.0,0.0,0.0,0.0,0.0,0.0,0.0,0.0,0.0,0.0,0.0,0.0,0.0,0.0,0.0,0.0,0.0,0.0,-1.7434,-1.6819,-1.7185,-1.7468,0.0,-1.7007,-1.7355,-1.7306,-1.6749,0.0,0.0,0.0,0.0,0.0,0.0,0.0,-1.3933,-1.2932,-1.2148,-1.1932,-1.1902,-1.1831,-1.1677,-1.167,-1.1715,-1.179,-0.9716,-0.9139,-1.0621,-1.1911,0.0,0.0,0.0,0.0,0.0,0.0,0.0,0.0,0.0,0.0,0.0,0.0,0.0,0.0,0.0,0.0,0.0,0.0,0.0,0.0,0.0,0.0,0.0,0.0,0.0,0.0,0.0,0.0,0.0,-1.6998,-1.7049,-1.7582,-1.8137,-1.8582,0.0,0.0,0.0,0.0,0.0,0.0,0.0,0.0,0.0,-2.1633,-2.2017,-2.2344,-2.262,-2.2815,-2.2716,-2.2296,-2.2296,-2.2296,-2.2296,-2.2296,-2.2296,-2.2293,-2.2118,-2.2146,-2.229,-2.2134,-2.2167,-2.231,0.0,0.0,0.0,0.0,-2.1597,-2.1468,-2.0554,-2.0256,0.0,0.0,0.0,0.0,0.0,0.0,0.0,0.0,0.0,0.0,0.0,0.0,0.0,-1.6922,-1.7037,-1.7213,-1.7304,-1.7457,-1.7631,0.0,-1.7971,-1.7861,-1.7255,0.0,0.0,0.0,0.0,-1.5267,-1.5126,-1.435,-1.3626,-1.3098,-1.341,-1.3289,-1.2328,-1.2498,-1.241,-1.1831,-1.0737,-1.1014,-1.3069,-1.3134,-1.3413,0.0,0.0,0.0,0.0,0.0,0.0,0.0,0.0,0.0,0.0,0.0,0.0,0.0,0.0,0.0,0.0,0.0,0.0,0.0,0.0,0.0,0.0,0.0,0.0,0.0,0.0,0.0,0.0,-1.7271,-1.765,-1.8045,-1.8706,-1.9203,0.0,0.0,0.0,0.0,0.0,0.0,-2.1279,-2.1569,-2.2134,-2.2978,-2.3105,-2.3325,-2.368,-2.3477,-2.3122,-2.2581,-2.2381,-2.2398,-2.2581,-2.2581,-2.2682,-2.2866,-2.2874,-2.2764,-2.2544,-2.1951,-2.1945,-2.231,-2.2374,-2.236,-2.2268,-2.1913,-2.1779,-2.1663,-2.0931,-2.0683,-2.0522,-1.9587,0.0,-1.9521,-1.8424,0.0,0.0,0.0,0.0,-1.798,-1.7586,-1.7529,-1.7584,-1.774,-1.7501,-1.7416,-1.7963,-1.8082,-1.8091,0.0,-1.865,-1.8768,-1.7823,0.0,0.0,0.0,0.0,-1.5998,-1.5905,-1.538,-1.4766,-1.4152,-1.4405,-1.4158,-1.2973,-1.3025,-1.2796,-1.2054,-1.194,-1.2441,-1.3594,-1.3768,-1.4041,-1.449,0.0,0.0,0.0,0.0,0.0,0.0,0.0,0.0,0.0,0.0,0.0,0.0,0.0,0.0,0.0,0.0,0.0,0.0,0.0,0.0,0.0,0.0,0.0,0.0,0.0,0.0,0.0,0.0,0.0,-1.6564,-1.8339,0.0,0.0,0.0,0.0,-2.028,-2.1019,-2.1638,-2.2017,-2.3128,-2.3786,-2.3836,-2.4222,-2.4425,-2.444,-2.3763,-2.3376,-2.3342,-2.2632,-2.2682,-2.3342,-2.3342,-2.3729,-2.4355,-2.3659,-2.3357,-2.3333,-2.3165,-2.2772,-2.2338,-2.2573,-2.251,-2.2296,-2.2265,-2.2268,-2.215,-2.1417,-2.1164,-2.1068,-2.0524,-2.0337,-2.0169,-1.9146,-1.8843,0.0,0.0,-1.829,-1.8838,-1.8804,-1.9316,-1.9845,-1.9858,-1.9299,-1.8804,-1.8838,-1.8843,-1.864,0.0,-1.7862,-1.777,-1.7398,0.0,-1.7542,-1.6892,-1.6721,-1.655,-1.6214,-1.5819,-1.5459,-1.5164,-1.4532,-1.4005,-1.3661,-1.3017,-1.2614,-1.2562,-1.2322,-1.2493,-1.3208,-1.4023,-1.447,-1.4501,-1.4494,0.0,0.0,0.0,0.0,0.0,0.0,0.0,0.0,0.0,0.0,0.0,0.0,0.0,0.0,0.0,0.0,0.0,0.0,0.0,0.0,0.0,0.0,0.0,0.0,0.0,0.0,0.0,0.0,-1.9724,-2.0487,0.0,-2.1265,-2.1337,-2.1571,-2.2074,-2.2609,-2.3128,-2.3616,-2.4042,-2.4506,-2.4977,-2.5123,-2.5203,-2.5203,-2.4949,-2.4577,-2.4101,-2.3848,-2.3864,-2.4118,-2.4118,-2.4254,-2.4491,-2.422,-2.4118,-2.41,-2.4059,-2.3349,-2.231,-2.2415,-2.2388,-2.2296,-2.2296,-2.2296,-2.2178,-2.1461,-2.119,-2.1206,-2.117,-2.072,-2.0121,-1.9962,-1.9445,-1.8843,-1.8589,-1.8691,-1.9012,-1.9473,-1.9811,-2.0002,-2.0002,-1.9811,-1.9473,-1.8995,-1.8894,-1.8674,-1.7935,-1.8172,-1.8317,-1.7714,-1.8102,-1.8283,-1.7562,-1.8217,-1.8441,-1.7367,-1.7524,-1.7332,-1.6286,-1.6349,-1.6066,-1.5011,-1.4951,-1.4775,-1.4296,-1.4009,-1.4178,-1.4844,-1.5164,-1.5343,-1.5348,-1.4021,-1.1546,0.0,0.0,0.0,0.0,0.0,0.0,0.0,0.0,0.0,0.0,0.0,0.0,0.0,0.0,0.0,0.0,0.0,0.0,0.0,0.0,0.0,0.0,0.0,0.0,0.0,0.0,-2.1061,-2.1686,-2.231,-2.2757,-2.2987,-2.3015,-2.3248,-2.377,-2.4464,-2.4996,-2.5236,-2.5489,-2.571,-2.5964,-2.5981,-2.5981,-2.5981,-2.5711,-2.5355,-2.488,-2.4626,-2.4626,-2.488,-2.488,-2.5015,-2.5235,-2.4982,-2.488,-2.4829,-2.4338,-2.3545,-2.2682,-2.2682,-2.2516,-2.2296,-2.2296,-2.2296,-2.2229,-2.1735,-2.146,-2.1327,-2.1434,-2.0856,-2.0159,-2.0288,-1.9838,-1.927,-1.927,-1.952,-1.9923,-2.0406,-2.0717,-2.0905,-2.0905,-2.0645,-2.0268,-1.9773,-1.9452,-1.9118,-1.8645,-1.8741,-1.8741,-1.8268,-1.8775,-1.9101,-1.8628,-1.9469,-1.9777,-1.8674,-1.9068,-1.8932,-1.759,-1.7659,-1.7304,-1.6079,-1.6036,-1.5858,-1.5371,-1.5085,-1.5244,-1.5912,-1.5846,-1.5939,-1.6229,-1.6035,-1.4636,-1.2031,0.0,0.0,0.0,0.0,0.0,0.0,0.0,0.0,0.0,0.0,0.0,0.0,0.0,0.0,0.0,0.0,0.0,0.0,0.0,0.0,0.0,0.0,0.0,-2.015,-2.1591,-2.2581,-2.2098,-2.3585,-2.4425,-2.3809,-2.4255,-2.4791,-2.5266,-2.6501,-2.7096,-2.6793,-2.7418,-2.7469,-2.6759,-2.6708,-2.6691,-2.6691,-2.5998,-2.5626,-2.5642,-2.4914,-2.4948,-2.5626,-2.5626,-2.6015,-2.6623,-2.5913,-2.5592,-2.5456,-2.4019,-2.341,-2.3393,-2.3376,-2.2936,-2.2296,-2.2296,-2.2296,-2.2296,-2.2296,-2.1962,-2.1501,-2.1313,-2.0892,-2.0405,-2.0119,-2.0048,-2.0035,-2.0035,-2.0793,-2.1586,-2.1633,-2.217,-2.2682,-2.2695,-2.1948,-2.1224,-2.119,-2.0585,-2.0035,-2.0002,-1.9439,-1.8961,-1.8939,-1.9553,-2.0044,-2.0027,-2.0335,0.0,-2.0073,-2.0329,-2.0137,-1.9055,-1.8313,-1.7585,-1.6857,-1.6147,-1.5731,-1.5731,-1.5491,-1.5648,-1.6285,-1.6077,-1.6342,-1.722,-2.0528,-2.153,-2.0125,0.0,0.0,0.0,0.0,0.0,0.0,0.0,0.0,0.0,0.0,0.0,0.0,0.0,0.0,0.0,0.0,0.0,0.0,0.0,0.0,0.0,0.0,-2.2317,-2.198,-2.3165,-2.4386,-2.5146,-2.5676,-2.628,-2.7019,-2.6783,-2.6824,-2.7336,-2.7707,-2.8042,-2.8348,-2.801,-2.7705,-2.7503,-2.6979,-2.6691,-2.6691,-2.6488,-2.6404,-2.6387,-2.62,-2.6201,-2.6404,-2.6404,-2.6218,-2.5896,-2.5693,-2.5304,-2.4778,-2.4355,-2.3881,-2.3342,-2.2818,-2.2482,-2.2296,-2.2296,-2.2296,-2.2296,-2.2296,-2.22,-2.2106,-2.2241,-2.2055,-2.1701,-2.1279,-2.1011,-2.0873,-2.0873,-2.107,-2.1486,-2.2211,-2.2409,-2.2463,-2.266,-2.2346,-2.1854,-2.1309,-2.1021,-2.0703,-2.0103,-2.0314,-2.0378,-1.9794,-2.0511,-2.098,-2.0446,-2.1563,0.0,-2.0877,-2.1273,-2.1253,-2.0166,-1.9884,-1.9573,-1.9125,-1.8915,-1.8785,-1.8785,-1.8709,-1.8761,-1.8963,-1.8872,-1.9223,-2.0062,-2.0489,-2.0772,0.0,0.0,0.0,0.0,0.0,0.0,0.0,0.0,0.0,0.0,0.0,0.0,0.0,0.0,0.0,0.0,0.0,0.0,0.0,0.0,0.0,0.0,-2.3714,-2.453,-2.5076,-2.557,-2.6339,-2.7643,-2.8039,-2.8497,-2.9204,-2.9157,-2.9074,-2.9078,-2.93,-2.947,-2.9465,-2.8721,-2.8163,-2.7824,-2.7384,-2.7012,-2.6691,-2.7012,-2.7012,-2.6691,-2.6691,-2.6691,-2.6691,-2.6387,-2.6015,0.0,-2.5592,-2.5169,-2.4491,-2.4491,-2.4068,0.0,0.0,0.0,0.0,0.0,-2.2296,-2.2296,-2.2296,-2.2296,-2.2338,-2.2473,-2.2426,-2.2254,-2.1977,-2.1792,-2.1651,-2.1651,-2.1738,-2.1961,-2.2552,-2.2573,-2.2514,-2.2656,-2.2487,-2.2178,-2.1752,-2.1651,-2.1515,-2.1045,-2.1432,0.0,-2.1055,-2.1567,-2.196,-2.168,-2.2645,-2.3059,-2.2045,-2.2424,-2.2318,-2.1086,-2.0952,-2.0687,-2.0056,-2.0002,0.0,0.0,0.0,-2.0002,-2.0002,-2.0002,0.0,0.0,0.0,-2.093,-2.1651,0.0,0.0,0.0,-2.0489,-2.0595,0.0,0.0,0.0,0.0,0.0,0.0,0.0,0.0,0.0,0.0,0.0,0.0,0.0,0.0,0.0,0.0,-2.5959,-2.7315,-2.8726,-2.8493,-2.8576,-2.9672,-3.0276,-3.0611,-3.0686,-3.1112,-3.1113,-3.0464,-3.0898,-3.0903,-3.026,0.0,0.0,0.0,0.0,-2.7435,-2.6725,-2.7351,-2.7351,-2.6691,-2.6607,-2.6573,-2.6539,-2.5812,-2.5439,-2.5355,-2.5355,-2.4932,-2.4254,-2.4254,-2.3864,-2.3274,-2.3274,-2.2885,-2.2296,-2.2296,-2.2296,-2.2296,-2.2296,0.0,0.0,-2.2296,-2.2296,-2.2296,-2.2296,-2.2296,-2.2296,-2.2296,-2.2477,-2.2656,-2.2695,-2.2669,-2.2656,-2.2695,-2.2487,-2.2296,-2.2296,-2.2296,-2.2296,-2.2296,-2.2527,-2.2634,-2.2443,-2.263,-2.291,-2.3153,-2.3522,-2.366,-2.3357,-2.3566,-2.3253,-2.1923,0.0,0.0,-2.0344,-2.0255,-2.0255,-2.0255,-2.0255,-2.0255,-2.0255,-2.0255,-2.0589,-2.1309,-2.1326,-2.1647,-2.2296,-2.2296,-2.2296,-2.2279,-2.1202,-2.1083,0.0,0.0,0.0,0.0,0.0,0.0,0.0,0.0,0.0,0.0,0.0,0.0,0.0,0.0,0.0,-2.5884,-2.7335,-2.8861,-3.0744,-3.1362,-3.1503,-3.1173,-3.072,-3.0845,-3.1846,-3.1513,-3.1187,-3.1052,-3.1131,-3.114,-3.0987,-3.0294,0.0,-2.8807,-2.8128,-2.7435,-2.6725,-2.6843,-2.6843,-2.6691,0.0,0.0,-2.5795,-2.5049,-2.4389,-2.3833,-2.3833,-2.341,-2.2733,-2.2733,-2.2634,-2.2499,-2.2499,-2.2431,-2.2296,-2.2296,-2.2296,-2.2296,-2.2296,-2.2296,-2.2296,-2.2296,-2.2296,-2.2296,-2.2296,-2.2296,0.0,-2.2296,-2.2335,-2.2426,-2.2647,-2.2537,-2.244,-2.2647,-2.2487,-2.2296,-2.2296,-2.2296,-2.2296,-2.2296,-2.2527,-2.2772,-2.2989,-2.3288,-2.3444,-2.3224,-2.3714,-2.4084,-2.4016,-2.4064,-2.3783,-2.2982,-2.2894,-2.2616,-2.1912,-2.1857,-2.1857,-2.1857,-2.1857,-2.1857,-2.1857,-2.1857,-2.1924,-2.209,-2.209,-2.2175,-2.2296,-2.2296,-2.2296,-2.2296,-2.2057,-2.2291,0.0,0.0,0.0,0.0,0.0,0.0,0.0,0.0,0.0,0.0,0.0,-2.2138,-2.3432,0.0,-2.6162,-2.7839,-2.9221,-3.0578,-3.1909,-3.2676,-3.3085,-3.3048,-3.2398,-3.219,-3.2782,-3.2171,-3.1427,-3.0717,-3.0649,-3.0497,-3.0127,-2.9381,-2.877,-2.8416,-2.801,-2.7435,-2.6725,-2.7063,-2.6877,-2.615,-2.5795,-2.5423,-2.5017,-2.4288,-2.3763,-2.3393,-2.3393,-2.2987,-2.233,-2.2699,-2.3071,-2.3393,-2.3393,-2.2953,-2.2296,-2.2296,-2.2296,-2.2296,-2.2296,-2.2296,-2.2296,-2.2296,-2.2296,-2.2296,-2.2296,-2.2296,-2.2321,-2.2463,-2.2398,-2.236,-2.2621,-2.25,-2.2335,-2.2463,-2.2402,-2.2296,-2.2296,-2.2296,-2.2296,-2.2296,-2.2643,-2.296,-2.296,-2.3511,-2.3896,-2.3742,-2.3986,-2.419,-2.419,-2.419,-2.3937,-2.3259,-2.32,-2.2958,-2.2349,-2.2296,-2.2296,-2.2296,-2.2296,-2.2296,-2.2296,-2.2296,-2.2296,-2.2296,-2.2296,-2.2296,-2.2296,-2.2296,-2.236,-2.25,-2.2517,-2.2773,0.0,0.0,0.0,0.0,0.0,0.0,0.0,0.0,-2.1143,-2.2068,-2.3073,-2.4228,-2.5717,-2.7066,-2.8378,-2.9592,-3.0895,-3.202,-3.2698,-3.3254,-3.3826,-3.4497,-3.3799,-3.3315,-3.3394,-3.2594,-3.1599,-3.0412,-3.0311,-2.9989,-2.9264,-2.8602,-2.8111,-2.7824,-2.7807,-2.7435,-2.6725,-2.7148,-2.6776,-2.5592,-2.5321,-2.4864,-2.4271,-2.3663,-2.3325,-2.319,-2.3342,-2.3139,-2.2784,-2.3359,-2.3966,-2.4491,-2.4491,-2.378,-2.2716,-2.2567,-2.2415,-2.2296,-2.2296,-2.2296,-2.2296,-2.2296,-2.2398,-2.2496,-2.2411,-2.2451,-2.2533,-2.2673,-2.2514,-2.2383,-2.2749,-2.2685,-2.255,-2.2699,-2.2632,-2.255,-2.2699,-2.2499,-2.2358,-2.2564,-2.2941,-2.3129,-2.2935,-2.361,-2.418,-2.4103,-2.4161,-2.419,-2.419,-2.419,-2.3937,-2.3259,-2.32,-2.2958,-2.2349,-2.2296,-2.2296,-2.2296,-2.2296,-2.2296,-2.2296,-2.2296,-2.2296,-2.2296,-2.2296,-2.2296,-2.2296,-2.2296,-2.244,-2.2708,-2.2773,-2.297,-2.1655,-2.0927,-2.04,-2.055,-2.0583,-2.0902,0.0,0.0,-2.2025,-2.3903,-2.4346,-2.5017,-2.7025,-2.8483,-2.9579,-3.0283,-3.1567,-3.2737,-3.3375,-3.3502,-3.377,-3.4437,-3.3322,-3.2746,-3.3343,-3.2138,-3.1241,-3.1089,-3.1072,-3.0751,-3.0023,-2.9886,-2.921,-2.7841,-2.7807,-2.7435,-2.6725,-2.6133,-2.5761,-2.5576,-2.4272,-2.3596,-2.3511,-2.3427,-2.3038,-2.2448,-2.3122,-2.3714,-2.4254,-2.4338,-2.4423,-2.4491,-2.4491,-2.4406,-2.4169,-2.3526,-2.2868,-2.2296,-2.2296,-2.2296,-2.2296,-2.2296,-2.275,-2.3212,-2.2779,-2.2949,-2.3209,-2.2811,-2.2514,-2.2462,-2.3146,-2.3287,-2.3427,-2.4101,-2.3763,-2.346,-2.4118,-2.3224,-2.2581,-2.3547,-2.3443,-2.3271,-2.3544,-2.3927,-2.4094,-2.3806,-2.4006,-2.419,-2.419,-2.419,-2.3937,-2.3259,-2.32,-2.2958,-2.2349,-2.2296,-2.2296,-2.2296,-2.2296,-2.2296,-2.2296,-2.2296,-2.2296,-2.2296,-2.2296,-2.2296,-2.2296,-2.2296,-2.244,-2.2708,-2.2708,-2.3045,-2.1619,-2.1082,-2.0704,-2.1462,-2.2013,-2.2652,-2.3595,-2.4172,-2.4854,-2.6102,-2.6625,-2.7281,-2.8528,-2.9517,-3.0331,0.0,-3.2293,-3.3274,-3.351,-3.3859,-3.3867,-3.3284,-3.2316,-3.18,-3.21,-3.1562,-3.0835,-2.9991,-2.9924,-2.9583,-2.8804,-2.8349,-2.7824,-2.7182,-2.6742,-2.659,-2.6691,-2.5981,-2.5592,-2.5592,-2.4983,-2.4458,-2.4034,-2.3796,-2.3626,-2.3563,-2.414,-2.4815,-2.5457,-2.5245,-2.5389,-2.5794,-2.5794,-2.5523,-2.505,-2.4321,-2.3848,-2.3579,-2.3579,-2.3738,-2.3935,-2.3935,-2.4261,-2.4636,-2.4449,-2.4519,-2.4676,-2.4678,-2.4451,-2.4348,-2.4848,-2.4844,-2.4698,-2.4821,-2.4623,-2.4413,-2.4484,-2.4017,-2.3646,-2.3846,-2.3863,-2.3809,-2.3711,-2.3986,-2.4151,-2.4006,-2.4103,-2.419,-2.419,-2.4026,-2.366,-2.2984,-2.2768,-2.2571,-2.2324,-2.2296,-2.2296,-2.2296,-2.2296,-2.2296,-2.2296,-2.2296,-2.2296,-2.2296,-2.2296,-2.2296,-2.2296,-2.2296,-2.244,-2.2708,-2.291,-2.3253,-2.1798,-2.1749,0.0,-2.2663,-2.3654,-2.4597,-2.5262,-2.6282,-2.7261,-2.7998,-2.8345,-2.8669,-2.9223,-2.9684,-3.0132,-3.0696,-3.2043,-3.3005,-3.2963,-3.3317,-3.3186,-3.2124,-3.1176,-3.0497,-3.0277,-3.0463,-3.0161,-2.9077,-2.8993,-2.8654,-2.7841,-2.7283,-2.6911,-2.6725,-2.6184,-2.6167,-2.6691,-2.5981,-2.5592,-2.5592,-2.5389,-2.5078,-2.4654,-2.4462,-2.4721,-2.5366,-2.5401,-2.5822,-2.6474,-2.6074,-2.6336,-2.6996,-2.6996,-2.6691,-2.615,-2.5735,-2.5186,-2.4673,-2.4673,-2.4919,-2.524,-2.524,-2.5552,-2.59,-2.5788,-2.5839,-2.5951,-2.6063,-2.5853,-2.572,-2.6182,-2.6106,-2.5915,-2.5873,-2.5631,-2.5386,-2.5297,-2.4946,-2.4658,-2.4656,-2.4566,-2.4403,-2.4201,-2.42,-2.419,-2.419,-2.419,-2.419,-2.419,-2.3907,-2.3488,-2.291,-2.2577,-2.2374,-2.231,-2.2296,-2.2296,-2.2296,-2.2296,-2.2296,-2.2296,-2.2296,-2.2296,-2.2296,-2.2296,-2.2296,-2.2296,-2.2296,-2.244,-2.2708,-2.296,-2.33,-2.2592,-2.3217,-2.3885,-2.4258,-2.5431,-2.6677,-2.736,-2.7891,-2.8479,-2.9369,-2.8887,-2.8377,-2.8595,-2.8652,-2.8652,-2.8678,-3.0314,-3.1558,-3.155,-3.1411,-3.1275,-3.1241,-2.9958,-2.8755,0.0,-2.8602,-2.9044,-2.8993,-2.8993,-2.8654,-2.7841,-2.779,-2.7435,-2.6708,-2.6674,-2.6674,-2.6691,-2.5981,-2.5592,-2.5592,-2.488,-2.4735,-2.509,-2.5416,-2.6375,-2.7724,-2.6647,-2.6591,-2.7238,-2.6823,-2.7114,-2.7773,-2.7773,-2.7756,-2.7775,-2.8148,-2.6924,-2.5076,-2.5076,-2.5304,-2.5585,-2.5585,-2.6109,-2.6677,-2.6219,-2.6389,-2.6659,-2.6231,-2.5853,-2.578,-2.657,-2.677,-2.6933,-2.7649,-2.6959,-2.6365,-2.7063,-2.6088,-2.5383,-2.6429,-2.5683,-2.499,-2.5277,-2.4704,-2.419,-2.419,-2.419,-2.419,-2.419,-2.3907,-2.3566,-2.3212,-2.2885,-2.2573,-2.2307,-2.2296,-2.2296,-2.2296,-2.2296,-2.2296,-2.2296,-2.2296,-2.2296,-2.2296,-2.2296,-2.2296,-2.2296,-2.2296,-2.244,-2.2708,-2.2708,-2.3069,-2.4311,-2.51,-2.6062,-2.78,-2.8424,-2.8861,-2.9953,-3.0312,-3.0129,-2.9135,-2.8351,-2.7461,-2.6245,-2.6342,-2.6883,-2.7776,-2.9221,-3.0521,-3.1313,-3.1379,-3.0944,-2.9886,-2.9297,0.0,0.0,0.0,0.0,-2.8247,-2.8687,-2.8654,-2.7841,-2.7807,-2.7452,-2.6708,-2.6234,-2.6201,-2.6691,-2.5981,-2.5845,-2.6319,-2.6354,-2.6296,-2.6198,-2.7067,-2.7601,-2.7834,-2.7704,-2.7674,-2.7681,-2.7255,-2.7383,-2.7807,-2.7807,-2.8146,-2.8572,-2.8457,-2.8101,-2.7619,-2.7141,-2.7179,-2.7469,-2.7469,-2.7807,-2.824,-2.8074,-2.8136,-2.824,-2.8074,-2.7947,-2.804,-2.8857,-2.9063,-2.9212,-2.975,-2.9593,-2.9312,-2.9291,-2.8488,-2.7777,-2.783,-2.707,-2.6385,-2.6211,-2.554,-2.4824,-2.4281,-2.419,-2.4113,-2.3896,-2.3774,-2.3488,-2.2935,-2.2772,-2.2586,-2.2307,-2.2296,-2.2296,-2.2296,-2.2296,-2.2296,-2.2296,-2.2296,-2.2296,-2.2296,-2.2296,-2.2296,-2.2296,-2.2296,-2.2349,-2.244,-2.2625,-2.2947,-2.5995,-2.728,-2.8513,-2.9893,-3.0435,-3.0791,-3.1376,-3.1137,-3.0335,-2.8601,-2.7335,-2.6012,-2.4303,-2.4096,-2.4573,-2.5661,-2.6878,-2.8205,-2.9745,-3.0046,-2.9922,-2.9445,-2.9162,-2.8604,0.0,0.0,0.0,-2.7858,-2.8552,-2.8755,-2.8264,-2.823,-2.7892,-2.7114,-2.6624,-2.6505,-2.6691,-2.6234,-2.6452,-2.7365,-2.8198,-2.829,-2.7772,-2.8644,-2.8743,-2.8242,-2.851,-2.8499,-2.8279,-2.8014,-2.8186,-2.8636,-2.8782,-2.9142,-2.9607,-2.9681,-2.9688,-2.9519,-2.8449,-2.8303,-2.8657,-2.896,-2.9217,-2.9482,-2.9757,-2.9849,-2.9849,-2.9849,-2.9849,-2.9989,-3.0485,-3.0632,-3.0693,-3.1018,-3.098,-3.0828,-3.0563,-3.0108,-2.9575,-2.894,-2.8292,-2.7675,-2.713,-2.6127,-2.5209,-2.4713,-2.4373,-2.4113,-2.3907,-2.3886,-2.3671,-2.3117,-2.296,-2.2764,-2.2463,-2.2363,-2.2296,-2.2296,-2.2296,-2.2296,-2.2296,-2.2296,-2.2296,-2.2296,-2.2296,-2.2296,-2.2296,-2.2296,-2.2296,-2.231,-2.249,-2.2712,-2.7701,-2.972,-3.1255,-3.0691,-3.1544,-3.2318,-3.1705,-3.0522,-2.9146,-2.7754,-2.5875,-2.4111,0.0,0.0,-2.1894,-2.2624,-2.3596,-2.5016,-2.7203,-2.7741,-2.8481,0.0,0.0,0.0,0.0,0.0,0.0,-2.8094,0.0,-2.9094,-2.9061,-2.9094,-2.8704,-2.7824,-2.7807,-2.7435,-2.6725,-2.6759,-2.7365,-2.8511,-3.013,-3.0468,-2.9674,-3.0081,-2.9824,-2.9062,-2.9078,-2.9066,-2.9024,-2.9042,-2.947,-3.0187,-3.0558,-3.0751,-3.0889,-3.1696,-3.156,-3.0721,-2.9114,-2.8809,-2.9244,-3.0008,-3.0265,-3.0393,-3.1176,-3.1397,-3.1397,-3.1397,-3.1397,-3.1415,-3.1452,-3.147,-3.147,-3.1507,-3.1281,-3.1052,-3.1052,-3.1034,-3.0731,-2.9917,-2.9368,-2.8803,-2.7989,-2.6568,-2.5503,-2.5466,-2.4787,-2.4245,-2.4208,-2.419,-2.4074,-2.3703,-2.3392,-2.3057,-2.2708,-2.2453,-2.2296,-2.2296,-2.2296,-2.2296,-2.2296,-2.2296,-2.2296,-2.2296,-2.2296,-2.2296,-2.2296,-2.2296,-2.2296,-2.2296,-2.2296,-2.2436,-3.0754,-3.2433,-3.3789,-3.4087,-3.3331,-3.2467,-3.2273,-3.0492,-2.8219,-2.5898,-2.4251,-2.2631,0.0,0.0,0.0,-2.2977,-2.4315,0.0,-2.84,-2.9279,0.0,-3.083,0.0,-3.0632,-3.0632,-3.1142,0.0,0.0,-3.0818,-3.0395,-2.9854,-3.0345,-2.977,-2.7858,-2.7807,-2.7435,-2.6725,-2.7585,-2.8192,-2.8511,-3.013,-3.0776,-3.0572,-3.0934,-3.065,-2.9898,-3.0216,-3.0004,-2.9438,-2.939,-3.004,-3.1039,-3.0803,-3.1236,-3.2047,-3.2017,-3.187,-3.162,-3.0894,-3.0699,-3.0815,-3.1017,-3.1091,-3.114,-3.1342,-3.1397,-3.1397,-3.1397,-3.1397,-3.1544,-3.2137,-3.2302,-3.2449,-3.3054,-3.3116,-3.3063,-3.3063,-3.2592,-3.2099,-3.1879,-3.0772,-2.9629,-2.8822,-2.786,-2.699,-2.6374,-2.5613,-2.4879,-2.4281,-2.419,-2.3986,-2.3392,-2.3247,-2.2977,-2.2453,-2.2335,-2.2296,-2.2296,-2.2296,-2.2296,-2.2296,-2.2296,-2.2296,-2.2296,-2.2296,-2.2296,-2.2296,-2.2296,-2.2296,-2.2296,-2.2296,-2.2436,-3.2912,-3.4398,-3.5312,-3.4401,-3.3336,-3.2183,-3.1061,-2.8981,-2.6624,-2.4299,-2.2755,-2.1386,-1.9957,-1.9768,0.0,0.0,0.0,0.0,-2.7435,-2.8929,-3.0297,0.0,-3.2329,0.0,-3.281,-3.3192,-3.359,0.0,-3.3046,-3.2093,-3.1125,-3.1681,-3.1035,-2.889,-2.8804,-2.8467,-2.7723,-2.9086,-2.9776,-2.9793,-3.1398,-3.2001,-3.1642,-3.184,-3.1494,-3.0736,0.0,-3.0767,-3.0344,-3.0467,-3.0924,-3.1581,-3.1747,-3.2207,-3.282,-3.2781,-3.2778,-3.2766,-3.253,-3.2462,-3.2394,-3.2045,-3.1998,-3.2151,-3.239,-3.2545,-3.2594,-3.25,-3.2462,-3.2632,-3.3445,-3.339,-3.333,-3.4142,-3.4064,-3.3807,-3.3807,-3.3458,-3.3023,-3.2674,-3.1311,-3.0063,-2.9592,-2.8424,-2.7447,-2.716,-2.5983,-2.5046,-2.4767,-2.4293,-2.3896,-2.3671,-2.3236,-2.2903,-2.2712,-2.2457,-2.2296,-2.2296,-2.2296,-2.2296,-2.2296,-2.2296,-2.2209,-2.2003,-2.2194,-2.2194,-2.2003,-2.2194,-2.2296,-2.2296,-2.2296,-2.2436,-3.4227,-3.5613,-3.6064,-3.3411,-3.2572,-3.1719,-2.9175,-2.6867,-2.4738,-2.2936,-2.1446,-2.0318,-1.9794,-1.9264,-1.9305,-2.0488,0.0,-2.2769,-2.6038,-2.807,-3.02,-3.2824,-3.3807,-3.4504,-3.5048,-3.5155,-3.5474,-3.6112,-3.5249,-3.4112,-3.2757,-3.3057,-3.2264,-3.0178,-3.0023,-2.9651,-2.901,-3.0589,-3.145,-3.1572,-3.3073,-3.3495,-3.2913,-3.2803,-3.232,-3.1561,0.0,0.0,-3.1639,-3.1812,-3.2021,-3.2301,-3.2939,-3.3301,-3.3462,-3.3716,-3.3862,-3.3935,-3.3844,-3.3807,-3.3678,-3.2986,-3.2914,-3.3201,-3.3694,-3.3999,-3.4136,-3.4044,-3.3994,-3.4156,-3.4968,-3.4564,-3.4137,-3.4839,-3.438,-3.3807,-3.3807,-3.3807,-3.3587,-3.2894,-3.1445,-3.0356,-3.0356,-2.8737,-2.7568,-2.7919,-2.6338,-2.5217,-2.5458,-2.4473,-2.3865,-2.4103,-2.3305,-2.2873,-2.3117,-2.2607,-2.2296,-2.2296,-2.2296,-2.2296,-2.2296,-2.2296,-2.2106,-2.1703,-2.2092,-2.2106,-2.1688,-2.2106,-2.2296,-2.2296,-2.2296,-2.2426,-3.4439,-3.5568,-3.6213,-3.4557,-3.2901,-3.1137,-2.9071,-2.5893,0.0,-2.2082,-2.046,-1.9301,-1.965,-1.9873,-2.0598,-2.2407,-2.3615,-2.5293,-2.8087,-2.9606,-3.1141,0.0,-3.4159,-3.5095,-3.604,0.0,0.0,0.0,0.0,-3.6522,-3.4886,-3.4302,-3.2796,-3.0194,-2.9499,-2.9128,-2.8993,-3.0589,-3.1732,-3.2404,-3.3346,-3.4082,-3.4564,-3.3885,-3.3146,-3.2423,-3.2727,0.0,-3.3322,-3.2642,-3.32,-3.436,-3.3526,-3.3807,-3.4627,-3.4018,-3.4215,-3.4692,-3.4027,-3.3807,-3.377,-3.3642,-3.3626,-3.3718,-3.4043,-3.4006,-3.4063,-3.4946,-3.5008,-3.4986,-3.5862,-3.544,-3.4839,-3.4968,-3.438,-3.3807,-3.3807,-3.3807,-3.3752,-3.3623,-3.2284,-3.1195,-3.1195,-2.9795,-2.8709,-2.8773,-2.764,-2.6592,-2.6052,-2.4897,-2.4026,-2.3806,-2.338,-2.3021,-2.281,-2.249,-2.2296,-2.2296,-2.2296,-2.2296,-2.2296,-2.2296,-2.2268,-2.218,-2.2268,-2.2268,-2.218,-2.2268,-2.2296,-2.2296,-2.2296,-2.2321,-3.4867,-3.5577,-3.566,-3.3894,-3.1973,-2.9819,-2.7141,0.0,0.0,-2.0878,-1.9938,-1.9387,-1.9639,-2.0035,0.0,-2.187,-2.272,-2.4165,-2.6843,-2.8356,0.0,-3.325,-3.469,-3.6007,0.0,0.0,0.0,0.0,0.0,-3.7269,-3.487,-3.3397,-3.2126,-3.1011,-3.0819,-3.0719,-3.0719,-3.2336,-3.3136,-3.3118,-3.4007,-3.4619,-3.4968,-3.4174,-3.4064,-3.4495,-3.4032,0.0,-3.4702,-3.4283,-3.4596,-3.5223,-3.4437,-3.4771,-3.5532,-3.4266,-3.4307,-3.4876,-3.4082,-3.3807,-3.3807,-3.3807,-3.3889,-3.4012,-3.3999,-3.4012,-3.4098,-3.4511,-3.4792,-3.5096,-3.55,-3.5316,-3.5004,-3.5004,-3.438,-3.3807,-3.3807,-3.3807,-3.3807,-3.3807,-3.2485,-3.1397,-3.1397,-2.9893,-2.8682,-2.8682,-2.7689,-2.6813,-2.6451,-2.5159,-2.41,-2.3747,-2.3403,-2.3129,-2.2972,-2.2678,-2.245,-2.231,-2.2296,-2.2296,-2.2296,-2.2296,-2.2194,-2.1943,-2.218,-2.218,-2.1928,-2.218,-2.2296,-2.2296,-2.2296,-2.247,-3.4449,-3.4937,-3.4696,-3.2765,-3.0717,-2.8353,-2.5292,-2.2912,-2.1024,-1.9929,-1.9603,-1.9566,-1.969,-2.0122,-2.0614,0.0,-2.1658,-2.2881,-2.5476,-2.7147,-2.9471,0.0,-3.5082,0.0,0.0,0.0,0.0,0.0,0.0,0.0,-3.488,-3.3053,-3.2156,-3.2309,-3.2298,-3.2354,-3.2437,-3.3858,-3.4375,-3.4035,-3.4872,-3.5371,-3.55,-3.4706,-3.5055,-3.6233,-3.5245,0.0,0.0,-3.5812,-3.5849,-3.5952,-3.5473,-3.5807,-3.6376,-3.4871,-3.4853,-3.5389,-3.4412,-3.4064,-3.4027,-3.3862,-3.3935,-3.4093,-3.3923,-3.3999,-3.4111,-3.4144,-3.4577,-3.5078,-3.5445,-3.5408,-3.5224,-3.5041,-3.438,-3.3807,-3.3807,-3.3807,-3.3807,-3.3807,-3.2632,-3.1599,-3.1433,-2.9946,-2.8696,-2.8438,-2.7571,-2.6872,-2.6613,-2.5336,-2.4259,-2.3794,-2.3342,-2.3153,-2.3282,-2.289,-2.2577,-2.2494,-2.2377,-2.2338,-2.2388,-2.2321,-2.212,-2.1764,-2.2106,-2.212,-2.1749,-2.212,-2.2296,-2.2296,-2.2296,-2.2584,-3.1981,-3.2781,-3.3351,-3.1943,-2.9669,-2.7225,-2.5083,0.0,-2.0002,-1.9752,-1.9314,-1.9132,-1.9603,-2.0379,-2.1166,-2.1889,0.0,-2.4022,-2.6285,-2.8033,-3.009,-3.2841,0.0,0.0,0.0,0.0,0.0,0.0,0.0,0.0,-3.6582,-3.5534,-3.4629,-3.3994,-3.2901,-3.2497,-3.2928,-3.3512,-3.4348,-3.5405,-3.5948,-3.656,-3.7235,-3.6446,-3.6156,-3.6285,-3.6182,0.0,0.0,-3.6534,-3.6663,-3.7246,-3.6486,-3.667,-3.729,-3.6395,-3.6593,-3.7052,-3.5445,-3.4894,-3.4766,-3.4045,-3.3815,-3.3876,-3.4105,-3.4006,-3.4042,-3.5064,-3.5169,-3.5353,-3.6886,-3.6725,-3.5973,-3.5188,-3.438,-3.3807,-3.3807,-3.3807,-3.3807,-3.3807,-3.3091,-3.2265,-3.1525,-3.0644,-2.9661,-2.8567,-2.8044,-2.7416,-2.6367,-2.5478,-2.4663,-2.3958,-2.3211,-2.2996,-2.3599,-2.2837,-2.2558,-2.3087,-2.2611,-2.2398,-2.266,-2.244,-2.2282,-2.2237,-2.2282,-2.2282,-2.2237,-2.2282,-2.2296,-2.2296,-2.2296,-2.245,-3.1255,-3.2427,-3.307,-3.1311,-2.8921,-2.6452,-2.4462,0.0,-1.9749,-1.9717,-1.953,-1.9442,-1.9657,-2.0398,-2.1103,-2.1391,0.0,0.0,-2.4458,-2.587,-2.8079,-3.1764,-3.3944,0.0,0.0,0.0,0.0,0.0,0.0,0.0,-3.7059,-3.5791,-3.4901,-3.4566,-3.4268,-3.4212,-3.4391,-3.5324,-3.5971,-3.6269,-3.6784,-3.7199,-3.7474,-3.6684,-3.6835,-3.7716,-3.7221,0.0,0.0,-3.7881,-3.7936,-3.8138,-3.7345,-3.7496,-3.8065,-3.678,-3.6813,-3.7254,-3.5573,-3.5334,-3.5642,-3.4802,-3.489,-3.5138,-3.4236,-3.3876,-3.3889,-3.4347,-3.511,-3.5826,-3.5973,-3.6156,-3.6083,-3.5206,-3.4766,-3.438,-3.3899,-3.3807,-3.3807,-3.3807,-3.3146,-3.2491,-3.2173,-3.1054,-2.9892,-2.8963,-2.8294,-2.7645,-2.6948,-2.6194,-2.576,-2.5874,-2.4343,-2.3335,-2.3392,-2.3248,-2.3153,-2.3189,-2.2794,-2.2586,-2.2695,-2.2436,-2.2296,-2.2296,-2.2296,-2.2296,-2.2296,-2.2296,-2.2296,-2.2296,-2.2296,-2.2558,-3.0045,-3.1289,-3.1886,-3.03,-2.7951,-2.554,-2.3729,0.0,-1.9708,-1.9708,-1.9708,-1.9744,-1.9856,-2.0482,-2.1039,-2.115,0.0,-2.1969,-2.3224,-2.4589,-2.6761,0.0,0.0,0.0,0.0,0.0,0.0,0.0,0.0,0.0,0.0,-3.6328,-3.5563,-3.5509,-3.5511,-3.5572,-3.5706,-3.6609,-3.7022,-3.6937,-3.7561,-3.786,-3.7841,-3.7257,-3.7624,-3.867,0.0,0.0,0.0,-3.8707,-3.8707,-3.8652,-3.8065,-3.8193,-3.856,-3.7422,-3.7367,-3.7658,-3.6229,-3.6138,-3.6505,-3.5665,-3.5807,-3.6083,-3.4908,-3.4541,-3.4541,-3.4541,-3.5385,-3.6211,-3.583,-3.5844,-3.5899,-3.5771,-3.5169,-3.4564,-3.4215,-3.3972,-3.3807,-3.3807,-3.3348,-3.2876,-3.2638,-3.1647,-3.0493,-2.9276,-2.8631,-2.8029,-2.7382,-2.666,-2.6422,-2.7015,-2.5487,-2.4255,-2.388,-2.367,-2.3533,-2.3511,-2.3093,-2.2898,-2.2996,-2.2721,-2.2575,-2.2575,-2.248,-2.2426,-2.2412,-2.2335,-2.2296,-2.2296,-2.2296,-2.2624,-2.7902,-2.874,-2.9206,-2.8664,-2.655,-2.4291,-2.3002,-2.1145,-1.9708,-1.9708,-1.9708,-1.9836,-2.0212,-2.0682,-2.1134,-2.1521,-2.1972,0.0,-2.3291,-2.5065,0.0,0.0,0.0,0.0,0.0,0.0,0.0,0.0,0.0,0.0,0.0,-3.772,-3.7174,-3.7174,-3.6412,-3.6221,-3.6689,-3.6755,-3.7037,-3.7511,-3.8303,-3.8689,-3.8689,-3.8689,-3.8689,0.0,0.0,0.0,0.0,-3.8707,-3.8707,-3.8707,-3.8689,-3.8689,-3.8707,-3.8689,-3.8689,-3.8579,-3.7768,-3.7474,-3.7345,-3.6556,-3.6285,-3.6303,-3.6266,-3.6266,-3.6266,-3.6266,-3.6285,-3.6468,-3.7272,-3.6248,-3.5426,-3.7088,-3.5601,-3.4027,-3.4821,-3.4362,-3.3807,-3.3807,-3.3788,-3.3532,-3.2729,-3.2583,-3.1768,-2.9436,-2.9089,-2.8659,-2.7452,-2.666,-2.6353,-2.6764,-2.6367,-2.588,-2.5417,-2.4048,-2.3488,-2.4151,-2.3566,-2.3346,-2.3682,-2.3369,-2.3189,-2.3189,-2.2873,-2.2695,-2.2695,-2.244,-2.2296,-2.2296,-2.2296,-2.2624,-2.6305,-2.7384,-2.8024,-2.6663,-2.4992,-2.3422,-2.2284,-2.0831,-1.9708,-1.9708,-1.9708,-1.9836,-2.0229,-2.0682,-2.1134,-2.1521,-2.2003,0.0,0.0,0.0,0.0,0.0,0.0,0.0,0.0,0.0,0.0,0.0,0.0,0.0,0.0,-3.7488,-3.7524,-3.7209,-3.6944,-3.6894,-3.704,-3.7378,-3.7802,-3.8322,-3.8579,-3.8707,-3.8707,-3.8707,0.0,0.0,0.0,0.0,0.0,-3.8707,-3.8707,-3.8707,-3.8707,-3.8707,-3.8707,-3.8707,-3.8707,-3.8579,-3.7786,-3.786,-3.8193,-3.7382,-3.7477,-3.7936,-3.7936,-3.7165,-3.6303,-3.6303,-3.6303,-3.6486,-3.729,-3.7107,-3.6688,-3.667,-3.6083,-3.5257,-3.4376,-3.3972,-3.3807,-3.3807,-3.3807,-3.3715,-3.3458,-3.273,-3.1845,-3.0833,-2.9751,-2.8897,-2.8516,-2.8028,-2.7847,-2.8263,-2.7679,-2.6899,-2.5968,-2.5659,-2.5608,-2.5831,-2.4918,-2.4415,-2.4522,-2.3666,-2.32,-2.32,-2.2873,-2.2708,-2.2708,-2.244,-2.2702,-2.347,-2.3646,-2.4249,-2.4977,-2.5957,-2.6447,-2.5393,-2.4014,-2.2682,-2.1774,-2.0602,-1.9708,-1.9708,-1.9708,-1.9889,-2.0449,-2.0813,-2.1197,-2.1764,-2.2106,-2.2505,0.0,0.0,0.0,0.0,0.0,0.0,0.0,0.0,0.0,0.0,0.0,0.0,0.0,-3.7193,-3.736,-3.747,-3.7667,-3.7773,-3.7773,-3.8066,-3.8366,-3.8707,-3.8707,-3.8707,-3.8707,-3.8707,0.0,0.0,0.0,0.0,0.0,-3.8707,-3.8707,-3.8707,-3.8707,-3.8707,-3.8707,-3.8707,-3.8707,-3.8634,-3.812,-3.8285,-3.8615,-3.812,-3.8285,-3.8707,-3.8707,-3.779,-3.6758,-3.6758,-3.6523,-3.6486,-3.729,-3.7272,-3.707,-3.7184,-3.6486,-3.5605,-3.4908,-3.4247,-3.3807,-3.3807,-3.3807,-3.3807,-3.3807,-3.3177,-3.2455,-3.1777,-3.0808,-2.994,-2.9319,-2.9282,-2.9254,-2.9025,-2.8815,-2.8288,-2.7275,-2.6827,-2.6602,-2.6602,-2.594,-2.5405,-2.5096,-2.4407,-2.3894,-2.3577,-2.3129,-2.3025,-2.3309,-2.3178,-2.3488,-2.4204,-2.4625,-2.5203,0.0,-2.4413,-2.454,-2.4575,-2.3389,-2.2065,-2.1381,-2.0459,0.0,-1.9708,-1.9708,-1.9962,-2.0829,-2.0991,-2.1291,-2.2166,-2.233,0.0,0.0,0.0,0.0,0.0,0.0,0.0,0.0,0.0,0.0,0.0,0.0,0.0,0.0,-3.6944,-3.6923,-3.7929,-3.8399,-3.8643,-3.8643,-3.8692,-3.8707,-3.8707,-3.8707,-3.8707,-3.8707,-3.8707,0.0,0.0,0.0,0.0,0.0,-3.8707,-3.8707,-3.8707,-3.8707,-3.8707,-3.8707,-3.8707,-3.8707,-3.8707,-3.8707,-3.8707,-3.8707,-3.8707,-3.8707,-3.8707,-3.8707,-3.8138,-3.7492,-3.7492,-3.6923,-3.6486,-3.729,-3.6905,-3.667,-3.8175,-3.671,-3.5206,-3.5954,-3.4908,-3.3807,-3.3807,-3.3807,-3.3807,-3.3807,-3.378,-3.3396,-3.2343,-3.2123,-3.1526,-2.9981,-3.0405,-3.0399,-2.9208,-2.9702,-2.9812,-2.906,-2.7629,-2.6767,-2.6767,-2.6712,-2.6355,-2.5595,-2.5448,-2.5081,-2.4373,-2.3705,-2.3683,-2.4307,-2.4474,-2.4569,-2.4681,-2.5316,-2.5666,-2.2071,0.0,-2.2789,-2.2433,-2.205,-2.1537,0.0,-2.0352,-2.0072,0.0,0.0,0.0,0.0,-2.0991,-2.1291,-2.2166,-2.2784,-2.3468,0.0,0.0,0.0,0.0,0.0,0.0,0.0,0.0,0.0,0.0,0.0,0.0,0.0,-3.7135,-3.7469,-3.8481,-3.8251,-3.8082,-3.8082,-3.8496,-3.8707,-3.8707,-3.8707,-3.8707,-3.8707,-3.8707,0.0,0.0,0.0,0.0,-3.8707,-3.8707,-3.8707,-3.8707,-3.8707,-3.8707,-3.8707,-3.8707,-3.8707,-3.8707,-3.8707,-3.8707,-3.8707,-3.8707,-3.8707,-3.8707,-3.8707,-3.8138,-3.7492,-3.7492,-3.6923,-3.6486,-3.729,-3.6905,-3.6395,-3.6762,-3.5903,-3.4894,-3.4486,-3.4082,-3.3807,-3.3807,-3.3807,-3.3807,-3.3807,-3.3536,-3.3263,-3.2976,-3.2423,-3.1885,-3.1488,-3.0797,-3.0253,-2.9959,-2.9537,-2.9207,-2.9023,-2.8656,-2.8436,-2.8436,-2.786,-2.742,-2.7247,-2.6054,-2.5595,-2.6025,-2.5327,-2.4791,-2.4457,-2.479,-2.5417,-2.6276,-2.6678,-2.7344,-2.1536,-2.1794,-2.1957,-2.1928,-2.1764,-2.1476,-2.0991,-2.0584,-2.0229,0.0,0.0,0.0,0.0,0.0,0.0,0.0,-2.3139,0.0,0.0,0.0,0.0,0.0,0.0,0.0,0.0,0.0,0.0,0.0,0.0,0.0,0.0,-3.7209,-3.7649,-3.8676,-3.8415,-3.8267,-3.8267,-3.8546,-3.8707,-3.8707,-3.8707,-3.8707,-3.8707,-3.8707,-3.8707,0.0,0.0,0.0,-3.8707,-3.8707,-3.8707,-3.8707,-3.8707,-3.8707,-3.8707,-3.8707,-3.8707,-3.8707,-3.8707,-3.8707,-3.8707,-3.8707,-3.8707,-3.8707,-3.8707,-3.8138,-3.7492,-3.7492,-3.7199,-3.6868,-3.6942,-3.6905,-3.6758,-3.6376,-3.5628,-3.4876,-3.4435,-3.4064,-3.3807,-3.3807,-3.3807,-3.3807,-3.3807,-3.3606,-3.348,-3.348,-3.3098,-3.2683,-3.232,-3.1715,-3.1005,-3.0283,-2.9812,-2.939,-2.9023,-2.9005,-2.9005,-2.9005,-2.8583,-2.8191,-2.7824,-2.6953,-2.6449,-2.6373,-2.6297,-2.6043,-2.5571,-2.6117,-2.6701,-2.7305,-2.7643,-2.7936,-2.1582,-2.1597,-2.1703,-2.218,-2.2003,-2.1673,-2.1553,-2.0943,0.0,0.0,0.0,0.0,0.0,-2.1039,0.0,0.0,0.0,0.0,0.0,0.0,0.0,0.0,0.0,0.0,0.0,0.0,0.0,0.0,0.0,0.0,0.0,-3.7116,-3.7578,-3.8676,-3.8627,-3.8572,-3.8524,-3.8634,-3.8707,-3.8707,-3.8707,-3.8634,-3.8524,-3.8524,-3.8524,0.0,0.0,0.0,-3.8707,-3.8707,-3.8643,-3.8578,-3.8578,-3.8578,-3.8578,-3.8578,-3.8627,-3.8707,-3.8707,-3.8707,-3.8707,-3.8707,-3.8707,-3.8707,-3.8707,-3.8212,-3.7676,-3.7676,-3.7511,-3.7217,-3.678,-3.689,-3.6978,-3.6431,-3.5536,-3.4821,-3.4821,-3.427,-3.3807,-3.3807,-3.3807,-3.3807,-3.3807,-3.3807,-3.3807,-3.3807,-3.3807,-3.355,-3.2858,-3.2674,-3.2032,-3.054,-3.0265,-2.9879,-2.9078,-2.9005,-2.9005,-2.9005,-2.9005,-2.8638,-2.7835,-2.7915,-2.7444,-2.629,-2.6995,-2.7246,-2.6969,-2.7648,-2.7982,-2.7978,-2.8329,-2.805,-2.1506,-2.1597,-2.1703,-2.218,-2.2254,-2.2005,-2.126,-2.0991,-2.0682,0.0,0.0,0.0,0.0,-2.1275,-2.1919,0.0,0.0,0.0,0.0,0.0,0.0,0.0,0.0,0.0,0.0,0.0,0.0,0.0,0.0,0.0,0.0,-3.6764,-3.7192,-3.8643,-3.8267,-3.7905,-3.7694,-3.8358,-3.8707,-3.8707,-3.8707,-3.834,-3.7676,-3.7676,-3.7676,0.0,0.0,-3.8065,-3.8707,-3.8707,-3.8433,-3.8013,-3.8013,-3.8013,-3.8013,-3.8013,-3.83,-3.8707,-3.8707,-3.8707,-3.8707,-3.8707,-3.8707,-3.8707,-3.8707,-3.8615,-3.8524,-3.8524,-3.7533,-3.6762,-3.801,-3.6872,-3.5536,-3.6156,-3.511,-3.399,-3.399,-3.3899,-3.3807,-3.3807,-3.3807,-3.3807,-3.3807,-3.3807,-3.3807,-3.3807,-3.3807,-3.3752,-3.3623,-3.3023,-3.2234,-3.1311,-3.0613,-2.9879,-2.9078,-2.9005,-2.9005,-2.9005,-2.9005,-2.8638,-2.7835,-2.8448,-2.8243,-2.7049,-2.7812,-2.8058,-2.7734,-2.813,-2.8311,-2.8324,-2.8725,-2.8478,-2.193,-2.1988,-2.2032,-2.2254,-2.2296,-2.2194,-2.1781,-2.1338,-2.0894,0.0,0.0,0.0,0.0,0.0,0.0,0.0,0.0,0.0,0.0,0.0,0.0,0.0,0.0,0.0,0.0,0.0,0.0,0.0,0.0,0.0,0.0,0.0,-3.6556,-3.8013,-3.7807,-3.7624,-3.7511,-3.7878,-3.8046,-3.8046,-3.7606,-3.7441,-3.7492,-3.7052,-3.7088,-3.7492,0.0,-3.797,-3.8692,-3.8382,-3.83,-3.83,-3.8013,-3.8082,-3.8316,-3.8316,-3.8481,-3.8707,-3.8707,-3.8707,-3.8707,-3.8707,-3.8707,-3.8707,-3.8707,-3.8707,-3.8707,-3.8707,-3.8175,-3.7569,-3.7441,-3.656,-3.5587,-3.5073,-3.4357,-3.3807,-3.3807,-3.3807,-3.3807,-3.3807,-3.3807,-3.3935,-3.4362,-3.4454,-3.4454,-3.4454,-3.4454,-3.4302,-3.3862,-3.3096,-3.2454,-3.21,-3.1329,-3.0522,-2.9721,-2.9647,-2.9464,-2.9023,-2.9005,-2.8822,-2.8455,-2.8803,-2.8935,-2.8822,-2.8755,-2.8863,-2.914,-2.8863,-2.8719,-2.8737,-2.8917,-2.8565,-2.2296,-2.2296,-2.2296,-2.2296,-2.2296,-2.2367,-2.2635,-2.2172,-2.1714,0.0,0.0,0.0,0.0,0.0,0.0,0.0,0.0,0.0,0.0,0.0,0.0,0.0,0.0,0.0,0.0,0.0,0.0,0.0,0.0,0.0,0.0,0.0,-3.603,-3.7184,-3.7217,-3.7125,-3.6923,-3.6923,-3.7015,-3.7217,-3.6578,-3.6615,-3.7199,-3.6593,-3.6725,-3.7492,-3.7309,-3.7771,-3.8658,-3.8049,-3.8085,-3.8465,-3.8065,-3.815,-3.853,-3.8643,-3.8707,-3.8707,-3.8707,-3.8707,-3.8707,-3.8707,-3.8707,-3.8707,-3.8707,-3.8579,-3.8414,-3.8414,-3.8414,-3.8138,-3.689,-3.6138,-3.544,-3.4339,-3.3935,-3.3807,-3.3807,-3.3807,-3.3807,-3.3807,-3.3807,-3.4064,-3.4857,-3.4839,-3.4784,-3.4968,-3.4839,-3.4491,-3.388,-3.3256,-3.2803,-3.2619,-3.2045,-3.1274,-3.0283,-3.021,-2.9953,-2.9317,-2.928,-2.9207,-2.9005,-2.9189,-2.9574,-3.0191,-2.9409,-2.939,-3.021,-2.939,-2.9005,-2.9005,-2.9005,-2.8565,-2.2296,-2.2296,-2.2296,-2.2296,-2.2296,-2.2565,-2.3568,-2.3737,-2.3813,-2.4163,0.0,0.0,0.0,0.0,0.0,0.0,0.0,0.0,0.0,0.0,0.0,0.0,0.0,0.0,0.0,0.0,0.0,0.0,0.0,0.0,0.0,0.0,0.0,-3.6376,-3.6376,-3.6009,-3.5188,-3.5188,-3.5591,-3.6376,-3.6321,-3.6321,-3.6376,-3.6321,-3.6725,-3.7456,-3.6707,-3.7276,-3.8652,-3.7851,-3.7708,-3.7963,-3.7929,-3.7911,-3.8013,-3.853,-3.8707,-3.8707,-3.8707,-3.8707,-3.8707,-3.8707,-3.8707,-3.8707,-3.8707,-3.8175,-3.7584,-3.7584,-3.7584,-3.7566,-3.7437,-3.5711,-3.4137,-3.4766,-3.4344,-3.3807,-3.3807,-3.3807,-3.3807,-3.3807,-3.3807,-3.4064,-3.4857,-3.438,-3.4137,-3.4894,-3.4362,-3.3862,-3.3807,-3.3752,-3.344,-3.2674,-3.2546,-3.1885,-3.0338,-3.021,-3.0173,-3.0118,-3.0118,-2.9776,-2.9023,-2.9721,-3.0136,-3.021,-2.9409,-2.939,-3.021,-2.939,-2.9005,-2.9005,-2.9005,-2.8565,-2.2296,-2.2296,-2.2296,-2.2296,-2.2296,-2.2656,-2.3968,-2.443,-2.4494,-2.4193,-2.5322,0.0,0.0,0.0,0.0,0.0,0.0,0.0,0.0,0.0,0.0,0.0,0.0,0.0,0.0,0.0,0.0,0.0,0.0,0.0,0.0,0.0,0.0,-3.5463,-3.5481,-3.5334,-3.5004,-3.5004,-3.4912,-3.4743,-3.4743,-3.5018,-3.5481,-3.5481,-3.5954,-3.6725,-3.6431,-3.7202,-3.8603,-3.7476,-3.754,-3.8399,-3.8399,-3.8399,-3.8415,-3.8627,-3.8707,-3.8707,-3.8707,-3.8707,-3.8707,-3.8707,-3.8707,-3.8707,-3.8707,-3.8487,-3.8138,-3.7639,-3.7144,-3.6615,-3.6101,-3.5661,-3.5165,-3.4431,-3.4027,-3.3807,-3.3807,-3.3807,-3.3807,-3.3807,-3.3807,-3.4229,-3.5587,-3.5114,-3.5004,-3.6358,-3.5422,-3.4546,-3.4546,-3.4119,-3.3678,-3.3385,-3.2894,-3.2344,-3.1739,-3.1237,-3.0723,-3.0228,-3.0668,-3.0595,-2.9776,-3.0044,-3.0448,-3.0944,-2.9647,-2.9629,-3.0944,-2.9629,-2.9262,-2.9721,-2.9225,-2.9115,-2.2296,-2.236,-2.2415,-2.2307,-2.255,-2.3232,-2.4843,-2.5547,-2.5961,-2.6216,-2.6924,-2.7537,-2.7737,0.0,0.0,0.0,0.0,0.0,0.0,0.0,0.0,0.0,0.0,0.0,0.0,0.0,0.0,0.0,0.0,0.0,0.0,0.0,0.0,0.0,-3.4619,-3.4619,-3.4619,-3.4619,-3.4344,-3.3807,-3.3807,-3.4215,-3.5004,-3.5004,-3.5481,-3.6285,-3.6009,-3.667,-3.7851,-3.6664,-3.702,-3.834,-3.8597,-3.8707,-3.8707,-3.8707,-3.8707,-3.8707,-3.8707,-3.8707,-3.867,-3.8395,-3.8322,-3.8267,-3.8028,-3.7936,-3.7826,-3.729,-3.6721,-3.6156,-3.5555,-3.5459,-3.522,-3.4064,-3.3807,-3.3807,-3.3807,-3.3807,-3.3807,-3.3807,-3.3807,-3.4321,-3.6009,-3.5367,-3.5188,-3.6868,-3.5697,-3.4619,-3.4619,-3.4137,-3.3807,-3.3807,-3.3091,-3.2601,-3.2601,-3.21,-3.1531,-3.0986,-3.1715,-3.1568,-3.0246,-3.0687,-3.1219,-3.177,-3.0448,-3.043,-3.177,-3.043,-3.0044,-3.0577,-3.0008,-2.9922,-2.2296,-2.2487,-2.2634,0.0,0.0,0.0,-2.6282,-2.7283,-2.8473,-3.0903,-2.9634,-2.8519,-2.9859,0.0,0.0,0.0,0.0,0.0,0.0,0.0,0.0,0.0,0.0,0.0,0.0,0.0,0.0,0.0,0.0,0.0,0.0,0.0,0.0,0.0,-3.3788,-3.3788,-3.3807,-3.3788,-3.3788,-3.3807,-3.3807,-3.4229,-3.5004,-3.5004,-3.5463,-3.6229,-3.5371,-3.5481,-3.6229,-3.5371,-3.6009,-3.7584,-3.8377,-3.8689,-3.8707,-3.8707,-3.8707,-3.8707,-3.8707,-3.8707,-3.8579,-3.7768,-3.7492,-3.7345,-3.6541,-3.6303,-3.6303,-3.6303,-3.6285,-3.6285,-3.6285,-3.5055,-3.3807,-3.3807,-3.3807,-3.3807,-3.3807,-3.3807,-3.3807,-3.3807,-3.3807,-3.4339,-3.6009,-3.4908,-3.4376,-3.6064,-3.4871,-3.3807,-3.3807,-3.3807,-3.3807,-3.3807,-3.3091,-3.2601,-3.2601,-3.2601,-3.2601,-3.2601,-3.3366,-3.2724,-3.032,-3.1739,-3.2601,-3.2601,-3.1806,-3.1788,-3.2601,-3.1788,-3.1397,-3.1415,-3.1397,-3.0962,-2.2296,-2.2487,0.0,-2.336,0.0,0.0,0.0,-2.7453,0.0,0.0,-2.9911,-2.9179,-3.0613,0.0,0.0,0.0,0.0,0.0,0.0,0.0,0.0,0.0,0.0,0.0,0.0,0.0,0.0,0.0,0.0,0.0,0.0,0.0,0.0,0.0,-3.3256,-3.3238,-3.3788,-3.3238,-3.3238,-3.3807,-3.3807,-3.3917,-3.4192,-3.4747,-3.5151,-3.5371,-3.5114,-3.5481,-3.6266,-3.6028,-3.6541,-3.7529,-3.7768,-3.8193,-3.8707,-3.8707,-3.8707,-3.8707,-3.8707,-3.8707,-3.8579,-3.7768,-3.7492,-3.7345,-3.6541,-3.6303,-3.6303,-3.6303,-3.5862,-3.5389,-3.5389,-3.5023,-3.4637,-3.4637,-3.4211,-3.3807,-3.3807,-3.3807,-3.3972,-3.4527,-3.4637,-3.5169,-3.6868,-3.5752,-3.5206,-3.6905,-3.5238,-3.3807,-3.3807,-3.3807,-3.3807,-3.3807,-3.3587,-3.344,-3.344,-3.344,-3.3201,-3.2638,-3.3366,-3.3238,-3.194,-3.2344,-3.2601,-3.2601,-3.1806,-3.1788,-3.2601,-3.1788,-3.1678,-3.2228,-3.1659,-3.1268,-2.2463,-2.3007,0.0,-2.4453,-2.5376,-2.6472,-2.7839,0.0,0.0,0.0,0.0,-3.033,0.0,0.0,0.0,0.0,0.0,0.0,0.0,0.0,0.0,0.0,0.0,0.0,0.0,0.0,0.0,0.0,0.0,0.0,0.0,0.0,0.0,0.0,-3.254,-3.2504,-3.333,-3.254,-3.2687,-3.3807,-3.3476,-3.3495,-3.3825,-3.4289,-3.4509,-3.4509,-3.4509,-3.4816,-3.533,-3.5661,-3.6083,-3.656,-3.7235,-3.7603,-3.7826,-3.8469,-3.8505,-3.8212,-3.8212,-3.8212,-3.8028,-3.6872,-3.6505,-3.6358,-3.555,-3.5532,-3.5789,-3.5789,-3.5646,-3.5518,-3.5518,-3.5261,-3.4931,-3.4601,-3.4399,-3.427,-3.427,-3.4027,-3.4045,-3.4839,-3.4747,-3.5073,-3.674,-3.5899,-3.5463,-3.6817,-3.5183,-3.3807,-3.3807,-3.3807,-3.3807,-3.3807,-3.3807,-3.3807,-3.3807,-3.3807,-3.3587,-3.3109,-3.3532,-3.3587,-3.3096,-3.3091,-3.3091,-3.3091,-3.2596,-3.2596,-3.3091,-3.2596,-3.2596,-3.3073,-3.2577,-3.2231,-2.2746,0.0,0.0,-2.561,-2.6951,0.0,-2.8152,0.0,0.0,0.0,0.0,0.0,0.0,0.0,0.0,0.0,0.0,0.0,0.0,0.0,0.0,0.0,0.0,0.0,0.0,0.0,0.0,0.0,0.0,0.0,0.0,0.0,0.0,-3.2491,-3.1715,-3.1678,-3.2472,-3.1696,-3.2045,0.0,-3.2913,-3.2968,-3.3697,-3.377,-3.3807,-3.3807,-3.3807,-3.3807,-3.3862,-3.4582,-3.4931,-3.5151,-3.667,-3.6868,-3.6486,-3.7936,-3.801,-3.7382,-3.7382,-3.7382,-3.7125,-3.5518,-3.5004,-3.4857,-3.4045,-3.4307,-3.4931,-3.5078,-3.5587,-3.6101,-3.6266,-3.5646,-3.4802,-3.399,-3.4362,-3.4912,-3.4986,-3.4417,-3.4174,-3.5059,-3.4637,-3.4633,-3.6229,-3.5807,-3.5463,-3.6193,-3.4945,-3.3917,-3.3917,-3.3844,-3.3807,-3.3807,-3.3862,-3.388,-3.3807,-3.3862,-3.388,-3.3807,-3.3807,-3.3807,-3.3807,-3.3807,-3.3807,-3.3807,-3.3807,-3.3807,-3.3807,-3.3807,-3.3807,-3.3807,-3.3815,-3.3499,-2.3093,-2.3981,0.0,0.0,-2.8762,-3.061,-3.0889,-3.1208,0.0,0.0,0.0,0.0,0.0,0.0,0.0,0.0,0.0,0.0,0.0,0.0,0.0,0.0,0.0,0.0,0.0,0.0,0.0,0.0,0.0,0.0,0.0,0.0,0.0,-3.1659,-3.087,-3.0834,-3.1654,-3.0852,-3.0944,0.0,-3.2394,-3.2693,-3.2876,-3.3513,-3.3807,-3.3807,-3.3807,-3.3807,-3.3807,-3.399,-3.4417,-3.5041,-3.5408,-3.5862,-3.634,-3.6688,-3.6707,-3.656,-3.656,-3.656,-3.6376,-3.5334,-3.5004,-3.4857,-3.4045,-3.3917,-3.4339,-3.5661,-3.5202,-3.4633,-3.5954,-3.5646,-3.4802,-3.399,-3.3935,-3.4215,-3.4857,-3.4857,-3.5169,-3.667,-3.6831,-3.7033,-3.801,-3.7496,-3.6798,-3.6358,-3.5422,-3.4747,-3.4747,-3.4192,-3.3807,-3.3807,-3.4362,-3.4491,-3.3844,-3.438,-3.4472,-3.3844,-3.3807,-3.3807,-3.3807,-3.3807,-3.3807,-3.3807,-3.3807,-3.3807,-3.3807,-3.3807,-3.3807,-3.382,-3.4006,-3.3385,-2.3437,0.0,0.0,-2.7857,0.0,-3.1398,-3.1724,-3.1488,0.0,0.0,0.0,0.0,0.0,0.0,0.0,0.0,0.0,0.0,0.0,0.0,0.0,0.0,0.0,0.0,0.0,0.0,0.0,0.0,0.0,0.0,0.0,-3.1017,-3.0834,-3.0834,-3.0063,-3.0008,-3.0815,-3.0026,-3.0228,-3.1415,-3.1825,-3.243,-3.3201,-3.3605,-3.3587,-3.3238,-3.3238,-3.3238,-3.3238,-3.3238,-3.3702,-3.4454,-3.4857,-3.5041,-3.5169,-3.5747,-3.5846,-3.565,-3.5458,-3.5517,-3.5536,-3.4692,-3.4417,-3.4344,-3.3935,-3.3807,-3.3972,-3.4853,-3.4761,-3.4504,-3.4981,-3.5367,-3.5312,-3.4082,-3.41,-3.4601,-3.5445,-3.5298,-3.55,-3.718,-3.7199,-3.718,-3.7991,-3.7786,-3.7235,-3.6413,-3.5555,-3.4857,-3.4472,-3.4064,-3.3954,-3.4325,-3.4747,-3.5004,-3.5,-3.5385,-3.5261,-3.4417,-3.4362,-3.4197,-3.3825,-3.3807,-3.3807,-3.3807,-3.3807,-3.3807,-3.3807,-3.3807,-3.3605,-3.3238,-3.3363,-3.292,-2.3785,0.0,-2.6391,-2.8784,-3.0261,0.0,-3.1533,0.0,0.0,0.0,0.0,0.0,0.0,0.0,0.0,0.0,0.0,0.0,0.0,0.0,0.0,0.0,0.0,0.0,0.0,0.0,0.0,0.0,0.0,0.0,-3.0944,-3.0356,-2.9989,-2.9989,-2.9354,-2.9317,-2.9989,-2.9335,-2.9666,-3.0993,-3.114,-3.1953,-3.3385,-3.3385,-3.3109,-3.2583,-3.2454,-3.2472,-3.2601,-3.2601,-3.306,-3.3862,-3.4527,-3.438,-3.3927,-3.4924,-3.5089,-3.4742,-3.4403,-3.451,-3.4674,-3.4027,-3.3807,-3.3807,-3.3807,-3.3807,-3.3825,-3.3972,-3.438,-3.4711,-3.4339,-3.5078,-3.563,-3.4397,-3.4494,-3.5073,-3.5895,-3.5752,-3.583,-3.7235,-3.7055,-3.6927,-3.7603,-3.7713,-3.7492,-3.6798,-3.5848,-3.4986,-3.4321,-3.41,-3.4266,-3.4931,-3.5261,-3.5665,-3.6248,-3.6431,-3.6138,-3.5279,-3.5078,-3.4711,-3.4027,-3.3862,-3.3807,-3.3807,-3.3807,-3.3807,-3.3807,-3.3807,-3.3385,-3.2601,-3.2794,-3.2618,0.0,0.0,-2.7654,0.0,-2.9469,-3.0427,0.0,0.0,0.0,0.0,0.0,0.0,0.0,0.0,0.0,0.0,0.0,0.0,0.0,0.0,0.0,0.0,0.0,0.0,0.0,0.0,0.0,0.0,0.0,0.0,-2.9317,-2.9225,-2.9152,-2.9152,-2.906,-2.906,-2.9152,-2.906,-2.9115,-2.9335,-3.0026,-3.0834,-3.1727,-3.1727,-3.2045,-3.2564,-3.1861,-3.1953,-3.2601,-3.2601,-3.306,-3.3807,-3.3917,-3.3899,-3.3825,-3.3973,-3.4005,-3.394,-3.3899,-3.3913,-3.3935,-3.3825,-3.3807,-3.3807,-3.3807,-3.3807,-3.3954,-3.4637,-3.4417,-3.4266,-3.5624,-3.5217,-3.4612,-3.5163,-3.4779,-3.447,-3.5055,-3.6229,-3.7235,-3.7456,-3.7973,-3.8414,-3.8524,-3.8542,-3.8505,-3.8395,-3.7092,-3.6083,-3.5973,-3.5298,-3.4876,-3.5004,-3.6303,-3.6942,-3.634,-3.6942,-3.6997,-3.6174,-3.5426,-3.4949,-3.4839,-3.4174,-3.3807,-3.3807,-3.3807,-3.3807,-3.3807,-3.3807,-3.3385,-3.2614,-3.3562,-3.3343,-2.419,-2.5301,-2.6609,0.0,-2.8125,-2.912,-3.0127,0.0,0.0,0.0,0.0,0.0,0.0,0.0,0.0,0.0,0.0,0.0,0.0,0.0,0.0,0.0,0.0,0.0,0.0,0.0,0.0,0.0,0.0,-2.8803,-2.8356,-2.8767,-2.8785,-2.8338,-2.8767,-2.9005,-2.9005,-2.9005,-2.9225,-2.9684,-3.0026,-3.0613,-3.1378,-3.0925,-3.0925,-3.1225,-3.0889,-3.1182,-3.1935,-3.1935,-3.2669,-3.3807,-3.3807,-3.3807,-3.3762,-3.355,-3.3319,-3.3175,-3.3391,-3.3332,-3.3201,-3.3642,-3.3807,-3.3807,-3.3807,-3.3807,-3.3862,-3.4215,-3.4179,-3.4185,-3.4944,-3.5143,-3.5143,-3.5068,-3.5324,-3.5535,-3.5321,-3.5708,-3.6376,-3.7327,-3.8138,-3.8707,-3.8707,-3.8707,-3.856,-3.8102,-3.7437,-3.6813,-3.6358,-3.5973,-3.5899,-3.6358,-3.707,-3.7547,-3.7643,-3.7973,-3.7826,-3.7015,-3.6754,-3.614,-3.5041,-3.4847,-3.4436,-3.3807,-3.3807,-3.3807,-3.3807,-3.3807,-3.3385,-3.2614,-3.3227,-3.305,0.0,0.0,-2.5519,-2.6012,-2.6673,-2.7585,0.0,0.0,0.0,0.0,0.0,0.0,0.0,0.0,0.0,0.0,0.0,0.0,0.0,0.0,0.0,0.0,0.0,0.0,0.0,0.0,0.0,0.0,0.0,-2.8638,-2.7842,-2.8374,-2.8429,-2.7824,-2.8374,-2.8785,-2.9005,-2.9005,-2.9299,-2.9898,-2.9898,-3.021,-3.076,-3.0173,-2.9898,-2.9898,-2.9898,-3.0467,-3.1397,-3.1397,-3.2339,-3.3775,-3.3694,-3.3707,-3.3748,-3.3346,-3.3069,-3.296,-3.3247,-3.3154,-3.2999,-3.3605,-3.3807,-3.3807,-3.3807,-3.3807,-3.3807,-3.3807,-3.3935,-3.4166,-3.4455,-3.5165,-3.5719,-3.5399,-3.6023,-3.657,-3.6116,-3.5804,-3.6083,-3.7529,-3.8285,-3.8707,-3.8707,-3.8707,-3.8505,-3.7896,-3.7621,-3.729,-3.667,-3.6597,-3.6831,-3.7437,-3.7676,-3.8046,-3.8652,-3.8707,-3.8477,-3.7933,-3.7904,-3.7283,-3.5911,-3.564,-3.5237,-3.4679,-3.4373,-3.4097,-3.3807,-3.4009,-3.3592,-3.2614,-3.3013,-3.2922,0.0,-2.4787,0.0,-2.4971,0.0,0.0,0.0,0.0,0.0,0.0,0.0,0.0,0.0,0.0,0.0,0.0,0.0,0.0,0.0,0.0,0.0,0.0,0.0,0.0,0.0,0.0,0.0,0.0,0.0,-2.8638,-2.7842,-2.7842,-2.7842,-2.7798,-2.7842,-2.8227,-2.8987,-2.9005,-2.9023,-2.906,-2.906,-2.9078,-2.9115,-2.9078,-2.906,-2.906,-2.906,-2.9941,-3.1397,-3.1397,-3.2339,-3.3762,-3.3375,-3.3447,-3.3748,-3.3346,-3.3429,-3.3752,-3.3775,-3.3757,-3.3733,-3.3788,-3.3807,-3.3807,-3.3807,-3.3807,-3.3807,-3.3807,-3.3802,-3.406,-3.5138,-3.5478,-3.5756,-3.6742,-3.6824,-3.684,-3.7301,-3.7379,-3.7621,-3.8469,-3.867,-3.8707,-3.8707,-3.8707,-3.8689,-3.8652,-3.7988,-3.7474,-3.7437,-3.7437,-3.7456,-3.7492,-3.8175,-3.8652,-3.8707,-3.8707,-3.88,-3.9002,-3.8316,-3.8004,-3.8207,-3.6473,-3.5986,-3.6988,-3.5956,-3.4884,-3.3807,-3.4564,-3.4124,-3.2619,-3.3398,-3.3462,0.0,0.0,0.0,-2.418,-2.4421,0.0,0.0,0.0,0.0,0.0,0.0,0.0,0.0,0.0,0.0,0.0,0.0,0.0,0.0,0.0,0.0,0.0,0.0,0.0,0.0,0.0,0.0,0.0,0.0,0.0,-2.7108,-2.7512,-2.7548,-2.7053,-2.753,-2.8191,-2.8987,-2.9005,-2.9005,-2.9005,-2.9005,-2.9005,-2.9005,-2.9005,-2.9005,-2.9005,-2.9005,-2.9916,-3.1397,-3.1397,-3.2339,-3.3793,-3.3634,-3.368,-3.3775,-3.3652,-3.3351,-3.3096,-3.3623,-3.3458,-3.3109,-3.3623,-3.3807,-3.3807,-3.3807,-3.3807,-3.3917,-3.4417,-3.4852,-3.5233,-3.5661,-3.6276,-3.6793,-3.6829,-3.7162,-3.7477,-3.7492,-3.7915,-3.8193,-3.7955,-3.834,-3.8707,-3.8707,-3.8707,-3.8707,-3.8707,-3.845,-3.8267,-3.8267,-3.8267,-3.8267,-3.8267,-3.8524,-3.8707,-3.8707,-3.8707,-3.88,-3.9085,-3.9039,-3.8816,-3.8433,-3.7936,-3.7522,-3.7211,-3.7318,-3.6904,-3.5986,-3.605,-3.5527,-3.4476,-3.4766,-3.4501,-2.419,0.0,0.0,0.0,0.0,0.0,0.0,0.0,0.0,0.0,0.0,0.0,0.0,0.0,0.0,0.0,0.0,0.0,0.0,0.0,0.0,0.0,0.0,0.0,0.0,0.0,0.0,0.0,0.0,0.0,-2.6693,-2.7365,-2.7548,-2.7016,-2.7787,-2.8466,-2.8987,-2.9005,-2.9005,-2.9005,-2.9005,-2.9005,-2.9005,-2.9005,-2.9005,-2.9023,-2.9299,-3.0173,-3.1397,-3.1397,-3.2339,-3.3793,-3.3652,-3.368,-3.3775,-3.3652,-3.3351,-3.3091,-3.3605,-3.3458,-3.3091,-3.3623,-3.3807,-3.3844,-3.4119,-3.4009,-3.4027,-3.5133,-3.5514,-3.5693,-3.6062,-3.6906,-3.7588,-3.74,-3.7785,-3.8118,-3.7941,-3.8322,-3.8542,-3.8025,-3.8322,-3.8707,-3.8707,-3.8707,-3.8707,-3.8707,-3.8707,-3.8707,-3.8707,-3.8707,-3.8707,-3.8707,-3.8707,-3.8707,-3.8707,-3.8773,-3.8966,-3.9238,-3.9587,-3.9572,-3.9116,-3.8966,-3.8718,-3.8318,-3.8476,-3.8476,-3.8309,-3.7608,-3.6794,-3.5894,-3.5888,-3.5535,0.0,0.0,0.0,0.0,0.0,0.0,0.0,0.0,0.0,0.0,0.0,0.0,0.0,0.0,0.0,0.0,0.0,0.0,0.0,0.0,0.0,0.0,0.0,0.0,0.0,0.0,0.0,0.0,0.0,-2.829,-2.6712,-2.7383,-2.7798,-2.7798,-2.8583,-2.9005,-2.9005,-2.9005,-2.9005,-2.9005,-2.9005,-2.9005,-2.9005,-2.9005,-2.9005,-2.9042,-2.9831,-3.0632,-3.1397,-3.1433,-3.237,-3.3762,-3.3361,-3.3465,-3.3748,-3.3361,-3.3447,-3.3807,-3.3807,-3.3807,-3.3807,-3.3807,-3.3807,-3.3954,-3.4766,-3.4454,-3.4174,-3.5862,-3.5734,-3.5358,-3.6487,-3.7327,-3.8034,-3.8563,-3.8707,-3.8707,-3.8707,-3.8707,-3.8707,-3.8707,-3.8707,-3.8707,-3.8707,-3.8707,-3.8707,-3.8707,-3.8707,-3.8707,-3.8707,-3.8707,-3.8704,-3.8704,-3.8719,-3.8738,-3.8738,-3.8975,-3.9251,-3.9599,-3.9922,-4.0213,-4.0489,-3.951,-3.9435,-4.0469,-3.9482,-3.9463,-4.0496,-3.9116,-3.7863,-3.6764,-3.6721,-3.6565,-2.419,0.0,0.0,0.0,0.0,0.0,-2.3815,-2.3684,0.0,0.0,0.0,0.0,0.0,0.0,0.0,0.0,0.0,0.0,0.0,0.0,0.0,0.0,0.0,0.0,0.0,0.0,0.0,0.0,-2.8455,-2.7934,-2.7493,-2.7677,-2.7798,-2.7798,-2.8583,-2.9005,-2.9005,-2.9005,-2.9005,-2.9005,-2.9005,-2.9005,-2.9005,-2.9005,-2.9005,-2.9005,-2.9244,-3.0118,-3.1452,-3.2027,-3.2871,-3.3793,-3.368,-3.3707,-3.3793,-3.368,-3.3707,-3.3807,-3.3807,-3.3807,-3.3807,-3.3807,-3.3807,-3.3954,-3.4766,-3.4839,-3.5023,-3.6703,-3.7142,-3.7304,-3.8197,-3.8159,-3.8034,-3.8563,-3.8707,-3.8707,-3.8707,-3.8707,-3.8707,-3.8707,-3.8707,-3.8707,-3.8707,-3.8707,-3.8707,-3.8707,-3.8707,-3.8707,-3.8707,-3.8869,-3.8985,-3.8985,-3.9197,-3.9352,-3.9352,-3.942,-3.9611,-3.9932,-4.0061,-4.0213,-4.0489,-4.0218,-4.0191,-4.0496,-4.0218,-4.0191,-4.0496,-3.991,-3.9172,-3.8267,-3.7195,-3.688,0.0,0.0,0.0,0.0,0.0,0.0,-2.3949,-2.3624,-2.3454,0.0,0.0,0.0,0.0,0.0,0.0,0.0,0.0,0.0,0.0,0.0,0.0,0.0,0.0,0.0,0.0,0.0,0.0,-2.851,-2.8062,-2.7798,-2.7798,-2.7475,-2.7603,-2.8282,-2.8767,-2.9005,-2.9005,-2.9005,-2.9005,-2.9005,-2.9005,-2.9005,-2.9005,-2.9005,-2.9005,-2.9023,-2.9354,-3.0228,-3.147,-3.2284,-3.306,-3.3807,-3.3807,-3.3807,-3.3807,-3.3807,-3.3807,-3.3807,-3.3807,-3.3807,-3.3807,-3.3807,-3.4027,-3.4454,-3.5279,-3.5298,-3.5436,-3.7571,-3.828,-3.8476,-3.8832,-3.859,-3.8297,-3.8624,-3.8707,-3.8707,-3.8707,-3.8707,-3.8707,-3.8707,-3.8707,-3.8707,-3.8707,-3.8707,-3.8707,-3.8707,-3.8707,-3.875,-3.884,-3.9013,-3.9147,-3.9289,-3.9474,-3.9599,-3.9599,-3.9731,-3.9891,-4.0091,-4.0204,-4.0339,-4.0489,-4.0496,-4.0496,-4.0496,-4.0496,-4.0496,-4.0496,-4.0347,-3.989,-3.9171,-3.8182,-3.7812,0.0,0.0,0.0,0.0,0.0,0.0,-2.4975,-2.4364,-2.3768,0.0,0.0,0.0,0.0,0.0,0.0,0.0,0.0,0.0,0.0,0.0,0.0,0.0,0.0,0.0,0.0,-2.8308,-2.8436,-2.7714,-2.7658,-2.7658,-2.7658,-2.7071,-2.7427,-2.895,-2.9005,-2.9005,-2.9005,-2.9005,-2.9005,-2.9005,-2.9005,-2.9005,-2.9005,-2.9005,-2.9005,-2.9042,-2.9769,-3.0577,-3.147,-3.2173,-3.2999,-3.3807,-3.3807,-3.3807,-3.3807,-3.3807,-3.3807,-3.3807,-3.3807,-3.3807,-3.382,-3.3952,-3.4467,-3.522,-3.608,-3.5892,-3.5878,-3.8287,-3.9011,-3.8994,-3.8693,-3.8664,-3.8707,-3.875,-3.8719,-3.8707,-3.8707,-3.8707,-3.8707,-3.8707,-3.8707,-3.8707,-3.8707,-3.8707,-3.8741,-3.886,-3.882,-3.8881,-3.9256,-3.9261,-3.9364,-3.9754,-3.9747,-3.9739,-3.9834,-4.003,-4.0177,-4.0273,-4.0422,-4.0535,-4.065,-4.0554,-4.0496,-4.0496,-4.0496,-4.0496,-4.0496,-4.0473,-4.0157,-3.9599,-3.9269,-3.8961,0.0,0.0,0.0,0.0,0.0,0.0,-2.5439,-2.5165,-2.4702,0.0,0.0,0.0,0.0,0.0,0.0,0.0,0.0,0.0,0.0,0.0,0.0,0.0,0.0,0.0,0.0,-2.6969,-2.6987,-2.6851,-2.6833,-2.6833,-2.6833,-2.7291,-2.8007,-2.8968,-2.9005,-2.9005,-2.9005,-2.9005,-2.9005,-2.9005,-2.9005,-2.9005,-2.9005,-2.9005,-2.9005,-2.9005,-2.917,-3.0063,-3.1415,-3.158,-3.2485,-3.3807,-3.3807,-3.3807,-3.3807,-3.3807,-3.3807,-3.3807,-3.3807,-3.3807,-3.3952,-3.4872,-3.5268,-3.5554,-3.6378,-3.7144,-3.7781,-3.8059,-3.8447,-3.8671,-3.8173,-3.8375,-3.8747,-3.8957,-3.8855,-3.8707,-3.8707,-3.8707,-3.8707,-3.8707,-3.8707,-3.8707,-3.8707,-3.8707,-3.9013,-3.9923,-3.9482,-3.9381,-4.0427,-4.017,-4.0179,-4.0888,-4.0577,-4.0616,-4.1297,-4.0792,-4.0721,-4.1423,-4.0849,-4.0816,-4.1527,-4.0873,-4.0496,-4.0496,-4.0496,-4.0496,-4.0496,-4.0276,-3.9973,-3.9599,-3.9269,-3.8961,0.0,0.0,0.0,-2.6704,0.0,0.0,0.0,-2.5081,-2.4549,0.0,0.0,0.0,0.0,0.0,0.0,0.0,0.0,0.0,0.0,0.0,0.0,0.0,0.0,0.0,0.0,-2.6271,-2.6429,-2.6025,-2.5621,-2.575,-2.6547,-2.6979,-2.7739,-2.8968,-2.9005,-2.9005,-2.9005,-2.9005,-2.9005,-2.9005,-2.9005,-2.9005,-2.9005,-2.9005,-2.9005,-2.9005,-2.9005,-2.9916,-3.1397,-3.1397,-3.2339,-3.3807,-3.3807,-3.3807,-3.3807,-3.3807,-3.3807,-3.3807,-3.3807,-3.3807,-3.3962,-3.4934,-3.5258,-3.5506,-3.6881,-3.8202,-3.9064,-3.8153,-3.8503,-3.9021,-3.8437,-3.8598,-3.8919,-3.9058,-3.9136,-3.9154,-3.9154,-3.9022,-3.8894,-3.8894,-3.8788,-3.8732,-3.8884,-3.912,-3.9616,-4.0519,-4.0337,-4.0496,-4.1598,-4.1233,-4.1177,-4.2087,-4.1779,-4.1766,-4.2385,-4.1643,-4.1335,-4.1769,-4.0969,-4.0893,-4.175,-4.095,-4.0496,-4.0496,-4.0496,-4.0496,-4.0496,-4.0223,-4.0012,-3.9859,-4.0095,-3.982,0.0,0.0,0.0,0.0,0.0,-2.6814,0.0,0.0,0.0,0.0,0.0,0.0,0.0,0.0,0.0,0.0,0.0,0.0,0.0,0.0,0.0,0.0,0.0,0.0,0.0,-2.5503,-2.5808,-2.5209,-2.4566,-2.4905,-2.651,-2.6602,-2.7336,-2.895,-2.9005,-2.9005,-2.9005,-2.9005,-2.9005,-2.9005,-2.9005,-2.9005,-2.9005,-2.9005,-2.9005,-2.9005,-2.9152,-2.9971,-3.1182,-3.1342,-3.2265,-3.3587,-3.3733,-3.3807,-3.3807,-3.3807,-3.3807,-3.3807,-3.3807,-3.3807,-3.3949,-3.4806,-3.5206,-3.5693,-3.764,-3.8865,-3.9372,-3.8228,-3.8652,-3.9289,-3.8703,-3.8822,-3.9125,-3.9173,-3.9401,-3.9599,-3.9599,-3.9377,-3.9242,-3.9405,-3.9143,-3.8917,-3.9013,-3.9394,-3.9922,-4.0697,-4.0886,-4.1326,-4.2362,-4.2015,-4.2077,-4.3119,-4.2795,-4.2737,-4.328,-4.2547,-4.2124,-4.2277,-4.147,-4.1393,-4.2258,-4.1296,-4.0746,-4.0746,-4.0593,-4.0496,-4.0496,-4.044,-4.0397,-4.0348,-4.0938,-4.081,0.0,0.0,0.0,0.0,-2.873,0.0,0.0,0.0,0.0,0.0,0.0,0.0,0.0,0.0,0.0,0.0,0.0,0.0,0.0,0.0,0.0,0.0,0.0,0.0,0.0,0.0,-2.4104,-2.4327,-2.4245,-2.4905,-2.651,-2.6602,-2.7336,-2.895,-2.9005,-2.9005,-2.9005,-2.9005,-2.9005,-2.9005,-2.9005,-2.9005,-2.9005,-2.9005,-2.9005,-2.9042,-2.9739,-3.0173,-3.0393,-3.1121,-3.1935,-3.2803,-3.3532,-3.3807,-3.3807,-3.3807,-3.3807,-3.3807,-3.3807,-3.3807,-3.397,-3.5095,-3.5926,-3.687,-3.8818,-3.8663,-3.7808,-3.7873,-3.8336,-3.8682,-3.8122,-3.8545,-3.916,-3.9462,-3.9576,-3.9599,-3.9599,-3.9576,-3.976,-4.0556,-4.0037,-3.9339,-3.8833,-3.8793,-3.9205,-4.0295,-4.0407,-4.0821,-4.1995,-4.204,-4.2415,-4.3579,-4.298,-4.2947,-4.4068,-4.3412,-4.3258,-4.397,-4.3258,-4.3162,-4.397,-4.2489,-4.1662,-4.1662,-4.0893,-4.0496,-4.0496,-4.1253,-4.1442,-4.1149,-4.1013,-4.1255,0.0,0.0,0.0,0.0,0.0,0.0,-2.6969,0.0,-2.5546,0.0,0.0,0.0,0.0,0.0,0.0,0.0,0.0,0.0,0.0,0.0,0.0,0.0,0.0,0.0,0.0,0.0,0.0,0.0,0.0,-2.4608,-2.6209,-2.649,-2.7336,-2.895,-2.9005,-2.9005,-2.9005,-2.9005,-2.9005,-2.9005,-2.9005,-2.9005,-2.9005,-2.9005,-2.9005,-2.9042,-2.9861,-3.0467,-3.0962,-3.1751,-3.2302,-3.2674,-3.3495,-3.3807,-3.3807,-3.3807,-3.3807,-3.3807,-3.3807,-3.3807,-3.3962,-3.4895,-3.6202,-3.7548,-3.8378,-3.8652,-3.8706,-3.8622,-3.8748,-3.883,-3.8459,-3.8744,-3.9139,-3.9276,-3.9611,-3.9891,-3.9891,-3.9891,-4.0148,-4.0975,-4.0146,-3.938,-3.9653,-3.9655,-3.9914,-4.0793,-4.0821,-4.1092,-4.1983,-4.2137,-4.2595,-4.3738,-4.376,-4.4078,-4.4982,-4.4278,-4.3932,-4.4278,-4.397,-4.3508,-4.2874,-4.3104,-4.2797,-4.1808,-4.1931,-4.2008,-4.2008,-4.2374,-4.2708,-4.3042,-4.2929,-4.2804,-3.125,0.0,0.0,0.0,0.0,0.0,0.0,0.0,0.0,0.0,0.0,0.0,0.0,0.0,0.0,0.0,0.0,0.0,0.0,0.0,0.0,0.0,0.0,0.0,0.0,0.0,0.0,0.0,0.0,0.0,-2.5712,-2.6297,-2.7244,-2.862,-2.8895,-2.9005,-2.9005,-2.9005,-2.9005,-2.9005,-2.9005,-2.9005,-2.9005,-2.9005,-2.9005,-2.9042,-2.9861,-3.0411,-3.0797,-3.1623,-3.2069,-3.2339,-3.2908,-3.3403,-3.3807,-3.3807,-3.3807,-3.3807,-3.3807,-3.3935,-3.4266,-3.5096,-3.6464,-3.7829,-3.8039,-3.8691,-3.9301,-3.9068,-3.8985,-3.8947,-3.8747,-3.8894,-3.9112,-3.9112,-3.9552,-3.9953,-3.9953,-3.9953,-4.02,-4.1039,-4.0323,-3.9842,-4.0729,-4.0359,-4.0109,-4.0533,-4.0761,-4.1059,-4.1537,-4.2009,-4.2677,-4.3624,-4.4252,-4.483,-4.5419,-4.4974,-4.4662,-4.4662,-4.4662,-4.4105,-4.2893,-4.3778,-4.372,-4.2508,-4.2893,-4.3104,-4.3104,-4.3316,-4.372,-4.4297,-4.4297,-4.4124,0.0,0.0,0.0,-3.0393,0.0,0.0,0.0,0.0,-2.7493,0.0,0.0,0.0,0.0,0.0,0.0,0.0,0.0,0.0,0.0,0.0,0.0,0.0,0.0,0.0,0.0,0.0,0.0,0.0,0.0,0.0,-2.4895,-2.5987,-2.6979,-2.7805,-2.8583,-2.9005,-2.9005,-2.9005,-2.9005,-2.9005,-2.9005,-2.9005,-2.9005,-2.9005,-2.9005,-2.9042,-2.9861,-2.9757,-2.9133,-2.9941,-3.0742,-3.1452,-3.147,-3.243,-3.3807,-3.3807,-3.3807,-3.3807,-3.3807,-3.4307,-3.5096,-3.5973,-3.6831,-3.7654,-3.8429,-3.8701,-3.8738,-3.8723,-3.8704,-3.8704,-3.8707,-3.8894,-3.9112,-3.9112,-3.9364,-3.9611,-3.9611,-3.9611,-3.9868,-4.074,-4.0825,-4.1022,-4.1895,-4.0439,-3.9064,-3.8814,-3.9659,-4.0323,-4.0351,-4.1496,-4.2556,-4.3258,-4.4089,-4.4751,-4.5085,-4.54,-4.5556,-4.5556,-4.5556,-4.5537,-4.5479,-4.472,-4.4278,-4.422,-4.347,-4.3104,-4.3104,-4.3874,-4.4278,-4.4297,-4.4297,-4.4739,0.0,0.0,-3.2797,-3.199,0.0,0.0,0.0,0.0,0.0,0.0,0.0,0.0,0.0,0.0,0.0,0.0,0.0,0.0,0.0,0.0,0.0,0.0,0.0,0.0,0.0,0.0,0.0,0.0,0.0,0.0,0.0,-2.5935,-2.6975,-2.8546,-2.8858,-2.9005,-2.9005,-2.9005,-2.9005,-2.9005,-2.9005,-2.9005,-2.9005,-2.9005,-2.9005,-2.9042,-2.9861,-3.0063,-2.9898,-3.1225,-3.1641,-3.1507,-3.2559,-3.2999,-3.306,-3.3605,-3.3807,-3.388,-3.4399,-3.4766,-3.5224,-3.6633,-3.6923,-3.6945,-3.8285,-3.8707,-3.8707,-3.8707,-3.8707,-3.8707,-3.8707,-3.8777,-3.8844,-3.8844,-3.9054,-3.9264,-3.9264,-3.9858,-4.0651,-4.1517,-4.1505,-4.1594,-4.2426,-4.1568,-4.0719,-4.0626,-4.0732,-4.0824,-4.0824,-4.1869,-4.2801,-4.3259,-4.4282,-4.5074,-4.541,-4.5522,-4.5594,-4.5594,-4.5594,-4.5344,-4.4759,-4.5017,-4.4893,-4.4316,-4.4605,-4.4748,-4.4767,-4.5037,-4.5171,-4.5171,-4.5171,-4.5325,-3.2742,-3.3201,0.0,-3.2729,-3.2008,0.0,-2.9721,0.0,0.0,0.0,0.0,0.0,0.0,0.0,0.0,0.0,0.0,0.0,0.0,-2.2725,0.0,0.0,0.0,0.0,0.0,0.0,0.0,0.0,0.0,0.0,0.0,0.0,-2.7126,-2.8528,-2.8858,-2.9005,-2.9005,-2.9005,-2.9005,-2.9005,-2.9005,-2.9005,-2.9005,-2.9005,-2.9152,-2.9464,-2.9971,-3.0356,-3.0717,-3.1851,-3.2121,-3.1929,-3.3055,-3.3324,-3.3091,-3.3605,-3.399,-3.4289,-3.4821,-3.5389,-3.6083,-3.7162,-3.7345,-3.7349,-3.8395,-3.8707,-3.8707,-3.8707,-3.8707,-3.8707,-3.8707,-3.8707,-3.8707,-3.8707,-3.8829,-3.8961,-3.8961,-3.976,-4.0651,-4.122,-4.1607,-4.2004,-4.2536,-4.2431,-4.2082,-4.1508,-4.1342,-4.1283,-4.1283,-4.2054,-4.2801,-4.3259,-4.427,-4.5107,-4.5568,-4.5594,-4.5594,-4.5594,-4.5594,-4.5344,-4.4778,-4.5306,-4.5344,-4.4759,-4.5306,-4.5594,-4.5594,-4.5594,-4.5594,-4.5594,-4.5594,-4.5594]},{"header":{"parameterUnit":"m.s-1","parameterCategory":1,"la1":30.6,"la2":29.2853,"lo1":-89.7004,"lo2":-87.6739,"dy":0.0162,"dx":0.0183,"nx":112,"ny":82,"refTime":"2024-04-16T12:00:00:Z","depth":0,"parameterNumber":3,"parameterNumberName":"V-component_of_WINDS"},"data":[0.0,0.0,0.0,0.0,0.0,0.0,0.0,0.0,0.0,0.0,0.0,0.0,0.0,0.0,0.0,0.0,0.0,0.0,0.0,0.0,0.0,0.0,0.0,0.0,0.0,0.0,0.0,0.0,0.0,0.0,0.0,0.0,0.0,0.0,0.0,0.0,0.0,0.0,0.0,0.0,0.0,0.0,0.0,0.0,0.0,0.0,0.0,0.0,0.0,0.0,0.0,0.0,0.0,0.0,0.0,0.0,0.0,0.0,0.0,0.0,0.0,0.0,0.0,0.0,0.0,0.0,0.0,0.0,0.0,0.0,0.0,0.0,0.0,0.0,0.0,0.0,0.0,0.0,0.0,0.0,0.0,0.0,0.0,0.0,0.0,0.0,0.0,0.0,0.0,0.0,0.7209,0.7563,0.915,0.9997,0.9518,1.0165,1.107,1.2216,0.0,0.0,0.0,0.0,0.0,0.0,0.0,0.0,0.0,0.0,0.0,0.0,0.0,0.0,0.0,0.0,0.0,0.0,0.0,0.0,0.0,0.0,0.0,0.0,0.0,0.0,0.0,0.0,0.0,0.0,0.0,0.0,0.0,0.0,0.0,0.0,0.0,0.0,0.0,0.0,0.0,0.0,0.0,0.0,0.0,0.0,0.0,0.0,0.0,0.0,0.0,0.0,0.0,0.0,0.0,0.0,0.0,0.0,0.0,0.0,0.0,0.0,0.0,0.0,0.0,0.0,0.0,0.0,0.0,0.0,0.0,0.0,0.0,0.0,0.0,0.0,0.0,0.0,0.0,0.0,0.0,0.0,0.0,0.0,0.0,0.0,0.0,0.0,0.0,0.0,0.0,0.0,0.0,0.0,0.0,0.0,0.0,0.0,0.0,0.0,0.0,0.0,0.0,0.0,0.7335,0.7129,0.8673,0.9628,0.944,0.9782,1.0794,1.2609,0.0,0.0,0.0,0.0,0.0,0.0,0.0,0.0,0.0,0.0,0.0,0.0,0.0,0.0,0.0,0.0,0.0,0.0,0.0,0.0,0.0,0.0,0.0,0.0,0.0,0.0,0.0,0.0,0.0,0.0,0.0,0.0,0.0,0.0,0.0,0.0,0.0,0.0,0.0,0.0,0.0,0.0,0.0,0.0,0.0,0.0,0.0,0.0,0.0,0.0,0.0,0.0,0.0,0.0,0.0,0.0,0.0,0.0,0.0,0.0,0.0,0.0,0.0,0.0,0.0,0.0,0.0,0.0,0.0,0.0,0.0,0.0,0.0,0.0,0.0,0.0,0.0,0.0,0.0,0.0,0.0,0.0,0.0,0.0,0.0,0.0,0.0,0.0,0.0,0.0,0.0,0.0,0.0,0.0,0.0,0.0,0.0,0.0,0.0,0.0,0.0,0.0,0.0,0.7354,0.6974,0.6603,0.7761,0.855,0.8476,0.8519,0.954,1.1885,1.1602,0.0,0.0,0.0,0.0,0.0,0.0,0.0,0.0,0.0,0.0,0.0,0.0,0.0,0.0,0.0,0.0,0.0,0.0,0.0,0.0,0.0,0.0,0.0,0.0,0.0,0.0,0.0,0.0,0.0,0.0,0.0,0.0,0.0,0.0,0.0,0.0,0.0,0.0,0.0,0.0,0.0,0.0,0.0,0.0,0.0,0.0,0.0,0.0,0.0,0.0,0.0,0.0,0.0,0.0,0.0,0.0,0.0,0.0,0.0,0.0,0.0,0.0,0.0,0.0,0.0,0.0,0.0,0.0,0.0,0.0,0.0,0.0,0.0,0.0,0.0,0.0,0.0,0.0,0.0,0.0,0.0,0.0,0.0,0.0,0.0,0.0,0.0,0.0,0.0,0.0,0.0,0.0,0.0,0.0,0.0,0.0,0.0,0.0,0.0,0.0,0.0,0.0,0.6985,0.6713,0.6446,0.7178,0.7766,0.7897,0.791,0.9002,1.1565,1.1488,0.0,0.0,0.0,0.0,0.0,0.0,0.0,0.0,0.0,0.0,0.0,0.0,0.0,0.0,0.0,0.0,0.0,0.0,0.0,0.0,0.0,0.0,0.0,0.0,0.0,0.0,0.0,0.0,0.0,0.0,0.0,0.0,0.0,0.0,0.0,0.0,0.0,0.0,0.0,0.0,0.0,0.0,0.0,0.0,0.0,0.0,0.0,0.0,0.0,0.0,0.0,0.0,0.0,0.0,0.0,0.0,0.0,0.0,0.0,0.0,0.0,0.0,0.0,0.0,0.0,0.0,0.0,0.0,0.0,0.0,0.0,0.0,0.0,0.0,0.0,0.0,0.0,0.0,0.0,0.0,0.0,0.0,0.0,0.0,0.0,0.0,0.0,0.0,0.0,0.0,0.0,0.0,0.0,0.0,0.0,0.0,0.0,0.0,0.0,0.0,0.0,0.0,0.729,0.6934,0.7017,0.7436,0.793,0.849,0.9087,1.0386,1.2563,1.3247,0.0,0.0,0.0,0.0,0.0,0.0,0.0,0.0,0.0,0.0,0.0,0.0,0.0,0.0,0.0,0.0,0.0,0.0,0.0,0.0,0.0,0.0,0.0,0.0,0.0,0.0,0.0,0.0,0.0,0.0,0.0,0.0,0.0,0.0,0.0,0.0,0.0,0.0,0.0,0.0,0.0,0.0,0.0,0.0,0.0,0.0,0.0,0.0,0.0,0.0,0.0,0.0,0.0,0.0,0.0,0.0,0.0,0.0,0.0,0.0,0.0,0.0,0.0,0.0,0.0,0.0,0.0,0.0,0.0,0.0,0.0,0.0,0.0,0.0,0.0,0.0,0.0,0.0,0.0,0.0,0.0,0.0,0.0,0.0,0.0,0.0,0.0,0.0,0.0,0.0,0.0,0.0,0.0,0.0,0.0,0.0,0.0,0.0,0.0,0.0,0.0,0.0,0.7307,0.6869,0.0,0.7031,0.7351,0.7699,0.834,0.9743,1.2143,0.0,0.0,0.0,0.0,0.0,0.0,0.0,0.0,0.0,0.0,0.0,0.0,0.0,0.0,0.0,0.0,0.0,0.0,0.0,0.0,0.0,0.0,0.0,0.0,0.0,0.0,0.0,0.0,0.0,0.0,0.0,0.0,0.0,0.0,0.0,0.0,0.0,0.0,0.0,0.0,0.0,0.0,0.0,0.0,0.0,0.0,0.0,0.0,0.0,0.0,0.0,0.0,0.0,0.0,0.0,0.0,0.0,0.0,0.0,0.0,0.0,0.0,0.0,0.0,0.0,0.0,0.0,0.0,0.0,0.0,0.0,0.0,0.0,0.0,0.0,0.0,0.0,0.0,0.0,0.0,0.0,0.0,0.0,0.0,0.0,0.0,0.0,0.0,0.0,0.0,0.0,0.0,0.0,0.0,0.0,0.0,0.0,0.0,0.0,0.0,0.0,0.0,0.8084,0.7321,0.6769,0.0,0.6761,0.6952,0.7301,0.8064,0.9487,1.1753,0.0,0.0,0.0,0.0,0.0,0.0,0.0,0.0,0.0,0.0,0.0,0.0,0.0,0.0,0.0,0.0,0.0,0.0,0.0,0.0,0.0,0.0,0.0,0.0,0.0,0.0,0.0,0.0,0.0,0.0,0.0,0.0,0.0,0.0,0.0,0.0,0.0,0.0,0.0,0.0,0.0,0.0,0.0,0.0,0.0,0.0,0.0,0.0,0.0,0.0,0.0,0.0,0.0,0.0,0.0,0.0,0.0,0.0,0.0,0.0,0.0,0.0,0.0,0.0,0.0,0.0,0.0,0.0,0.0,0.0,0.0,0.0,0.0,0.0,0.0,0.0,0.0,0.0,0.0,0.0,0.0,0.0,0.0,0.0,0.0,0.0,0.0,0.0,0.0,0.0,0.0,0.0,0.0,0.0,0.0,0.0,0.0,0.0,0.0,0.0,0.0,0.0,0.8374,0.731,0.6685,0.6883,0.6715,0.6874,0.7537,0.858,0.9924,0.0,0.0,0.0,0.0,0.0,0.0,0.0,0.0,0.0,0.0,0.0,0.0,0.0,0.0,0.0,0.0,0.0,0.0,0.0,0.0,0.0,0.0,0.0,0.0,0.0,0.0,0.0,0.0,0.0,0.0,0.0,0.0,0.0,0.0,0.0,0.0,0.0,0.0,0.0,0.0,0.0,0.0,0.0,0.0,0.0,0.0,0.0,0.0,0.0,0.0,0.0,0.0,0.0,0.0,0.0,0.0,0.0,0.0,0.0,0.0,0.0,0.0,0.0,0.0,0.0,0.0,0.0,0.0,0.0,0.0,0.0,0.0,0.0,0.0,0.0,0.0,0.0,0.0,0.0,0.0,0.0,0.0,0.0,0.0,0.0,0.0,0.0,0.0,0.0,0.0,0.0,0.0,0.0,0.0,0.0,0.0,0.0,0.0,0.0,0.0,0.0,0.0,0.0,0.8374,0.731,0.6685,0.6883,0.6849,0.6952,0.7294,0.8601,1.0121,1.1816,0.0,0.0,0.0,0.0,0.0,0.0,0.0,0.0,0.0,0.0,0.0,0.0,0.0,0.0,0.0,0.0,0.0,0.0,0.0,0.0,0.0,0.0,0.0,0.0,0.0,0.0,0.0,0.0,0.0,0.0,0.0,0.0,0.0,0.0,0.0,0.0,0.0,0.0,0.0,0.0,0.0,0.0,0.0,0.0,0.0,0.0,0.0,0.0,0.0,0.0,0.0,0.0,0.0,0.0,0.0,0.0,0.0,0.0,0.0,0.0,0.0,0.0,0.0,0.0,0.0,0.0,0.0,0.0,0.0,0.0,0.0,0.0,0.0,0.0,0.0,0.0,0.0,0.0,0.0,0.0,0.0,0.0,0.0,0.0,0.0,0.0,0.0,0.0,0.0,0.0,0.0,0.0,0.0,0.0,0.0,0.0,0.0,0.0,0.0,0.0,0.0,0.0,0.8399,0.731,0.6685,0.6883,0.6833,0.6995,0.7505,0.8553,0.9806,1.1273,0.0,0.0,0.0,0.0,0.0,0.0,0.0,0.0,0.0,0.0,0.0,0.0,0.0,0.0,0.0,0.0,0.0,0.0,0.0,0.0,0.0,0.0,0.0,0.0,0.0,0.0,0.0,0.0,0.0,0.0,0.0,0.0,0.0,0.0,0.0,0.0,0.0,0.0,0.0,0.0,0.0,0.0,0.0,0.0,0.0,0.0,0.0,0.0,0.0,0.0,0.0,0.0,0.0,0.0,0.0,0.0,0.0,0.0,0.0,0.0,0.0,0.0,0.0,0.0,0.0,0.0,0.0,0.0,0.0,0.0,0.0,0.0,0.0,0.0,0.0,0.0,0.0,0.0,0.0,0.0,0.0,0.0,0.0,0.0,0.0,0.0,0.0,0.0,0.0,0.0,0.0,0.0,0.0,0.0,0.0,0.0,0.0,0.0,0.0,0.0,0.0,0.0,0.8587,0.746,0.6828,0.7005,0.6872,0.7129,0.8036,0.8525,0.9264,1.0372,0.0,0.0,0.0,0.0,0.0,0.0,0.0,0.0,0.0,0.0,0.0,0.0,0.0,0.0,0.0,0.0,0.0,0.0,0.0,0.0,0.0,0.0,0.0,0.0,0.0,0.0,0.0,0.0,0.0,0.0,0.0,0.0,0.0,0.0,0.0,0.0,0.0,0.0,0.0,0.0,0.0,0.0,0.0,0.0,0.0,0.0,0.0,0.0,0.0,0.0,0.0,0.0,0.0,0.0,0.0,0.0,0.0,0.0,0.0,0.0,1.3248,0.0,0.0,0.0,0.0,0.0,0.0,0.0,0.0,0.0,0.0,0.0,0.0,0.0,0.0,0.0,0.0,0.0,0.0,0.0,0.0,0.0,0.0,0.0,0.0,0.0,0.0,0.0,0.0,0.0,0.0,0.0,0.0,0.0,0.0,0.0,0.0,0.0,0.0,0.0,0.0,0.0,0.9642,0.8612,0.7957,0.7996,0.7968,0.8016,0.8234,0.8963,0.9785,1.0659,1.2349,0.0,0.0,0.0,0.0,0.0,0.0,0.0,0.0,0.0,0.0,0.0,0.0,0.0,0.0,0.0,0.0,0.0,0.0,0.0,0.0,0.0,0.0,0.0,0.0,0.0,0.0,0.0,0.0,0.0,0.0,0.0,0.0,0.0,0.0,0.0,0.0,0.0,0.0,0.0,0.0,0.0,0.0,0.0,0.0,0.0,0.0,0.0,0.0,0.0,0.0,0.0,0.0,0.0,0.0,0.0,0.0,0.0,0.0,0.0,0.0,1.2857,0.0,0.0,0.0,0.0,0.0,0.0,0.0,0.0,0.0,0.0,0.0,0.0,0.0,0.0,0.0,0.0,0.0,0.0,0.0,0.0,0.0,0.0,0.0,0.0,0.0,0.0,0.0,0.0,0.0,0.0,0.0,0.0,0.0,0.0,0.0,0.0,0.0,0.0,0.0,0.0,0.9968,0.8964,0.8298,0.8298,0.8298,0.8411,0.8661,0.9099,0.965,1.0309,1.1764,0.0,0.0,0.0,0.0,0.0,0.0,0.0,0.0,0.0,0.0,0.0,0.0,0.0,0.0,0.0,0.0,0.0,0.0,0.0,0.0,0.0,0.0,0.0,0.0,0.0,0.0,0.0,0.0,0.0,0.0,0.0,0.0,0.0,0.0,0.0,0.0,0.0,0.0,0.0,0.0,0.0,0.0,0.0,0.0,0.0,0.0,0.0,0.0,0.0,0.0,0.0,0.0,0.0,1.3152,1.2905,1.2905,1.2905,1.2905,1.2876,1.2398,1.248,1.29,0.0,0.0,0.0,0.0,0.0,0.0,0.0,0.0,0.0,0.0,0.0,0.0,0.0,0.0,0.0,0.0,0.0,0.0,0.0,0.0,0.0,0.0,0.0,0.0,0.0,0.9751,0.9936,0.0,0.0,0.0,0.0,0.0,0.0,0.0,0.0,0.0,0.0,0.0,0.0,1.0137,0.9095,0.8418,0.8486,0.8485,0.8693,0.9202,0.9239,0.9428,0.988,1.0584,0.8301,0.0,0.0,0.0,0.0,0.0,0.0,0.0,0.0,0.0,0.0,0.0,0.0,0.0,0.0,0.0,0.0,0.0,0.0,0.0,0.0,0.0,0.0,0.0,0.0,0.0,0.0,0.0,0.0,0.0,0.0,0.0,0.0,1.6331,1.6331,0.0,0.0,0.0,0.0,0.0,0.0,0.0,0.0,0.0,0.0,0.0,0.0,0.0,1.3971,1.3825,1.328,1.3017,1.3017,1.2954,1.2905,1.2905,1.2905,1.2905,1.2876,1.2398,0.0,1.2798,1.1596,0.0,0.0,0.0,0.0,0.0,0.0,0.0,0.0,0.0,0.0,0.0,0.0,0.0,0.0,0.0,0.0,0.0,0.0,0.0,0.0,0.0,0.0,1.0193,0.9735,0.9922,1.0136,0.0,1.0524,1.1217,1.1292,1.2002,0.0,0.0,0.0,0.0,0.0,0.0,0.0,1.0813,0.9613,0.8866,0.9218,0.9257,0.9411,0.9754,0.9792,0.983,0.9893,0.8262,0.821,1.0257,1.2174,0.0,0.0,0.0,0.0,0.0,0.0,0.0,0.0,0.0,0.0,0.0,0.0,0.0,0.0,0.0,0.0,0.0,0.0,0.0,0.0,0.0,0.0,0.0,0.0,0.0,0.0,0.0,0.0,0.0,1.7525,1.7311,1.6111,1.6547,1.6841,0.0,0.0,0.0,0.0,0.0,0.0,0.0,0.0,0.0,1.4937,1.4401,1.3962,1.3625,1.3372,1.3115,1.2905,1.2905,1.2905,1.2905,1.2905,1.2905,1.2871,1.2229,1.2339,1.2837,1.1955,1.2098,1.2881,0.0,0.0,0.0,0.0,1.3792,1.3776,1.3604,1.306,0.0,0.0,0.0,0.0,0.0,0.0,0.0,0.0,0.0,0.0,0.0,0.0,0.0,0.9356,0.959,0.9913,0.999,1.0309,1.0778,0.0,1.1951,1.2391,1.2536,0.0,0.0,0.0,0.0,1.0715,1.0914,1.0118,0.9519,0.9451,0.9654,0.9655,0.9311,0.9699,0.9938,0.9905,0.899,0.9449,1.1639,1.2491,1.3296,0.0,0.0,0.0,0.0,0.0,0.0,0.0,0.0,0.0,0.0,0.0,0.0,0.0,0.0,0.0,0.0,0.0,0.0,0.0,0.0,0.0,0.0,0.0,0.0,0.0,0.0,0.0,0.0,1.7885,1.765,1.6035,1.6586,1.6878,0.0,0.0,0.0,0.0,0.0,0.0,1.4865,1.4824,1.472,1.4568,1.4403,1.4119,1.3672,1.3555,1.335,1.3037,1.2954,1.2964,1.3037,1.3037,1.3096,1.3168,1.2516,1.2553,1.2983,1.2168,1.2258,1.2881,1.2691,1.2715,1.2954,1.3396,1.3576,1.3504,1.3016,1.2861,1.2638,1.1309,0.0,1.1729,1.0745,0.0,0.0,0.0,0.0,1.0303,0.9648,0.9791,1.005,0.9732,0.9801,1.003,1.0371,1.0439,1.0656,0.0,1.1654,1.187,1.2135,0.0,0.0,0.0,0.0,1.0614,1.0753,1.0204,0.9751,0.9546,0.9694,0.9572,0.9021,0.942,0.9664,0.9632,0.9712,1.021,1.1206,1.2234,1.3122,1.3871,0.0,0.0,0.0,0.0,0.0,0.0,0.0,0.0,0.0,0.0,0.0,0.0,0.0,0.0,0.0,0.0,0.0,0.0,0.0,0.0,0.0,0.0,0.0,0.0,0.0,0.0,0.0,0.0,0.0,1.6277,1.644,0.0,0.0,0.0,0.0,1.5632,1.5984,1.5939,1.5309,1.5164,1.5081,1.5076,1.4446,1.4102,1.4075,1.3685,1.3496,1.3477,1.3066,1.3096,1.3477,1.3477,1.3665,1.4026,1.3591,1.3451,1.3336,1.1581,1.1665,1.2832,1.2129,1.2286,1.2905,1.292,1.2954,1.2885,1.2396,1.225,1.2102,1.1114,1.0842,1.0866,1.086,1.0879,0.0,0.0,1.0586,1.0849,1.0829,1.1152,1.1486,1.1465,1.1143,1.0829,1.0849,1.0879,1.0762,0.0,1.0391,1.0546,1.1004,0.0,1.0697,1.1664,1.0576,0.9846,1.0354,0.9623,0.9197,0.9568,0.9214,0.9095,0.9433,0.9094,0.8853,0.8858,0.9222,0.9673,1.025,1.1483,1.2168,1.2222,1.3724,0.0,0.0,0.0,0.0,0.0,0.0,0.0,0.0,0.0,0.0,0.0,0.0,0.0,0.0,0.0,0.0,0.0,0.0,0.0,0.0,0.0,0.0,0.0,0.0,0.0,0.0,0.0,0.0,1.7527,1.7575,0.0,1.7804,1.7317,1.674,1.6038,1.5758,1.5272,1.4579,1.4481,1.458,1.4897,1.4688,1.4551,1.4551,1.4404,1.4189,1.388,1.3734,1.3743,1.389,1.389,1.3968,1.4104,1.3948,1.389,1.3844,1.3199,1.2909,1.2881,1.2618,1.2666,1.2905,1.2905,1.2905,1.2837,1.2359,1.2203,1.2059,1.1315,1.1162,1.1239,1.0839,1.0806,1.0879,1.0732,1.0791,1.0977,1.1271,1.1467,1.1606,1.1606,1.1467,1.1271,1.0967,1.0908,1.0781,1.0381,1.0518,1.0656,1.0565,1.0637,1.0716,1.0815,1.0865,1.0754,1.0384,1.0271,1.0057,0.9641,0.9727,0.9629,0.9221,0.9502,0.9595,0.9328,0.9651,1.009,1.0637,1.1094,1.18,1.2793,1.1455,0.9391,0.0,0.0,0.0,0.0,0.0,0.0,0.0,0.0,0.0,0.0,0.0,0.0,0.0,0.0,0.0,0.0,0.0,0.0,0.0,0.0,0.0,0.0,0.0,0.0,0.0,0.0,1.8551,1.8727,1.8928,1.9095,1.9246,1.8348,1.744,1.6721,1.6154,1.543,1.457,1.4679,1.4844,1.499,1.5,1.5,1.5,1.4882,1.4639,1.4328,1.4182,1.4182,1.4328,1.4328,1.4406,1.4533,1.4387,1.4328,1.4299,1.4016,1.3594,1.3096,1.3096,1.3032,1.2905,1.2905,1.2905,1.2866,1.2549,1.2204,1.1883,1.1607,1.1442,1.129,1.1016,1.1025,1.1154,1.1154,1.1072,1.1072,1.1369,1.1573,1.1677,1.1677,1.174,1.1731,1.1416,1.123,1.1066,1.0792,1.082,1.082,1.0547,1.084,1.1056,1.0782,1.1043,1.1133,1.0781,1.0761,1.0603,1.0079,1.0195,0.999,0.926,0.9564,0.967,0.9419,0.9727,1.0162,1.0708,1.084,1.1422,1.2538,1.0944,0.9664,0.8761,0.0,0.0,0.0,0.0,0.0,0.0,0.0,0.0,0.0,0.0,0.0,0.0,0.0,0.0,0.0,0.0,0.0,0.0,0.0,0.0,0.0,0.0,0.0,1.8223,1.8686,1.9243,1.9766,2.0322,2.045,1.9846,1.9078,1.8344,1.765,1.7251,1.6564,1.5508,1.587,1.5899,1.5449,1.542,1.541,1.541,1.501,1.4833,1.4805,1.4348,1.4367,1.4833,1.4833,1.5019,1.5371,1.4961,1.4775,1.4697,1.3867,1.3516,1.3506,1.3496,1.3242,1.2905,1.2905,1.2905,1.2905,1.2905,1.2268,1.1523,1.2028,1.158,1.0964,1.1441,1.1604,1.1626,1.1626,1.1437,1.1237,1.1232,1.151,1.1839,1.1814,1.201,1.2223,1.2203,1.1885,1.1626,1.1606,1.1252,1.0947,1.0907,1.1289,1.1572,1.1562,1.1012,0.0,1.1443,1.0981,1.0679,1.0863,1.0546,1.0127,0.9708,0.9299,0.9082,0.9082,0.9447,0.9897,1.0425,1.0742,1.1049,1.1317,1.2365,1.2936,1.2976,0.0,0.0,0.0,0.0,0.0,0.0,0.0,0.0,0.0,0.0,0.0,0.0,0.0,0.0,0.0,0.0,0.0,0.0,0.0,0.0,0.0,0.0,1.8768,1.8773,1.9611,2.0192,2.0092,2.0241,2.0165,1.9766,1.9192,1.8522,1.7794,1.7651,1.7226,1.6408,1.6172,1.6036,1.5919,1.5576,1.541,1.541,1.5293,1.5244,1.5234,1.5089,1.5127,1.5244,1.5244,1.5137,1.4951,1.4834,1.4609,1.427,1.4026,1.3753,1.3477,1.3174,1.3013,1.2905,1.2905,1.2905,1.2905,1.2905,1.272,1.2411,1.2044,1.21,1.2215,1.1524,1.1647,1.2051,1.2051,1.1981,1.1879,1.1686,1.2104,1.2452,1.1922,1.226,1.2617,1.2272,1.2106,1.1953,1.1665,1.1728,1.1736,1.1457,1.134,1.1214,1.0929,1.081,0.0,1.0126,1.0204,1.0423,1.0666,1.0572,1.0655,1.1014,1.0948,1.09,1.09,1.0993,1.1134,1.1254,1.1368,1.1579,1.1965,1.2617,1.2791,0.0,0.0,0.0,0.0,0.0,0.0,0.0,0.0,0.0,0.0,0.0,0.0,0.0,0.0,0.0,0.0,0.0,0.0,0.0,0.0,0.0,0.0,1.9899,2.0537,2.1041,2.1455,2.1568,2.1211,2.137,2.1183,2.0402,1.9713,1.9062,1.848,1.8087,1.762,1.7012,1.6582,1.626,1.6105,1.585,1.5596,1.541,1.5596,1.5596,1.541,1.541,1.541,1.5371,1.5234,1.5019,0.0,1.4813,1.4531,1.4104,1.4104,1.386,0.0,0.0,0.0,0.0,0.0,1.2905,1.2905,1.2905,1.2905,1.2832,1.2393,1.2559,1.2783,1.212,1.2173,1.25,1.25,1.2268,1.1986,1.1834,1.2129,1.232,1.1888,1.2369,1.2837,1.2559,1.25,1.2422,1.2181,1.2095,0.0,1.2125,1.1771,1.128,1.075,1.05,1.0297,1.0075,1.0043,1.023,1.0802,1.0849,1.1058,1.155,1.1606,0.0,0.0,0.0,1.1606,1.1606,1.1606,0.0,0.0,0.0,1.2607,1.25,0.0,0.0,0.0,1.3022,1.2405,0.0,0.0,0.0,0.0,0.0,0.0,0.0,0.0,0.0,0.0,0.0,0.0,0.0,0.0,0.0,0.0,2.1782,2.2869,2.3891,2.3592,2.3089,2.2512,2.2815,2.2496,2.1041,2.0156,1.9536,1.9175,1.8428,1.7842,1.7471,0.0,0.0,0.0,0.0,1.588,1.5391,1.5791,1.5791,1.541,1.5361,1.5342,1.5322,1.4902,1.4687,1.4639,1.4639,1.4394,1.3968,1.3968,1.3743,1.3437,1.3437,1.3213,1.2905,1.2905,1.2905,1.2905,1.2905,0.0,0.0,1.2905,1.2905,1.2905,1.2905,1.2905,1.2905,1.2905,1.2427,1.1888,1.1814,1.1864,1.1888,1.1814,1.2369,1.2905,1.2905,1.2905,1.2905,1.2905,1.2295,1.1972,1.2569,1.2064,1.1391,1.0889,1.0167,0.9891,1.0491,1.0064,1.005,1.105,0.0,0.0,1.1716,1.1753,1.1753,1.1753,1.1753,1.1753,1.1753,1.1753,1.1917,1.2272,1.2281,1.2467,1.2905,1.2905,1.2905,1.2895,1.3024,1.2388,0.0,0.0,0.0,0.0,0.0,0.0,0.0,0.0,0.0,0.0,0.0,0.0,0.0,0.0,0.0,2.1719,2.2937,2.3791,2.4128,2.4448,2.401,2.2287,2.1912,2.1051,1.9277,1.8655,1.8325,1.8245,1.811,1.7978,1.7891,1.749,0.0,1.659,1.6281,1.588,1.5391,1.5498,1.5498,1.541,0.0,0.0,1.4893,1.4426,1.4046,1.376,1.376,1.3516,1.3125,1.3125,1.3101,1.3023,1.3023,1.2983,1.2905,1.2905,1.2905,1.2905,1.2905,1.2905,1.2905,1.2905,1.2905,1.2905,1.2905,1.2905,0.0,1.2905,1.2798,1.2559,1.1947,1.2236,1.2535,1.1947,1.2369,1.2905,1.2905,1.2905,1.2905,1.2905,1.2295,1.1665,1.1275,1.0644,1.0346,1.0737,0.9762,0.9035,0.9159,0.9087,0.9488,1.0747,1.0889,1.1368,1.2555,1.2651,1.2651,1.2651,1.2651,1.2651,1.2651,1.2651,1.269,1.2754,1.2754,1.2803,1.2905,1.2905,1.2905,1.2905,1.2928,1.2198,0.0,0.0,0.0,0.0,0.0,0.0,0.0,0.0,0.0,0.0,0.0,1.9159,1.9749,0.0,2.1904,2.3308,2.3875,2.4214,2.454,2.44,2.3709,2.2186,2.1648,2.0755,1.9118,1.8574,1.8144,1.7734,1.7695,1.7607,1.735,1.6963,1.6652,1.6406,1.6212,1.588,1.5391,1.5625,1.5518,1.5098,1.4893,1.4678,1.4443,1.3987,1.3685,1.3506,1.3506,1.3271,1.2925,1.3105,1.332,1.3506,1.3506,1.3252,1.2905,1.2905,1.2905,1.2905,1.2905,1.2905,1.2905,1.2905,1.2905,1.2905,1.2905,1.2905,1.2822,1.2452,1.2608,1.2715,1.1996,1.2344,1.2798,1.2452,1.2642,1.2905,1.2905,1.2905,1.2905,1.2905,1.2039,1.1291,1.1291,1.0192,0.9413,0.9744,0.9237,0.8804,0.8804,0.8804,0.9309,1.0661,1.0788,1.1384,1.2774,1.2905,1.2905,1.2905,1.2905,1.2905,1.2905,1.2905,1.2905,1.2905,1.2905,1.2905,1.2905,1.2905,1.2715,1.2344,1.2353,1.1792,0.0,0.0,0.0,0.0,0.0,0.0,0.0,0.0,1.8339,1.864,1.975,2.0922,2.1675,2.2711,2.376,2.4775,2.463,2.4459,2.4696,2.3775,2.2709,2.1713,2.1429,2.0767,1.9426,1.8818,1.8198,1.7559,1.75,1.7314,1.6853,1.6514,1.6271,1.6105,1.6095,1.588,1.5391,1.5713,1.5498,1.4813,1.4619,1.4355,1.3977,1.3662,1.3467,1.3389,1.3477,1.3359,1.3154,1.3486,1.3802,1.4104,1.4104,1.3695,1.3115,1.3062,1.2974,1.2905,1.2905,1.2905,1.2905,1.2905,1.2964,1.2988,1.2744,1.2832,1.2846,1.2024,1.232,1.2793,1.2255,1.2575,1.3052,1.3105,1.3066,1.3052,1.3105,1.3023,1.2876,1.2831,1.1721,1.0939,1.1341,0.9961,0.8831,0.8982,0.8883,0.8804,0.8804,0.8804,0.9309,1.0661,1.0788,1.1384,1.2774,1.2905,1.2905,1.2905,1.2905,1.2905,1.2905,1.2905,1.2905,1.2905,1.2905,1.2905,1.2905,1.2905,1.2535,1.1789,1.1792,1.1359,1.4063,1.4721,1.5796,1.7015,1.731,1.7539,0.0,0.0,2.1223,2.0551,2.226,2.3689,2.3031,2.3847,2.482,2.541,2.5166,2.4613,2.3806,2.2491,2.1256,2.0234,2.057,2.0462,1.9396,1.8555,1.8037,1.7949,1.7939,1.7754,1.7334,1.7298,1.6907,1.6114,1.6095,1.588,1.5391,1.5088,1.4911,1.4803,1.4014,1.3623,1.3574,1.3525,1.3301,1.2993,1.335,1.3691,1.3968,1.4016,1.4065,1.4104,1.4104,1.4055,1.3919,1.3549,1.3203,1.2905,1.2905,1.2905,1.2905,1.2905,1.3135,1.3233,1.224,1.2623,1.3198,1.2097,1.232,1.2969,1.3229,1.3377,1.3525,1.388,1.3685,1.3545,1.389,1.3408,1.2841,1.2586,1.1592,1.0636,1.0115,0.9335,0.9008,0.9588,0.9185,0.8804,0.8804,0.8804,0.9309,1.0661,1.0788,1.1384,1.2774,1.2905,1.2905,1.2905,1.2905,1.2905,1.2905,1.2905,1.2905,1.2905,1.2905,1.2905,1.2905,1.2905,1.2535,1.1789,1.1789,1.1116,1.3939,1.5177,1.6765,1.7225,1.8065,1.9007,1.9798,2.1106,2.2134,2.2097,2.3196,2.4136,2.4098,2.4713,2.517,0.0,2.439,2.3679,2.2444,2.126,2.0199,1.9265,1.9178,1.9013,1.858,1.8223,1.7803,1.7272,1.7233,1.708,1.6672,1.6367,1.6064,1.5693,1.5478,1.5352,1.541,1.5,1.4813,1.4813,1.4424,1.4121,1.3841,1.319,1.2562,1.2006,1.2802,1.3403,1.3858,1.4319,1.4658,1.4855,1.4855,1.4699,1.4463,1.4007,1.3734,1.3613,1.3613,1.3294,1.2894,1.2894,1.2697,1.235,1.1892,1.2058,1.227,1.1409,1.1662,1.214,1.1918,1.2151,1.2618,1.3267,1.3265,1.3324,1.3958,1.3831,1.3378,1.2646,1.18,1.0913,0.9973,0.9237,0.891,0.9185,0.8982,0.8804,0.8804,0.9133,0.9891,1.1241,1.1758,1.2255,1.2856,1.2905,1.2905,1.2905,1.2905,1.2905,1.2905,1.2905,1.2905,1.2905,1.2905,1.2905,1.2905,1.2905,1.2535,1.1789,1.1391,1.072,1.4021,1.5621,0.0,1.7627,1.9112,2.0639,2.1245,2.2398,2.3386,2.3545,2.4102,2.4594,2.4576,2.4908,2.495,2.4253,2.3549,2.2736,2.1715,2.0317,1.916,1.85,1.7954,1.7607,1.748,1.7588,1.7369,1.6746,1.6697,1.6502,1.6114,1.5791,1.5537,1.5391,1.5117,1.5107,1.541,1.5,1.4813,1.4813,1.4658,1.4297,1.3736,1.2734,1.2091,1.1828,1.2699,1.3335,1.3818,1.4639,1.5205,1.5586,1.5586,1.541,1.5098,1.4523,1.4105,1.3782,1.3782,1.325,1.2584,1.2584,1.2256,1.1837,1.1515,1.164,1.1724,1.0929,1.1174,1.162,1.1249,1.1521,1.2084,1.2759,1.3024,1.3286,1.3986,1.3935,1.3528,1.2699,1.1783,1.0833,0.9809,0.9169,0.8804,0.8804,0.8804,0.8804,0.8804,0.9387,1.0244,1.1391,1.2163,1.2691,1.2881,1.2905,1.2905,1.2905,1.2905,1.2905,1.2905,1.2905,1.2905,1.2905,1.2905,1.2905,1.2905,1.2905,1.2535,1.1789,1.1291,1.0618,1.4117,1.5771,1.7433,1.8404,2.0456,2.2385,2.2907,2.4567,2.5756,2.4918,2.5445,2.5607,2.4261,2.4042,2.4042,2.401,2.2895,2.2046,2.1989,1.9723,1.8057,1.8037,1.7252,1.6602,0.0,1.6514,1.6726,1.6697,1.6697,1.6502,1.6114,1.6085,1.588,1.542,1.54,1.54,1.541,1.5,1.4813,1.4775,1.4328,1.3711,1.2922,1.2089,1.2159,1.2965,1.3395,1.3805,1.4255,1.506,1.5654,1.6075,1.6075,1.6065,1.5955,1.5164,1.4053,1.295,1.295,1.241,1.1727,1.1727,1.2036,1.2157,1.1062,1.1508,1.2149,1.1033,1.1174,1.1817,1.2249,1.2376,1.2488,1.2893,1.3295,1.3688,1.4125,1.3544,1.2864,1.2641,1.1368,1.0097,0.9356,0.8991,0.8804,0.8804,0.8804,0.8804,0.8804,0.9387,1.0064,1.0762,1.1441,1.2129,1.2847,1.2905,1.2905,1.2905,1.2905,1.2905,1.2905,1.2905,1.2905,1.2905,1.2905,1.2905,1.2905,1.2905,1.2535,1.1789,1.1789,1.1065,1.4716,1.689,1.9417,2.0384,2.2308,2.4217,2.5134,2.5889,2.6191,2.5607,2.4754,2.3872,2.3067,2.2598,2.2259,2.1995,2.217,2.1922,2.0775,1.9847,1.8731,1.7298,1.6872,0.0,0.0,0.0,0.0,1.6309,1.6562,1.6502,1.6114,1.6095,1.5889,1.542,1.5146,1.5127,1.541,1.5,1.4922,1.5195,1.4496,1.3652,1.2672,1.2051,1.1503,1.114,1.201,1.2794,1.3463,1.4264,1.5179,1.6095,1.6095,1.625,1.6371,1.529,1.4241,1.3322,1.3055,1.2422,1.1766,1.1766,1.1518,1.1124,1.0741,1.0906,1.1124,1.0741,1.0798,1.1045,1.1367,1.1485,1.1691,1.259,1.2906,1.3204,1.3854,1.3588,1.2989,1.2209,1.1456,1.066,0.9702,0.9264,0.9004,0.8838,0.8804,0.8956,0.9413,0.9666,1.0244,1.1341,1.1665,1.2104,1.2847,1.2905,1.2905,1.2905,1.2905,1.2905,1.2905,1.2905,1.2905,1.2905,1.2905,1.2905,1.2905,1.2905,1.2774,1.2535,1.203,1.1316,1.593,1.8444,2.1195,2.212,2.4047,2.5837,2.6386,2.6185,2.5681,2.4972,2.345,2.2021,2.1313,2.0717,2.0302,2.0229,2.0346,2.0258,1.9641,1.8958,1.8157,1.7086,1.6794,1.6473,0.0,0.0,0.0,1.6124,1.6484,1.6602,1.6318,1.6299,1.6103,1.5654,1.541,1.5303,1.541,1.5146,1.5042,1.513,1.4136,1.3229,1.2437,1.1792,1.1069,1.0349,1.1809,1.2726,1.3299,1.4583,1.5664,1.6533,1.616,1.6195,1.6243,1.4839,1.3883,1.322,1.2741,1.205,1.1397,1.1481,1.1142,1.0767,1.0868,1.0901,1.0901,1.0901,1.0901,1.0915,1.1096,1.1149,1.1323,1.2062,1.2477,1.2848,1.3369,1.3287,1.2898,1.2098,1.1467,1.0797,0.9975,0.9477,0.9144,0.8964,0.8871,0.8956,0.9387,0.9439,0.9865,1.0965,1.1291,1.1724,1.2452,1.2749,1.2905,1.2905,1.2905,1.2905,1.2905,1.2905,1.2905,1.2905,1.2905,1.2905,1.2905,1.2905,1.2905,1.2881,1.2403,1.1823,1.7733,2.0378,2.2708,2.3656,2.5601,2.7178,2.6663,2.5611,2.4456,2.3288,2.176,2.0277,0.0,0.0,1.8331,1.8858,1.7822,1.7394,1.8696,1.7377,1.6568,0.0,0.0,0.0,0.0,0.0,0.0,1.6261,0.0,1.6755,1.6736,1.6755,1.6572,1.6105,1.6095,1.588,1.5391,1.5371,1.513,1.4684,1.3336,1.2543,1.2216,1.1397,1.0855,1.0721,1.2719,1.3553,1.3688,1.5769,1.6886,1.7166,1.6248,1.588,1.5654,1.3947,1.3072,1.2647,1.1985,1.1276,1.068,1.0922,1.1015,1.1062,1.1309,1.1389,1.1389,1.1389,1.1389,1.1395,1.1409,1.1415,1.1415,1.1429,1.2086,1.2664,1.2664,1.2657,1.2572,1.2239,1.1347,1.0519,1.0187,0.9637,0.9251,0.9237,0.8991,0.8824,0.8811,0.8804,0.9061,0.9788,1.0415,1.1091,1.1789,1.251,1.2905,1.2905,1.2905,1.2905,1.2905,1.2905,1.2905,1.2905,1.2905,1.2905,1.2905,1.2905,1.2905,1.2905,1.2905,1.2501,1.9593,2.198,2.4269,2.6097,2.6931,2.7243,2.714,2.5586,2.3889,2.2812,2.0896,1.9244,0.0,0.0,0.0,1.8113,1.849,0.0,1.8664,1.8563,0.0,1.789,0.0,1.7686,1.7686,1.7935,0.0,0.0,1.7793,1.7549,1.7236,1.7519,1.7187,1.6124,1.6095,1.588,1.5391,1.5055,1.4832,1.4684,1.3336,1.2669,1.2546,1.1681,1.1156,1.0993,1.2439,1.2891,1.2724,1.4895,1.5596,1.5265,1.5737,1.5702,1.52,1.3797,1.3242,1.2977,1.1898,1.1363,1.1216,1.1289,1.1316,1.1295,1.1369,1.1389,1.1389,1.1389,1.1389,1.1442,1.1697,1.1757,1.181,1.2031,1.2258,1.2403,1.2403,1.2267,1.2081,1.1998,1.1391,1.0821,1.0526,1.014,0.979,0.9599,0.9291,0.9024,0.8838,0.8804,0.9237,1.0415,1.0686,1.13,1.251,1.2798,1.2905,1.2905,1.2905,1.2905,1.2905,1.2905,1.2905,1.2905,1.2905,1.2905,1.2905,1.2905,1.2905,1.2905,1.2905,1.2501,2.1578,2.3641,2.5363,2.6998,2.7358,2.7065,2.6063,2.4318,2.2539,2.1169,1.952,1.8145,1.7618,1.7033,0.0,0.0,0.0,0.0,1.7605,1.7945,1.8025,0.0,1.7736,0.0,1.7171,1.7325,1.7533,0.0,1.7849,1.7881,1.7925,1.7697,1.7292,1.668,1.6672,1.6436,1.5966,1.5061,1.4603,1.4612,1.3207,1.2445,1.2345,1.1825,1.1463,1.1263,0.0,1.3538,1.3431,1.5232,1.5757,1.5403,1.5057,1.4763,1.4399,1.3286,1.2871,1.2742,1.2041,1.1775,1.179,1.1663,1.1331,1.1071,1.1629,1.1485,1.1223,1.1669,1.1775,1.1877,1.2214,1.2194,1.2131,1.2469,1.2398,1.2305,1.2305,1.2178,1.206,1.1933,1.1396,1.0942,1.0807,1.0698,1.0467,0.9952,0.9812,0.9583,0.9045,0.9143,0.9413,0.9865,1.0712,1.145,1.195,1.2544,1.2905,1.2905,1.2905,1.2905,1.2905,1.2905,1.3017,1.3286,1.3041,1.3041,1.3286,1.3041,1.2905,1.2905,1.2905,1.2501,2.3579,2.5344,2.6322,2.7298,2.7331,2.6615,2.4481,2.2644,2.0896,1.9246,1.8075,1.72,1.6609,1.6057,1.5668,1.565,0.0,1.507,1.627,1.6535,1.6783,1.727,1.7412,1.7203,1.6483,1.6253,1.6354,1.6743,1.7192,1.7757,1.8533,1.7623,1.72,1.7379,1.7334,1.7119,1.6707,1.5251,1.454,1.4555,1.3028,1.2191,1.202,1.198,1.1764,1.1565,0.0,0.0,1.4502,1.5861,1.6271,1.5929,1.4322,1.3666,1.3477,1.2606,1.2325,1.2351,1.2318,1.2305,1.2258,1.2047,1.1374,1.0828,1.1808,1.1583,1.1174,1.193,1.2247,1.2432,1.277,1.2623,1.2425,1.2723,1.2556,1.2305,1.2305,1.2305,1.2225,1.2013,1.1484,1.1049,1.1049,1.1139,1.0964,1.0265,1.0408,1.0317,0.9487,0.9548,0.9491,0.8982,1.0559,1.1466,1.0965,1.2147,1.2905,1.2905,1.2905,1.2905,1.2905,1.2905,1.3152,1.3661,1.3176,1.3152,1.3684,1.3152,1.2905,1.2905,1.2905,1.2559,2.5367,2.6924,2.785,2.8487,2.7607,2.6185,2.4393,2.2311,0.0,1.8653,1.7785,1.7151,1.6599,1.6022,1.5699,1.5909,1.5668,1.5766,1.6545,1.6284,1.6733,0.0,1.7452,1.6975,1.8364,0.0,0.0,0.0,0.0,1.674,1.8257,1.7857,1.753,1.7389,1.7031,1.6775,1.6697,1.5251,1.4629,1.4896,1.3135,1.2405,1.2623,1.2375,1.2064,1.1881,1.3264,0.0,1.2875,1.4704,1.4651,1.3492,1.3631,1.3402,1.2903,1.2466,1.2496,1.267,1.2385,1.2305,1.2291,1.2245,1.2115,1.1857,1.1267,1.1502,1.1937,1.1523,1.2012,1.2777,1.3053,1.2899,1.2723,1.277,1.2556,1.2305,1.2305,1.2305,1.2285,1.2238,1.175,1.1315,1.1315,1.0992,1.0662,1.0544,1.0888,1.0981,1.0493,0.9588,0.9133,0.9588,1.044,1.1166,1.1591,1.2403,1.2905,1.2905,1.2905,1.2905,1.2905,1.2905,1.2954,1.3065,1.2954,1.2954,1.3065,1.2954,1.2905,1.2905,1.2905,1.2822,2.6036,2.7299,2.7735,2.8002,2.6829,2.5021,2.2774,0.0,0.0,1.7597,1.7104,1.6816,1.6552,1.6008,0.0,1.5349,1.4967,1.4954,1.5615,1.588,0.0,1.7171,1.6779,1.6457,0.0,0.0,0.0,0.0,0.0,1.5772,1.7863,1.7898,1.7579,1.7013,1.7437,1.7691,1.7691,1.6166,1.5408,1.5399,1.3482,1.2643,1.277,1.2438,1.2398,1.264,1.3577,0.0,1.3582,1.4508,1.4419,1.3698,1.3349,1.313,1.2933,1.2472,1.2529,1.2737,1.2405,1.2305,1.2305,1.2305,1.1959,1.1545,1.1583,1.1545,1.1533,1.1715,1.2278,1.2817,1.2965,1.2898,1.2784,1.2784,1.2556,1.2305,1.2305,1.2305,1.2305,1.2305,1.1824,1.1389,1.1389,1.1288,1.1226,1.1226,1.1647,1.1903,1.1707,1.0809,1.0106,0.9836,1.0389,1.0939,1.1266,1.1931,1.2476,1.2881,1.2905,1.2905,1.2905,1.2905,1.3041,1.3348,1.3065,1.3065,1.3372,1.3065,1.2905,1.2905,1.2905,1.252,2.6137,2.7296,2.7413,2.719,2.5774,2.3791,2.127,1.9396,1.7877,1.6722,1.6595,1.6637,1.6522,1.5898,1.5288,0.0,1.42,1.4022,1.482,1.5242,1.5547,0.0,1.5849,0.0,0.0,0.0,0.0,0.0,0.0,0.0,1.7059,1.7713,1.7687,1.6864,1.7995,1.8492,1.8305,1.6835,1.5893,1.551,1.3737,1.2918,1.2965,1.2632,1.2759,1.3233,1.375,0.0,0.0,1.4333,1.4348,1.4298,1.3263,1.3033,1.324,1.2692,1.2685,1.2924,1.2525,1.2398,1.2385,1.2325,1.1768,1.1242,1.1805,1.1583,1.1248,1.1882,1.2414,1.2811,1.2945,1.2931,1.2864,1.2797,1.2556,1.2305,1.2305,1.2305,1.2305,1.2305,1.1877,1.1462,1.1402,1.1533,1.1667,1.1779,1.2312,1.271,1.2801,1.2255,1.1474,1.047,1.0761,1.0889,1.061,1.1475,1.2163,1.2437,1.2725,1.2832,1.2666,1.2822,1.3128,1.36,1.3152,1.3128,1.3624,1.3128,1.2905,1.2905,1.2905,1.223,2.5898,2.7264,2.7799,2.6804,2.4895,2.2794,2.1094,0.0,1.7891,1.6721,1.69,1.7076,1.6595,1.5567,1.489,1.5185,0.0,1.3939,1.5176,1.4245,1.4312,1.6598,0.0,0.0,0.0,0.0,0.0,0.0,0.0,0.0,1.534,1.7187,1.8075,1.7602,1.8237,1.8199,1.7324,1.6209,1.5338,1.4711,1.3664,1.3307,1.3507,1.322,1.316,1.3206,1.3259,0.0,0.0,1.3433,1.348,1.3649,1.328,1.3347,1.3527,1.3247,1.3273,1.344,1.2945,1.2744,1.2697,1.2392,1.2224,1.1996,1.1205,1.1502,1.2055,1.1478,1.2024,1.2911,1.338,1.3367,1.3093,1.2851,1.2556,1.2305,1.2305,1.2305,1.2305,1.2305,1.2044,1.1744,1.1435,1.1229,1.1238,1.1723,1.245,1.3113,1.3471,1.3193,1.2771,1.2306,1.1922,1.1216,0.9987,1.1667,1.228,1.1074,1.2181,1.2608,1.1922,1.2535,1.2929,1.2968,1.2929,1.2929,1.2968,1.2929,1.2905,1.2905,1.2905,1.2476,2.4585,2.5967,2.6601,2.6099,2.4268,2.2196,2.0526,0.0,1.7054,1.6581,1.668,1.6752,1.6531,1.5511,1.4742,1.4909,0.0,0.0,1.4121,1.3539,1.3582,1.5066,1.4408,0.0,0.0,0.0,0.0,0.0,0.0,0.0,1.6403,1.6737,1.6881,1.6812,1.7839,1.8238,1.7855,1.7038,1.6062,1.5023,1.3936,1.3493,1.3593,1.3307,1.3407,1.3728,1.3547,0.0,0.0,1.3788,1.3808,1.3881,1.3547,1.3647,1.3854,1.3387,1.3353,1.3513,1.2991,1.2904,1.2973,1.271,1.2699,1.2702,1.1914,1.1996,1.2251,1.1952,1.2433,1.3039,1.3093,1.316,1.3133,1.2857,1.2697,1.2556,1.2338,1.2305,1.2305,1.2305,1.2064,1.1866,1.171,1.1303,1.14,1.2593,1.2894,1.3223,1.3879,1.3636,1.2984,1.1894,1.1062,1.0542,1.0415,1.0779,1.0981,1.0813,1.1708,1.2104,1.1814,1.2501,1.2905,1.2905,1.2905,1.2905,1.2905,1.2905,1.2905,1.2905,1.2905,1.228,2.2538,2.4064,2.4856,2.4591,2.3144,2.143,1.9911,0.0,1.65,1.65,1.65,1.6457,1.6259,1.5399,1.4629,1.4468,0.0,1.2652,1.3408,1.3246,1.3342,0.0,0.0,0.0,0.0,0.0,0.0,0.0,0.0,0.0,0.0,1.6365,1.6442,1.6511,1.7368,1.7687,1.7415,1.6925,1.605,1.4783,1.409,1.3733,1.3726,1.3561,1.3694,1.4075,0.0,0.0,0.0,1.4088,1.4088,1.4068,1.3854,1.3901,1.4035,1.3621,1.3601,1.366,1.3186,1.3153,1.3287,1.3025,1.3033,1.3133,1.2705,1.2572,1.2572,1.2572,1.2879,1.318,1.3085,1.3046,1.3066,1.3019,1.2844,1.2623,1.2496,1.2365,1.2305,1.2305,1.2138,1.2007,1.1919,1.1558,1.1743,1.3188,1.3237,1.3369,1.4103,1.3841,1.3102,1.1782,1.0687,1.014,1.0322,1.0169,1.0141,1.0192,1.1015,1.1416,1.1216,1.1891,1.2289,1.2289,1.2461,1.2559,1.2584,1.2798,1.2905,1.2905,1.2905,1.2157,1.9674,2.151,2.2767,2.2094,2.1308,2.0427,1.9259,1.7704,1.65,1.65,1.65,1.6315,1.572,1.5096,1.4491,1.3909,1.33,0.0,1.3447,1.3433,0.0,0.0,0.0,0.0,0.0,0.0,0.0,0.0,0.0,0.0,0.0,1.6157,1.7285,1.7285,1.6931,1.6269,1.5338,1.5178,1.4636,1.3606,1.3941,1.4082,1.4082,1.4082,1.4082,0.0,0.0,0.0,0.0,1.4088,1.4088,1.4088,1.4082,1.4082,1.4088,1.4082,1.4082,1.4041,1.37,1.3593,1.3547,1.326,1.3206,1.3213,1.32,1.32,1.32,1.32,1.3206,1.3273,1.352,1.3193,1.2938,1.3453,1.2914,1.2385,1.2717,1.2549,1.2305,1.2305,1.2298,1.2204,1.1953,1.1899,1.2235,1.326,1.341,1.3593,1.4139,1.3841,1.3283,1.248,1.1362,1.0292,0.9314,1.0177,1.0244,0.891,1.0064,1.0517,0.984,1.0466,1.0813,1.0813,1.1466,1.1814,1.1814,1.2535,1.2905,1.2905,1.2905,1.2157,1.7618,1.8777,1.9806,2.0275,1.9658,1.884,1.8534,1.744,1.65,1.65,1.65,1.6315,1.5698,1.5096,1.4491,1.3909,1.3286,0.0,0.0,0.0,0.0,0.0,0.0,0.0,0.0,0.0,0.0,0.0,0.0,0.0,0.0,1.6642,1.656,1.7302,1.7178,1.696,1.6685,1.5914,1.4986,1.3948,1.4041,1.4088,1.4088,1.4088,0.0,0.0,0.0,0.0,0.0,1.4088,1.4088,1.4088,1.4088,1.4088,1.4088,1.4088,1.4088,1.4041,1.3706,1.3733,1.3901,1.356,1.3641,1.3808,1.3808,1.3527,1.3213,1.3213,1.3213,1.328,1.3527,1.346,1.3353,1.3347,1.3133,1.2832,1.2512,1.2365,1.2305,1.2305,1.2305,1.2271,1.2178,1.2564,1.315,1.4011,1.3794,1.359,1.3755,1.2958,1.2072,1.1276,1.0625,1.0258,1.0229,1.0107,0.9862,0.9434,1.0068,1.0364,1.0158,1.0568,1.0788,1.0788,1.1466,1.1789,1.1789,1.2535,1.2746,1.2479,1.2016,1.1404,1.5683,1.6616,1.7546,1.8113,1.8014,1.7761,1.7554,1.6983,1.65,1.65,1.65,1.625,1.541,1.4949,1.4433,1.36,1.3152,1.2895,0.0,0.0,0.0,0.0,0.0,0.0,0.0,0.0,0.0,0.0,0.0,0.0,0.0,1.7245,1.6879,1.6683,1.6281,1.6083,1.6083,1.5428,1.4776,1.4088,1.4088,1.4088,1.4088,1.4088,0.0,0.0,0.0,0.0,0.0,1.4088,1.4088,1.4088,1.4088,1.4088,1.4088,1.4088,1.4088,1.4062,1.3874,1.3935,1.4055,1.3874,1.3935,1.4088,1.4088,1.3754,1.3333,1.3333,1.3293,1.328,1.3527,1.352,1.3447,1.3534,1.328,1.2959,1.2705,1.2465,1.2305,1.2305,1.2305,1.2305,1.2305,1.2652,1.3154,1.3858,1.3636,1.333,1.3092,1.2543,1.1745,1.0708,1.0488,1.0506,1.0641,1.0064,0.9715,0.9715,0.9925,1.0007,0.9885,1.0079,1.0142,1.0038,1.0939,1.1511,1.1685,1.2815,1.3221,1.2971,1.1977,1.1386,0.0,1.4961,1.586,1.5769,1.6415,1.6931,1.6443,1.6384,0.0,1.65,1.65,1.6129,1.4926,1.4698,1.4294,1.3089,1.2925,0.0,0.0,0.0,0.0,0.0,0.0,0.0,0.0,0.0,0.0,0.0,0.0,0.0,0.0,1.777,1.7859,1.5662,1.4692,1.4208,1.4208,1.413,1.4088,1.4088,1.4088,1.4088,1.4088,1.4088,0.0,0.0,0.0,0.0,0.0,1.4088,1.4088,1.4088,1.4088,1.4088,1.4088,1.4088,1.4088,1.4088,1.4088,1.4088,1.4088,1.4088,1.4088,1.4088,1.4088,1.3881,1.36,1.36,1.3393,1.328,1.3527,1.3387,1.3347,1.3895,1.3407,1.2857,1.3086,1.2705,1.2305,1.2305,1.2305,1.2305,1.2305,1.2378,1.257,1.3067,1.3142,1.2898,1.2342,1.2439,1.209,1.0776,1.0847,1.0888,1.0613,1.009,0.9775,0.9775,0.9755,0.9593,0.9284,0.9231,0.9098,0.8871,1.0185,1.1138,1.1692,1.3254,1.4007,1.3928,1.2519,1.1832,1.3993,0.0,1.3761,1.4188,1.4457,1.4836,0.0,1.5794,1.593,0.0,0.0,0.0,0.0,1.4698,1.4294,1.3089,1.3154,1.3176,0.0,0.0,0.0,0.0,0.0,0.0,0.0,0.0,0.0,0.0,0.0,0.0,0.0,1.7415,1.6731,1.4531,1.5019,1.5338,1.5338,1.4489,1.4088,1.4088,1.4088,1.4088,1.4088,1.4088,0.0,0.0,0.0,0.0,1.4088,1.4088,1.4088,1.4088,1.4088,1.4088,1.4088,1.4088,1.4088,1.4088,1.4088,1.4088,1.4088,1.4088,1.4088,1.4088,1.4088,1.3881,1.36,1.36,1.3393,1.328,1.3527,1.3387,1.3247,1.338,1.3112,1.2744,1.2552,1.2405,1.2305,1.2305,1.2305,1.2305,1.2305,1.2915,1.3397,1.3533,1.3388,1.3207,1.3043,1.2092,1.1273,1.0941,1.0787,1.0667,1.06,1.0466,1.0385,1.0385,1.014,0.998,0.9884,0.9451,0.9284,0.9472,1.0914,1.2259,1.3487,1.3285,1.3056,1.278,1.1773,1.1152,1.3886,1.3552,1.3324,1.3372,1.36,1.398,1.463,1.5197,1.5698,0.0,0.0,0.0,0.0,0.0,0.0,0.0,1.3359,0.0,0.0,0.0,0.0,0.0,0.0,0.0,0.0,0.0,0.0,0.0,0.0,0.0,0.0,1.7302,1.6322,1.4173,1.465,1.4977,1.4977,1.4412,1.4088,1.4088,1.4088,1.4088,1.4088,1.4088,1.4088,0.0,0.0,0.0,1.4088,1.4088,1.4088,1.4088,1.4088,1.4088,1.4088,1.4088,1.4088,1.4088,1.4088,1.4088,1.4088,1.4088,1.4088,1.4088,1.4088,1.3881,1.36,1.36,1.3493,1.3373,1.34,1.3387,1.3333,1.324,1.3012,1.2737,1.2576,1.2398,1.2305,1.2305,1.2305,1.2305,1.2305,1.2732,1.3062,1.3062,1.2913,1.2792,1.265,1.1937,1.1323,1.1022,1.0888,1.0734,1.06,1.0593,1.0593,1.0593,1.0439,1.0261,1.0127,0.9777,0.979,1.0157,1.1129,1.2179,1.3311,1.3057,1.2843,1.266,1.1805,1.1252,1.3815,1.3792,1.3661,1.3065,1.3286,1.3708,1.3897,1.4732,0.0,0.0,0.0,0.0,0.0,1.4629,0.0,0.0,0.0,0.0,0.0,0.0,0.0,0.0,0.0,0.0,0.0,0.0,0.0,0.0,0.0,0.0,0.0,1.7455,1.6486,1.4173,1.425,1.423,1.4021,1.4062,1.4088,1.4088,1.4088,1.4062,1.4021,1.4021,1.4021,0.0,0.0,0.0,1.4088,1.4088,1.4208,1.4328,1.4328,1.4328,1.4328,1.4328,1.425,1.4088,1.4088,1.4088,1.4088,1.4088,1.4088,1.4088,1.4088,1.3908,1.3666,1.3666,1.3606,1.35,1.3387,1.3427,1.3413,1.326,1.2978,1.2717,1.2717,1.2516,1.2305,1.2305,1.2305,1.2305,1.2305,1.2305,1.2305,1.2305,1.2305,1.2211,1.2,1.1933,1.1698,1.1116,1.1015,1.0875,1.062,1.0593,1.0593,1.0593,1.0593,1.0459,1.0097,1.016,1.0364,1.0789,1.1182,1.1741,1.2504,1.271,1.2826,1.2787,1.1989,1.144,1.3933,1.3792,1.3661,1.3065,1.2978,1.332,1.434,1.4698,1.513,0.0,0.0,0.0,0.0,1.4283,1.383,0.0,0.0,0.0,0.0,0.0,0.0,0.0,0.0,0.0,0.0,0.0,0.0,0.0,0.0,0.0,0.0,1.823,1.7293,1.4208,1.4977,1.4884,1.3673,1.3961,1.4088,1.4088,1.4088,1.3955,1.3666,1.3666,1.3666,0.0,0.0,1.3854,1.4088,1.4088,1.4657,1.5455,1.5455,1.5455,1.5455,1.5455,1.4894,1.4088,1.4088,1.4088,1.4088,1.4088,1.4088,1.4088,1.4088,1.4055,1.4021,1.4021,1.3661,1.338,1.3834,1.342,1.2978,1.316,1.2779,1.2371,1.2371,1.2338,1.2305,1.2305,1.2305,1.2305,1.2305,1.2305,1.2305,1.2305,1.2305,1.2285,1.2238,1.206,1.1772,1.1396,1.1142,1.0875,1.062,1.0593,1.0593,1.0593,1.0593,1.0459,1.0097,1.0354,1.0736,1.1204,1.1556,1.2127,1.2896,1.2304,1.1981,1.195,1.117,1.0612,1.3406,1.331,1.3238,1.2978,1.2905,1.3041,1.361,1.4224,1.4869,0.0,0.0,0.0,0.0,0.0,0.0,0.0,0.0,0.0,0.0,0.0,0.0,0.0,0.0,0.0,0.0,0.0,0.0,0.0,0.0,0.0,0.0,0.0,1.5848,1.3883,1.4324,1.4255,1.3606,1.374,1.3848,1.3848,1.3687,1.3627,1.36,1.344,1.3453,1.36,0.0,1.3773,1.413,1.4734,1.4894,1.4894,1.5455,1.5338,1.4852,1.4852,1.4531,1.4088,1.4088,1.4088,1.4088,1.4088,1.4088,1.4088,1.4088,1.4088,1.4088,1.4088,1.3895,1.3674,1.3627,1.3307,1.2953,1.2766,1.2505,1.2305,1.2305,1.2305,1.2305,1.2305,1.2305,1.2351,1.2549,1.2583,1.2583,1.2583,1.2583,1.2485,1.2325,1.2087,1.1852,1.1683,1.1403,1.1109,1.0854,1.0827,1.076,1.06,1.0593,1.0526,1.0392,1.0519,1.0782,1.1136,1.1146,1.1406,1.1921,1.1406,1.1132,1.1139,1.0776,1.0432,1.2905,1.2905,1.2905,1.2905,1.2905,1.2978,1.3333,1.4125,1.4958,0.0,0.0,0.0,0.0,0.0,0.0,0.0,0.0,0.0,0.0,0.0,0.0,0.0,0.0,0.0,0.0,0.0,0.0,0.0,0.0,0.0,0.0,0.0,1.442,1.3534,1.35,1.3467,1.3393,1.3393,1.3427,1.35,1.3313,1.3327,1.3493,1.3273,1.3367,1.36,1.3533,1.3748,1.4166,1.4892,1.4906,1.4573,1.5379,1.522,1.4454,1.4208,1.4088,1.4088,1.4088,1.4088,1.4088,1.4088,1.4088,1.4088,1.4088,1.4041,1.3981,1.3981,1.3981,1.3881,1.3427,1.3153,1.2899,1.2498,1.2351,1.2305,1.2305,1.2305,1.2305,1.2305,1.2305,1.2398,1.273,1.2723,1.2703,1.277,1.2723,1.2596,1.2331,1.2104,1.198,1.1913,1.1663,1.1383,1.1022,1.0995,1.0902,1.0707,1.0693,1.0667,1.0593,1.066,1.0801,1.0989,1.074,1.0734,1.0995,1.0734,1.0593,1.0593,1.0593,1.0432,1.2905,1.2905,1.2905,1.2905,1.2905,1.3259,1.462,1.5013,1.5687,1.7879,0.0,0.0,0.0,0.0,0.0,0.0,0.0,0.0,0.0,0.0,0.0,0.0,0.0,0.0,0.0,0.0,0.0,0.0,0.0,0.0,0.0,0.0,0.0,1.324,1.324,1.3106,1.2851,1.2851,1.2998,1.324,1.322,1.322,1.324,1.322,1.3367,1.3586,1.336,1.3567,1.4068,1.387,1.4475,1.5579,1.5662,1.5655,1.5455,1.4454,1.4088,1.4088,1.4088,1.4088,1.4088,1.4088,1.4088,1.4088,1.4088,1.3895,1.3633,1.3633,1.3633,1.3626,1.358,1.2954,1.2425,1.2697,1.2543,1.2305,1.2305,1.2305,1.2305,1.2305,1.2305,1.2398,1.273,1.2556,1.2425,1.2744,1.2549,1.2325,1.2305,1.2285,1.2171,1.1933,1.1886,1.1645,1.1042,1.0995,1.0982,1.0962,1.0962,1.0874,1.06,1.0854,1.0969,1.0995,1.074,1.0734,1.0995,1.0734,1.0593,1.0593,1.0593,1.0432,1.2905,1.2905,1.2905,1.2905,1.2905,1.318,1.4224,1.5008,1.5642,1.628,1.6484,0.0,0.0,0.0,0.0,0.0,0.0,0.0,0.0,0.0,0.0,0.0,0.0,0.0,0.0,0.0,0.0,0.0,0.0,0.0,0.0,0.0,0.0,1.2951,1.2958,1.2904,1.2784,1.2784,1.275,1.2645,1.2645,1.2746,1.2958,1.2958,1.3086,1.3367,1.326,1.354,1.4146,1.4479,1.4693,1.4692,1.4692,1.4692,1.465,1.425,1.4088,1.4088,1.4088,1.4088,1.4088,1.4088,1.4088,1.4088,1.4088,1.4008,1.3881,1.3653,1.3473,1.3327,1.314,1.2979,1.2799,1.2532,1.2385,1.2305,1.2305,1.2305,1.2305,1.2305,1.2305,1.2458,1.2953,1.2824,1.2784,1.3233,1.2893,1.2616,1.2616,1.2418,1.2258,1.2151,1.2013,1.1812,1.1591,1.1369,1.1182,1.1002,1.1162,1.1136,1.0874,1.0935,1.1082,1.1263,1.0827,1.0821,1.1263,1.0821,1.0687,1.0854,1.0673,1.0633,1.2905,1.2715,1.2618,1.2847,1.2856,1.3077,1.4235,1.5199,1.5987,1.6501,1.6988,1.704,1.6176,0.0,0.0,0.0,0.0,0.0,0.0,0.0,0.0,0.0,0.0,0.0,0.0,0.0,0.0,0.0,0.0,0.0,0.0,0.0,0.0,0.0,1.2643,1.2643,1.2643,1.2643,1.2543,1.2305,1.2305,1.2496,1.2784,1.2784,1.2958,1.3206,1.3106,1.3347,1.387,1.4304,1.4303,1.3955,1.4048,1.4088,1.4088,1.4088,1.4088,1.4088,1.4088,1.4088,1.4075,1.3975,1.3948,1.3928,1.3841,1.3808,1.3768,1.3527,1.332,1.316,1.2985,1.2906,1.2819,1.2398,1.2305,1.2305,1.2305,1.2305,1.2305,1.2305,1.2305,1.2492,1.3106,1.2872,1.2851,1.3373,1.2993,1.2643,1.2643,1.2425,1.2305,1.2305,1.2044,1.1906,1.1906,1.1683,1.1476,1.1316,1.1543,1.149,1.1009,1.1169,1.1363,1.1563,1.1082,1.1076,1.1563,1.1076,1.0935,1.1129,1.0922,1.0928,1.2905,1.2369,1.1972,0.0,0.0,0.0,1.4945,1.5752,1.6813,1.9357,1.8879,1.7864,1.75,0.0,0.0,0.0,0.0,0.0,0.0,0.0,0.0,0.0,0.0,0.0,0.0,0.0,0.0,0.0,0.0,0.0,0.0,0.0,0.0,0.0,1.2298,1.2298,1.2305,1.2298,1.2298,1.2305,1.2305,1.2458,1.2784,1.2784,1.2951,1.3186,1.2918,1.2958,1.3186,1.2918,1.3106,1.3633,1.3968,1.4082,1.4088,1.4088,1.4088,1.4088,1.4088,1.4088,1.4041,1.37,1.36,1.3547,1.33,1.3213,1.3213,1.3213,1.3206,1.3206,1.3206,1.2759,1.2305,1.2305,1.2305,1.2305,1.2305,1.2305,1.2305,1.2305,1.2305,1.2498,1.3106,1.2705,1.2512,1.3126,1.2692,1.2305,1.2305,1.2305,1.2305,1.2305,1.2044,1.1906,1.1906,1.1906,1.1906,1.1906,1.2144,1.1911,1.1035,1.1591,1.1906,1.1906,1.1577,1.157,1.1906,1.157,1.1389,1.1395,1.1389,1.1269,1.2905,1.2369,0.0,1.2355,0.0,0.0,0.0,1.5335,0.0,0.0,1.7795,1.7231,1.7719,0.0,0.0,0.0,0.0,0.0,0.0,0.0,0.0,0.0,0.0,0.0,0.0,0.0,0.0,0.0,0.0,0.0,0.0,0.0,0.0,0.0,1.2104,1.2098,1.2298,1.2098,1.2098,1.2305,1.2305,1.2345,1.2445,1.269,1.2837,1.2918,1.2824,1.2958,1.32,1.3113,1.33,1.3613,1.37,1.3901,1.4088,1.4088,1.4088,1.4088,1.4088,1.4088,1.4041,1.37,1.36,1.3547,1.33,1.3213,1.3213,1.3213,1.3053,1.2924,1.2924,1.279,1.265,1.265,1.2452,1.2305,1.2305,1.2305,1.2365,1.261,1.265,1.2844,1.3373,1.3013,1.2857,1.3387,1.2826,1.2305,1.2305,1.2305,1.2305,1.2305,1.2225,1.2171,1.2171,1.2171,1.2084,1.1919,1.2144,1.2098,1.1665,1.1812,1.1906,1.1906,1.1577,1.157,1.1906,1.157,1.153,1.173,1.1523,1.1342,1.2452,1.1849,0.0,1.1927,1.2617,1.3524,1.5037,0.0,0.0,0.0,0.0,1.7467,0.0,0.0,0.0,0.0,0.0,0.0,0.0,0.0,0.0,0.0,0.0,0.0,0.0,0.0,0.0,0.0,0.0,0.0,0.0,0.0,0.0,0.0,1.1844,1.183,1.2131,1.1844,1.1897,1.2305,1.2184,1.2191,1.2311,1.2522,1.2603,1.2603,1.2603,1.2672,1.2859,1.2979,1.3133,1.3307,1.3507,1.364,1.3768,1.4001,1.4015,1.3908,1.3908,1.3908,1.3841,1.342,1.3287,1.3233,1.2939,1.2933,1.3026,1.3026,1.3018,1.2971,1.2971,1.2878,1.2757,1.2636,1.2563,1.2516,1.2516,1.2385,1.2392,1.2723,1.269,1.2766,1.3327,1.3066,1.2951,1.34,1.2806,1.2305,1.2305,1.2305,1.2305,1.2305,1.2305,1.2305,1.2305,1.2305,1.2225,1.2051,1.2204,1.2225,1.2087,1.2044,1.2044,1.2044,1.1864,1.1864,1.2044,1.1864,1.1864,1.2037,1.1857,1.1493,1.1715,0.0,0.0,1.1436,1.2496,0.0,1.5725,0.0,0.0,0.0,0.0,0.0,0.0,0.0,0.0,0.0,0.0,0.0,0.0,0.0,0.0,0.0,0.0,0.0,0.0,0.0,0.0,0.0,0.0,0.0,0.0,0.0,0.0,1.1866,1.1543,1.153,1.1859,1.1536,1.1663,0.0,1.202,1.204,1.2265,1.2291,1.2305,1.2305,1.2305,1.2305,1.2325,1.263,1.2757,1.2837,1.3347,1.3373,1.328,1.3808,1.3834,1.356,1.356,1.356,1.3467,1.2971,1.2784,1.273,1.2392,1.2529,1.2757,1.2811,1.2953,1.314,1.32,1.3018,1.271,1.2371,1.2549,1.275,1.2777,1.2569,1.2438,1.2804,1.265,1.2605,1.3186,1.3033,1.2951,1.3173,1.2719,1.2345,1.2345,1.2318,1.2305,1.2305,1.2325,1.2331,1.2305,1.2325,1.2331,1.2305,1.2305,1.2305,1.2305,1.2305,1.2305,1.2305,1.2305,1.2305,1.2305,1.2305,1.2305,1.2305,1.2224,1.1535,1.1015,1.0677,0.0,0.0,1.2806,1.4764,1.6165,1.7343,0.0,0.0,0.0,0.0,0.0,0.0,0.0,0.0,0.0,0.0,0.0,0.0,0.0,0.0,0.0,0.0,0.0,0.0,0.0,0.0,0.0,0.0,0.0,0.0,0.0,1.1523,1.1236,1.1223,1.1482,1.1229,1.1263,0.0,1.179,1.194,1.2007,1.2198,1.2305,1.2305,1.2305,1.2305,1.2305,1.2371,1.2569,1.2797,1.2931,1.3053,1.3227,1.3353,1.336,1.3307,1.3307,1.3307,1.324,1.2904,1.2784,1.273,1.2392,1.2345,1.2498,1.2979,1.2812,1.2605,1.3086,1.3018,1.271,1.2371,1.2351,1.2496,1.273,1.273,1.2844,1.3347,1.336,1.3433,1.3834,1.3647,1.3394,1.3233,1.2893,1.269,1.269,1.2445,1.2305,1.2305,1.2549,1.2596,1.2318,1.2556,1.2589,1.2318,1.2305,1.2305,1.2305,1.2305,1.2305,1.2305,1.2305,1.2305,1.2305,1.2305,1.2305,1.2268,1.1502,1.0767,1.0312,0.0,0.0,1.1396,0.0,1.5018,1.6295,1.732,0.0,0.0,0.0,0.0,0.0,0.0,0.0,0.0,0.0,0.0,0.0,0.0,0.0,0.0,0.0,0.0,0.0,0.0,0.0,0.0,0.0,0.0,0.0,1.1289,1.1223,1.1223,1.0942,1.0922,1.1216,1.0929,1.1002,1.1395,1.1583,1.1804,1.2084,1.2231,1.2225,1.2098,1.2098,1.2098,1.2098,1.2098,1.2308,1.2583,1.273,1.2797,1.2844,1.3588,1.3491,1.3064,1.3522,1.3368,1.2978,1.267,1.2569,1.2543,1.2351,1.2305,1.2365,1.2685,1.2652,1.2559,1.2732,1.2872,1.2852,1.2405,1.2412,1.2636,1.2945,1.2891,1.2965,1.3487,1.3493,1.3487,1.3828,1.3706,1.3507,1.3253,1.2985,1.273,1.2589,1.2398,1.2358,1.2536,1.269,1.2784,1.2739,1.2879,1.2878,1.2569,1.2549,1.2489,1.2311,1.2305,1.2305,1.2305,1.2305,1.2305,1.2305,1.2305,1.2231,1.2098,1.1569,1.0617,0.964,0.0,0.9834,1.1812,1.3473,0.0,1.6197,0.0,0.0,0.0,0.0,0.0,0.0,0.0,0.0,0.0,0.0,0.0,0.0,0.0,0.0,0.0,0.0,0.0,0.0,0.0,0.0,0.0,0.0,0.0,1.1263,1.1049,1.0915,1.0915,1.072,1.0707,1.0915,1.0713,1.0834,1.1242,1.1295,1.163,1.2151,1.2151,1.2051,1.1899,1.1852,1.1859,1.1906,1.1906,1.2074,1.2325,1.261,1.2556,1.2432,1.3713,1.3557,1.2817,1.3595,1.3377,1.2663,1.2385,1.2305,1.2305,1.2305,1.2305,1.2311,1.2365,1.2556,1.2677,1.2498,1.2638,1.2661,1.2223,1.23,1.2593,1.302,1.3013,1.3085,1.3507,1.3487,1.344,1.364,1.368,1.36,1.3394,1.3092,1.2777,1.2492,1.2412,1.2472,1.2757,1.2878,1.3025,1.3193,1.326,1.3153,1.2884,1.2811,1.2677,1.2385,1.2325,1.2305,1.2305,1.2305,1.2305,1.2305,1.2305,1.2151,1.1906,1.1774,1.0598,0.0,0.0,1.0305,0.0,1.3043,1.4513,0.0,0.0,0.0,0.0,0.0,0.0,0.0,0.0,0.0,0.0,0.0,0.0,0.0,0.0,0.0,0.0,0.0,0.0,0.0,0.0,0.0,0.0,0.0,0.0,1.0707,1.0673,1.0646,1.0646,1.0613,1.0613,1.0646,1.0613,1.0633,1.0713,1.0929,1.1223,1.1509,1.1509,1.1663,1.1893,1.1597,1.163,1.1906,1.1906,1.2074,1.2305,1.2345,1.2338,1.2311,1.2533,1.2503,1.2395,1.2506,1.2469,1.2351,1.2311,1.2305,1.2305,1.2305,1.2305,1.2358,1.265,1.2569,1.2472,1.2966,1.2126,1.1163,1.1298,1.1217,1.1408,1.2586,1.3186,1.3507,1.3586,1.3821,1.3981,1.4021,1.4028,1.4015,1.3975,1.35,1.3133,1.3093,1.2891,1.2737,1.2784,1.3213,1.34,1.3227,1.34,1.342,1.3166,1.2938,1.2764,1.2723,1.2438,1.2305,1.2305,1.2305,1.2305,1.2305,1.2305,1.2151,1.187,1.123,1.0115,0.8804,0.9178,0.9751,0.0,1.212,1.3851,1.4775,0.0,0.0,0.0,0.0,0.0,0.0,0.0,0.0,0.0,0.0,0.0,0.0,0.0,0.0,0.0,0.0,0.0,0.0,0.0,0.0,0.0,0.0,1.0519,1.0321,1.0506,1.0512,1.0314,1.0506,1.0593,1.0593,1.0593,1.0673,1.0841,1.0929,1.1142,1.1382,1.1256,1.1256,1.1404,1.1243,1.1349,1.1623,1.1623,1.1891,1.2305,1.2305,1.2305,1.2372,1.2879,1.2665,1.2157,1.2859,1.2629,1.2084,1.2245,1.2305,1.2305,1.2305,1.2305,1.2325,1.2496,1.2019,1.1521,1.1777,1.1038,1.016,1.0138,1.0716,1.1418,1.1818,1.2557,1.324,1.354,1.3881,1.4088,1.4088,1.4088,1.4035,1.3868,1.358,1.3353,1.3233,1.3093,1.3066,1.3233,1.3447,1.362,1.3701,1.3821,1.3768,1.3427,1.27,1.2444,1.2797,1.1999,1.1815,1.2305,1.2305,1.2305,1.2305,1.2305,1.2151,1.187,1.0997,0.9868,0.0,0.0,0.932,0.979,1.1391,1.3121,0.0,0.0,0.0,0.0,0.0,0.0,0.0,0.0,0.0,0.0,0.0,0.0,0.0,0.0,0.0,0.0,0.0,0.0,0.0,0.0,0.0,0.0,0.0,1.0459,1.0134,1.0327,1.0347,1.0127,1.0327,1.0512,1.0593,1.0593,1.07,1.0882,1.0882,1.0995,1.1196,1.0982,1.0882,1.0882,1.0882,1.1089,1.1389,1.1389,1.177,1.2335,1.2556,1.2519,1.2409,1.3346,1.2985,1.2119,1.3013,1.2768,1.2011,1.2231,1.2305,1.2305,1.2305,1.2305,1.2305,1.2305,1.1768,1.1143,1.0946,1.05,0.999,0.9609,1.0628,1.1706,1.1778,1.246,1.3133,1.3613,1.3935,1.4088,1.4088,1.4088,1.4015,1.3746,1.3646,1.3527,1.3347,1.332,1.336,1.358,1.3666,1.3848,1.4068,1.4088,1.3862,1.3293,1.2407,1.1979,1.2147,1.1409,1.1195,1.1645,1.1877,1.2074,1.2305,1.2378,1.2268,1.187,1.1206,1.0223,0.0,0.8991,0.0,1.0248,0.0,0.0,0.0,0.0,0.0,0.0,0.0,0.0,0.0,0.0,0.0,0.0,0.0,0.0,0.0,0.0,0.0,0.0,0.0,0.0,0.0,0.0,0.0,0.0,0.0,1.0459,1.0134,1.0134,1.0134,1.0083,1.0134,1.0274,1.0586,1.0593,1.06,1.0613,1.0613,1.062,1.0633,1.062,1.0613,1.0613,1.0613,1.0935,1.1389,1.1389,1.177,1.2372,1.3273,1.3091,1.2409,1.3346,1.3084,1.2285,1.2335,1.2328,1.2278,1.2298,1.2305,1.2305,1.2305,1.2305,1.2305,1.2305,1.2261,1.2061,1.1375,1.1144,1.0974,1.0319,1.0951,1.2015,1.3209,1.3512,1.3646,1.4001,1.4075,1.4088,1.4088,1.4088,1.4082,1.4068,1.378,1.3593,1.358,1.358,1.3586,1.36,1.3895,1.4068,1.4088,1.4088,1.3597,1.2438,1.2081,1.1438,1.0372,1.0761,1.0617,0.9868,1.0651,1.1461,1.2305,1.2623,1.2462,1.1913,1.2115,1.1522,0.0,0.0,0.0,0.9861,1.0841,0.0,0.0,0.0,0.0,0.0,0.0,0.0,0.0,0.0,0.0,0.0,0.0,0.0,0.0,0.0,0.0,0.0,0.0,0.0,0.0,0.0,0.0,0.0,0.0,0.0,0.9866,1.0013,1.0027,0.9846,1.002,1.0261,1.0586,1.0593,1.0593,1.0593,1.0593,1.0593,1.0593,1.0593,1.0593,1.0593,1.0593,1.0889,1.1389,1.1389,1.177,1.2342,1.2659,1.2592,1.2335,1.2666,1.2469,1.2087,1.2238,1.2178,1.2051,1.2238,1.2305,1.2305,1.2305,1.2305,1.2345,1.2569,1.1619,1.0478,1.0268,0.9805,0.9687,1.0866,1.1584,1.2267,1.3369,1.3753,1.3901,1.3814,1.3955,1.4088,1.4088,1.4088,1.4088,1.4088,1.3995,1.3928,1.3928,1.3928,1.3928,1.3928,1.4021,1.4088,1.4088,1.4088,1.3597,1.237,1.1518,1.081,1.0208,0.9635,0.9442,0.971,1.0218,1.0538,1.0617,1.154,1.1758,1.1327,1.1506,1.1252,0.8804,0.0,0.0,0.0,0.0,0.0,0.0,0.0,0.0,0.0,0.0,0.0,0.0,0.0,0.0,0.0,0.0,0.0,0.0,0.0,0.0,0.0,0.0,0.0,0.0,0.0,0.0,0.0,0.0,0.0,0.9749,0.996,1.0027,0.9833,1.0114,1.0361,1.0586,1.0593,1.0593,1.0593,1.0593,1.0593,1.0593,1.0593,1.0593,1.06,1.07,1.0982,1.1389,1.1389,1.177,1.2342,1.2666,1.2592,1.2335,1.2666,1.2469,1.2044,1.2231,1.2178,1.2044,1.2238,1.2305,1.2318,1.2418,1.2378,1.2385,1.2831,1.1797,1.0573,1.0426,1.0019,1.0116,1.2062,1.2643,1.2939,1.3622,1.3948,1.4028,1.3793,1.3948,1.4088,1.4088,1.4088,1.4088,1.4088,1.4088,1.4088,1.4088,1.4088,1.4088,1.4088,1.4088,1.4088,1.4088,1.373,1.2991,1.1809,1.0654,0.9775,0.9166,0.8683,0.8539,0.8802,0.9326,0.9326,0.8844,1.0341,1.1118,1.1188,1.1273,1.1418,0.0,0.0,0.0,0.0,0.0,0.0,0.0,0.0,0.0,0.0,0.0,0.0,0.0,0.0,0.0,0.0,0.0,0.0,0.0,0.0,0.0,0.0,0.0,0.0,0.0,0.0,0.0,0.0,0.0,1.0332,0.9755,0.9967,1.0083,1.0083,1.0439,1.0593,1.0593,1.0593,1.0593,1.0593,1.0593,1.0593,1.0593,1.0593,1.0593,1.0606,1.0894,1.1149,1.1389,1.1402,1.1742,1.2372,1.331,1.3098,1.2409,1.331,1.3091,1.2305,1.2305,1.2305,1.2305,1.2305,1.2305,1.2358,1.2697,1.2583,1.2438,1.3053,1.3006,1.2608,1.19,1.1904,1.245,1.3798,1.4088,1.4088,1.4088,1.4088,1.4088,1.4088,1.4088,1.4088,1.4088,1.4088,1.4088,1.4088,1.4088,1.4088,1.4088,1.4088,1.4039,1.4039,1.3997,1.4004,1.4004,1.2899,1.1766,1.0611,0.9492,0.8364,0.7139,0.7904,0.7978,0.7136,0.7943,0.7939,0.7095,0.9166,1.0589,1.1416,1.149,1.2102,0.8804,0.0,0.0,0.0,0.0,0.0,1.0947,1.1044,0.0,0.0,0.0,0.0,0.0,0.0,0.0,0.0,0.0,0.0,0.0,0.0,0.0,0.0,0.0,0.0,0.0,0.0,0.0,0.0,1.0392,1.0167,1.0007,1.0074,1.0083,1.0083,1.0439,1.0593,1.0593,1.0593,1.0593,1.0593,1.0593,1.0593,1.0593,1.0593,1.0593,1.0593,1.068,1.0962,1.1409,1.1657,1.1964,1.2342,1.2592,1.2519,1.2342,1.2592,1.2519,1.2305,1.2305,1.2305,1.2305,1.2305,1.2305,1.2358,1.2697,1.2723,1.279,1.3313,1.2834,1.2166,1.2135,1.2123,1.245,1.3798,1.4088,1.4088,1.4088,1.4088,1.4088,1.4088,1.4088,1.4088,1.4088,1.4088,1.4088,1.4088,1.4088,1.4088,1.4088,1.3336,1.2808,1.2808,1.2077,1.1563,1.1563,1.1257,1.0567,0.9449,0.9065,0.8364,0.7139,0.7318,0.7358,0.7095,0.7318,0.7358,0.7095,0.8574,0.9269,0.9275,1.0797,1.2206,0.0,0.0,0.0,0.0,0.0,0.0,1.0507,1.0518,1.0658,0.0,0.0,0.0,0.0,0.0,0.0,0.0,0.0,0.0,0.0,0.0,0.0,0.0,0.0,0.0,0.0,0.0,0.0,1.0412,1.0214,1.0083,1.0083,1.0,1.0047,1.0294,1.0506,1.0593,1.0593,1.0593,1.0593,1.0593,1.0593,1.0593,1.0593,1.0593,1.0593,1.06,1.072,1.1002,1.1415,1.175,1.2074,1.2305,1.2305,1.2305,1.2305,1.2305,1.2305,1.2305,1.2305,1.2305,1.2305,1.2305,1.2385,1.2583,1.2884,1.2891,1.2854,1.3028,1.2577,1.2224,1.2899,1.3006,1.314,1.3915,1.4088,1.4088,1.4088,1.4088,1.4088,1.4088,1.4088,1.4088,1.4088,1.4088,1.4088,1.4088,1.4088,1.3913,1.3421,1.2723,1.2109,1.1638,1.0994,1.0611,1.0611,1.0183,0.9623,0.8934,0.8408,0.7841,0.7139,0.7095,0.7095,0.7095,0.7095,0.7095,0.7095,0.7797,0.857,0.9359,1.1039,1.256,0.0,0.0,0.0,0.0,0.0,0.0,1.0186,1.003,0.9936,0.0,0.0,0.0,0.0,0.0,0.0,0.0,0.0,0.0,0.0,0.0,0.0,0.0,0.0,0.0,0.0,1.0338,1.0385,1.0087,1.0067,1.0067,1.0067,0.9853,1.0017,1.0573,1.0593,1.0593,1.0593,1.0593,1.0593,1.0593,1.0593,1.0593,1.0593,1.0593,1.0593,1.0606,1.0835,1.1129,1.1415,1.171,1.2011,1.2305,1.2305,1.2305,1.2305,1.2305,1.2305,1.2305,1.2305,1.2305,1.2268,1.219,1.2375,1.2645,1.291,1.2798,1.2485,1.2302,1.2347,1.2717,1.3607,1.3977,1.4088,1.3913,1.3997,1.4088,1.4088,1.4088,1.4088,1.4088,1.4088,1.4088,1.4088,1.4088,1.4053,1.3952,1.389,1.3483,1.2283,1.2003,1.152,1.0559,1.0279,1.0231,1.0255,0.9288,0.8723,0.8744,0.772,0.7102,0.7122,0.7105,0.7095,0.7095,0.7095,0.7095,0.7095,0.7228,0.8444,1.0611,1.1772,1.2942,0.0,0.0,0.0,0.0,0.0,0.0,0.948,0.9378,0.9606,0.0,0.0,0.0,0.0,0.0,0.0,0.0,0.0,0.0,0.0,0.0,0.0,0.0,0.0,0.0,0.0,0.9849,0.9856,0.9773,0.9766,0.9766,0.9766,0.9933,1.0194,1.0579,1.0593,1.0593,1.0593,1.0593,1.0593,1.0593,1.0593,1.0593,1.0593,1.0593,1.0593,1.0593,1.0653,1.0942,1.1395,1.1455,1.1824,1.2305,1.2305,1.2305,1.2305,1.2305,1.2305,1.2305,1.2305,1.2305,1.219,1.1499,1.1289,1.1424,1.1732,1.1312,1.0878,1.1727,1.2818,1.3552,1.2588,1.3213,1.3864,1.2893,1.3379,1.4088,1.4088,1.4088,1.4088,1.4088,1.4088,1.4088,1.4088,1.4088,1.3815,1.302,1.2733,1.2275,1.1211,1.0202,0.9507,0.9393,0.844,0.7849,0.8027,0.7652,0.7501,0.7677,0.7341,0.7197,0.7322,0.7207,0.7095,0.7095,0.7095,0.7095,0.7095,0.8057,0.9274,1.0611,1.1772,1.2942,0.0,0.0,0.0,0.9719,0.0,0.0,0.0,0.9098,0.924,0.0,0.0,0.0,0.0,0.0,0.0,0.0,0.0,0.0,0.0,0.0,0.0,0.0,0.0,0.0,0.0,0.9822,0.9619,0.9472,0.9325,0.9372,0.9695,0.982,1.0131,1.0579,1.0593,1.0593,1.0593,1.0593,1.0593,1.0593,1.0593,1.0593,1.0593,1.0593,1.0593,1.0593,1.0593,1.0889,1.1389,1.1389,1.177,1.2305,1.2305,1.2305,1.2305,1.2305,1.2305,1.2305,1.2305,1.2305,1.2277,1.1986,1.1883,1.188,1.1761,1.0684,0.9876,1.1483,1.214,1.2444,1.2908,1.3102,1.3069,1.2456,1.2339,1.2345,1.2345,1.282,1.3203,1.3203,1.3688,1.3906,1.3294,1.3805,1.3689,1.1954,1.2815,1.2768,1.0371,1.0616,1.0362,0.8563,0.831,0.8071,0.7521,0.7343,0.7288,0.7412,0.7224,0.721,0.7409,0.7221,0.7095,0.7095,0.7095,0.7095,0.7095,0.8321,0.9192,0.9753,1.0416,1.1277,0.0,0.0,0.0,0.0,0.0,0.976,0.0,0.0,0.0,0.0,0.0,0.0,0.0,0.0,0.0,0.0,0.0,0.0,0.0,0.0,0.0,0.0,0.0,0.0,0.0,0.9917,0.9553,0.9144,0.8911,0.9065,0.9682,0.9715,0.9983,1.0573,1.0593,1.0593,1.0593,1.0593,1.0593,1.0593,1.0593,1.0593,1.0593,1.0593,1.0593,1.0593,1.0646,1.0909,1.1349,1.1369,1.1744,1.2225,1.2278,1.2305,1.2305,1.2305,1.2305,1.2305,1.2305,1.2305,1.2314,1.2411,1.2511,1.2421,1.1823,1.0778,1.0091,1.1505,1.1587,1.1638,1.3279,1.299,1.2242,1.2023,1.1252,1.0611,1.0611,1.1338,1.1997,1.2,1.2765,1.3258,1.2723,1.3613,1.3698,1.1478,1.3088,1.3378,1.0121,1.1553,1.162,0.8381,0.8901,0.8987,0.7729,0.7502,0.7428,0.7455,0.7312,0.7299,0.7451,0.7282,0.7139,0.7139,0.7112,0.7095,0.7095,0.8136,0.8725,0.8945,0.9263,0.9892,0.0,0.0,0.0,0.0,1.0492,0.0,0.0,0.0,0.0,0.0,0.0,0.0,0.0,0.0,0.0,0.0,0.0,0.0,0.0,0.0,0.0,0.0,0.0,0.0,0.0,0.0,0.9525,0.8884,0.8824,0.9065,0.9682,0.9715,0.9983,1.0573,1.0593,1.0593,1.0593,1.0593,1.0593,1.0593,1.0593,1.0593,1.0593,1.0593,1.0593,1.0606,1.0861,1.0982,1.1062,1.1289,1.1623,1.198,1.2204,1.2305,1.2305,1.2305,1.2305,1.2305,1.2305,1.2305,1.2197,1.1445,1.1414,1.1537,1.0948,1.182,1.288,1.2123,1.278,1.3461,1.2432,1.2199,1.2066,1.1037,1.0697,1.0611,1.0611,1.0697,1.084,1.0962,1.1009,1.1606,1.3561,1.4024,1.3739,1.256,1.2789,1.2578,1.1253,1.1461,1.1117,0.9711,0.9528,0.9031,0.787,0.7655,0.7628,0.7753,0.7628,0.7611,0.7753,0.7492,0.7346,0.7346,0.721,0.7095,0.7095,0.7413,0.8102,0.9123,1.0131,1.0765,0.0,0.0,0.0,0.0,0.0,0.0,0.9849,0.0,0.9361,0.0,0.0,0.0,0.0,0.0,0.0,0.0,0.0,0.0,0.0,0.0,0.0,0.0,0.0,0.0,0.0,0.0,0.0,0.0,0.0,0.9631,1.0258,0.9904,0.9983,1.0573,1.0593,1.0593,1.0593,1.0593,1.0593,1.0593,1.0593,1.0593,1.0593,1.0593,1.0593,1.0606,1.0868,1.1089,1.1269,1.1557,1.1757,1.1933,1.2191,1.2305,1.2305,1.2305,1.2305,1.2305,1.2305,1.2305,1.2277,1.2101,1.1894,1.1659,1.1414,1.1587,1.188,1.2085,1.259,1.3087,1.3149,1.2729,1.22,1.1681,1.0567,0.9623,0.9623,0.9623,0.9639,0.979,1.0757,1.1946,1.3028,1.3269,1.2729,1.0835,1.2578,1.3401,1.1446,1.2682,1.2718,0.9897,1.0405,1.0075,0.8083,0.7807,0.7746,0.7807,0.7753,0.7672,0.756,0.76,0.7546,0.7419,0.7394,0.7407,0.7407,0.7472,0.7819,0.8367,0.8832,0.9049,1.1335,0.0,0.0,0.0,0.0,0.0,0.0,0.0,0.0,0.0,0.0,0.0,0.0,0.0,0.0,0.0,0.0,0.0,0.0,0.0,0.0,0.0,0.0,0.0,0.0,0.0,0.0,0.0,0.0,0.0,1.0552,1.0029,0.995,1.0452,1.0553,1.0593,1.0593,1.0593,1.0593,1.0593,1.0593,1.0593,1.0593,1.0593,1.0593,1.0606,1.0868,1.1069,1.1209,1.151,1.1712,1.177,1.1977,1.2158,1.2305,1.2305,1.2305,1.2305,1.2305,1.2351,1.2472,1.2817,1.2644,1.2383,1.2497,1.206,1.1735,1.2553,1.2808,1.2984,1.3864,1.3203,1.2285,1.2285,1.0783,0.9362,0.9362,0.9362,0.942,0.9522,1.0852,1.2038,1.221,1.2484,1.2167,1.0671,1.2705,1.3689,1.1812,1.3802,1.4021,1.0473,1.1187,1.097,0.8726,0.8133,0.7875,0.7875,0.7875,0.7777,0.7563,0.7719,0.7709,0.7495,0.7563,0.76,0.76,0.7638,0.7709,0.7811,0.7811,0.778,0.0,0.0,0.0,1.1062,0.0,0.0,0.0,0.0,1.0007,0.0,0.0,0.0,0.0,0.0,0.0,0.0,0.0,0.0,0.0,0.0,0.0,0.0,0.0,0.0,0.0,0.0,0.0,0.0,0.0,0.0,1.028,0.991,0.982,1.012,1.0439,1.0593,1.0593,1.0593,1.0593,1.0593,1.0593,1.0593,1.0593,1.0593,1.0593,1.0606,1.0868,1.0868,1.064,1.0935,1.1189,1.1409,1.1415,1.1804,1.2305,1.2305,1.2305,1.2305,1.2305,1.2529,1.2817,1.3093,1.336,1.3612,1.3939,1.399,1.4004,1.4046,1.4039,1.4039,1.4088,1.3203,1.2285,1.2285,1.1381,1.0567,1.0567,1.0567,1.0589,1.0726,1.0939,1.1184,1.1324,1.1883,1.2693,1.3792,1.3318,1.2859,1.2771,1.4288,1.4446,1.1895,1.1814,1.1365,1.0047,0.8722,0.7982,0.7982,0.7982,0.7978,0.7968,0.7885,0.7807,0.7797,0.7665,0.76,0.76,0.7736,0.7807,0.7811,0.7811,0.7889,0.0,0.0,1.1937,1.1643,0.0,0.0,0.0,0.0,0.0,0.0,0.0,0.0,0.0,0.0,0.0,0.0,0.0,0.0,0.0,0.0,0.0,0.0,0.0,0.0,0.0,0.0,0.0,0.0,0.0,0.0,0.0,1.0676,1.0388,1.0425,1.0539,1.0593,1.0593,1.0593,1.0593,1.0593,1.0593,1.0593,1.0593,1.0593,1.0593,1.0606,1.0868,1.0942,1.0882,1.1404,1.1516,1.1429,1.185,1.2011,1.2074,1.2231,1.2305,1.2331,1.2563,1.2697,1.2864,1.3333,1.3393,1.3447,1.3935,1.4088,1.4088,1.4088,1.4088,1.4088,1.4088,1.3779,1.347,1.347,1.2595,1.1724,1.1724,1.1288,1.0987,1.1076,1.1852,1.2518,1.2668,1.2808,1.3034,1.3446,1.3926,1.4257,1.4257,1.4162,1.3444,1.1743,1.0989,1.0096,0.8775,0.8283,0.7988,0.7988,0.7988,0.7944,0.7892,0.7887,0.7916,0.7814,0.7865,0.784,0.7843,0.7891,0.7914,0.7914,0.7914,0.7941,1.1917,1.2084,0.0,1.1953,1.165,0.0,1.0854,0.0,0.0,0.0,0.0,0.0,0.0,0.0,0.0,0.0,0.0,0.0,0.0,1.1925,0.0,0.0,0.0,0.0,0.0,0.0,0.0,0.0,0.0,0.0,0.0,0.0,1.0754,1.0419,1.0539,1.0593,1.0593,1.0593,1.0593,1.0593,1.0593,1.0593,1.0593,1.0593,1.0646,1.076,1.0909,1.1049,1.1142,1.1162,1.1335,1.1582,1.1624,1.1801,1.2044,1.2231,1.2371,1.2522,1.2717,1.2924,1.3133,1.348,1.3547,1.3594,1.3975,1.4088,1.4088,1.4088,1.4088,1.4088,1.4088,1.4088,1.4088,1.4088,1.3512,1.2942,1.2942,1.2632,1.2331,1.2406,1.3269,1.4004,1.4078,1.4146,1.408,1.3888,1.4134,1.4366,1.4366,1.4224,1.3444,1.1743,1.1038,0.9948,0.8137,0.7988,0.7988,0.7988,0.7988,0.7944,0.7896,0.7938,0.7944,0.7892,0.7938,0.7988,0.7988,0.7988,0.7988,0.7988,0.7988,0.7988]}]]